<?xml version='1.0' encoding='UTF-8'?><gpx version="1.1" creator="JPX - https://github.com/jenetics/jpx" xmlns="http://www.topografix.com/GPX/1/1"><trk><trkseg><trkpt lat="46.212638428982466" lon="13.078365415807141"><ele>164.0</ele><time>2026-04-26T07:21:51Z</time></trkpt><trkpt lat="46.212711243416564" lon="13.078388810655545"><ele>164.0</ele><time>2026-04-26T07:21:53Z</time></trkpt><trkpt lat="46.21282004634365" lon="13.078400243370853"><ele>164.0</ele><time>2026-04-26T07:21:55Z</time></trkpt><trkpt lat="46.21288695176978" lon="13.078399021745483"><ele>164.0</ele><time>2026-04-26T07:21:56Z</time></trkpt><trkpt lat="46.212975965822565" lon="13.078397632109981"><ele>164.0</ele><time>2026-04-26T07:21:57Z</time></trkpt><trkpt lat="46.21305987771385" lon="13.078401697353238"><ele>164.0</ele><time>2026-04-26T07:21:58Z</time></trkpt><trkpt lat="46.213128163992444" lon="13.078403673755377"><ele>163.39999999999998</ele><time>2026-04-26T07:21:59Z</time></trkpt><trkpt lat="46.21321264280896" lon="13.078426206003744"><ele>162.8</ele><time>2026-04-26T07:22:00Z</time></trkpt><trkpt lat="46.213301328504905" lon="13.07847225548746"><ele>162.2</ele><time>2026-04-26T07:22:01Z</time></trkpt><trkpt lat="46.213388288346536" lon="13.078523957984142"><ele>161.60000000000002</ele><time>2026-04-26T07:22:02Z</time></trkpt><trkpt lat="46.21346796064561" lon="13.078579422225188"><ele>161.0</ele><time>2026-04-26T07:22:03Z</time></trkpt><trkpt lat="46.2135571659515" lon="13.078654546887305"><ele>161.0</ele><time>2026-04-26T07:22:04Z</time></trkpt><trkpt lat="46.21363230193488" lon="13.078736212624252"><ele>161.0</ele><time>2026-04-26T07:22:05Z</time></trkpt><trkpt lat="46.21370960124831" lon="13.078814312151623"><ele>161.0</ele><time>2026-04-26T07:22:06Z</time></trkpt><trkpt lat="46.21379594042505" lon="13.078894550973711"><ele>161.0</ele><time>2026-04-26T07:22:07Z</time></trkpt><trkpt lat="46.21387963316613" lon="13.078977458844713"><ele>161.0</ele><time>2026-04-26T07:22:08Z</time></trkpt><trkpt lat="46.21397007307214" lon="13.079063799658783"><ele>161.20000000000002</ele><time>2026-04-26T07:22:09Z</time></trkpt><trkpt lat="46.21405128637414" lon="13.079140230846354"><ele>161.4</ele><time>2026-04-26T07:22:10Z</time></trkpt><trkpt lat="46.21412591479721" lon="13.079211658175476"><ele>161.6</ele><time>2026-04-26T07:22:11Z</time></trkpt><trkpt lat="46.2142063106186" lon="13.079293839616252"><ele>161.8</ele><time>2026-04-26T07:22:12Z</time></trkpt><trkpt lat="46.21429530275649" lon="13.079376392954824"><ele>162.0</ele><time>2026-04-26T07:22:13Z</time></trkpt><trkpt lat="46.21437042275084" lon="13.079448461565667"><ele>162.0</ele><time>2026-04-26T07:22:14Z</time></trkpt><trkpt lat="46.21443325254194" lon="13.079511417299253"><ele>162.0</ele><time>2026-04-26T07:22:15Z</time></trkpt><trkpt lat="46.21451113162967" lon="13.079588098081656"><ele>162.0</ele><time>2026-04-26T07:22:16Z</time></trkpt><trkpt lat="46.21458412031754" lon="13.079667308663575"><ele>162.0</ele><time>2026-04-26T07:22:17Z</time></trkpt><trkpt lat="46.21466182835954" lon="13.079747102660505"><ele>162.0</ele><time>2026-04-26T07:22:18Z</time></trkpt><trkpt lat="46.21473260735706" lon="13.079815358419916"><ele>162.0</ele><time>2026-04-26T07:22:19Z</time></trkpt><trkpt lat="46.21478953529371" lon="13.079868817466997"><ele>162.2</ele><time>2026-04-26T07:22:20Z</time></trkpt><trkpt lat="46.214882512704996" lon="13.07996397163056"><ele>162.39999999999998</ele><time>2026-04-26T07:22:22Z</time></trkpt><trkpt lat="46.214973047829254" lon="13.080065144642038"><ele>162.60000000000002</ele><time>2026-04-26T07:22:24Z</time></trkpt><trkpt lat="46.21502691901936" lon="13.080119578207503"><ele>162.8</ele><time>2026-04-26T07:22:25Z</time></trkpt><trkpt lat="46.215097865813235" lon="13.080167438790808"><ele>163.0</ele><time>2026-04-26T07:22:26Z</time></trkpt><trkpt lat="46.21518312274967" lon="13.080202522420356"><ele>163.0</ele><time>2026-04-26T07:22:27Z</time></trkpt><trkpt lat="46.215273801529506" lon="13.0802346473664"><ele>163.0</ele><time>2026-04-26T07:22:28Z</time></trkpt><trkpt lat="46.21537603709465" lon="13.080282932824126"><ele>163.0</ele><time>2026-04-26T07:22:29Z</time></trkpt><trkpt lat="46.21548826433097" lon="13.080325029196375"><ele>163.0</ele><time>2026-04-26T07:22:30Z</time></trkpt><trkpt lat="46.21559627457785" lon="13.080351532210162"><ele>163.0</ele><time>2026-04-26T07:22:31Z</time></trkpt><trkpt lat="46.21568684722769" lon="13.080362986490865"><ele>163.0</ele><time>2026-04-26T07:22:32Z</time></trkpt><trkpt lat="46.21576405013007" lon="13.08037695351228"><ele>163.0</ele><time>2026-04-26T07:22:33Z</time></trkpt><trkpt lat="46.21588033953221" lon="13.080392985643586"><ele>163.0</ele><time>2026-04-26T07:22:35Z</time></trkpt><trkpt lat="46.21601876543245" lon="13.080452887252859"><ele>163.0</ele><time>2026-04-26T07:22:37Z</time></trkpt><trkpt lat="46.21610958160573" lon="13.080507942881828"><ele>163.0</ele><time>2026-04-26T07:22:38Z</time></trkpt><trkpt lat="46.21619298527606" lon="13.080555024147246"><ele>163.0</ele><time>2026-04-26T07:22:39Z</time></trkpt><trkpt lat="46.21626253012806" lon="13.080595071488668"><ele>163.0</ele><time>2026-04-26T07:22:40Z</time></trkpt><trkpt lat="46.216312232630145" lon="13.080659458893932"><ele>163.0</ele><time>2026-04-26T07:22:41Z</time></trkpt><trkpt lat="46.216372802924305" lon="13.080698038722298"><ele>163.0</ele><time>2026-04-26T07:22:42Z</time></trkpt><trkpt lat="46.21640077862577" lon="13.08079755198805"><ele>163.0</ele><time>2026-04-26T07:22:43Z</time></trkpt><trkpt lat="46.216420947846274" lon="13.080912902290041"><ele>163.0</ele><time>2026-04-26T07:22:44Z</time></trkpt><trkpt lat="46.216437310540215" lon="13.081044862764234"><ele>163.16666666666669</ele><time>2026-04-26T07:22:45Z</time></trkpt><trkpt lat="46.21644656437973" lon="13.0811523212173"><ele>163.33333333333334</ele><time>2026-04-26T07:22:46Z</time></trkpt><trkpt lat="46.2164347140909" lon="13.081297930498032"><ele>163.5</ele><time>2026-04-26T07:22:48Z</time></trkpt><trkpt lat="46.216441932018085" lon="13.081394304531742"><ele>163.66666666666666</ele><time>2026-04-26T07:22:49Z</time></trkpt><trkpt lat="46.21646827361255" lon="13.08150260556362"><ele>163.83333333333331</ele><time>2026-04-26T07:22:50Z</time></trkpt><trkpt lat="46.21651030068743" lon="13.081605036895493"><ele>164.0</ele><time>2026-04-26T07:22:51Z</time></trkpt><trkpt lat="46.21657321100471" lon="13.081696519588583"><ele>164.0</ele><time>2026-04-26T07:22:52Z</time></trkpt><trkpt lat="46.216666128680096" lon="13.081782629713887"><ele>164.0</ele><time>2026-04-26T07:22:53Z</time></trkpt><trkpt lat="46.21679213555412" lon="13.081863592981092"><ele>164.0</ele><time>2026-04-26T07:22:54Z</time></trkpt><trkpt lat="46.21694937543458" lon="13.08194920750584"><ele>164.0</ele><time>2026-04-26T07:22:55Z</time></trkpt><trkpt lat="46.217121720799575" lon="13.082047900425177"><ele>164.0</ele><time>2026-04-26T07:22:56Z</time></trkpt><trkpt lat="46.21731706315451" lon="13.082160460320893"><ele>164.0</ele><time>2026-04-26T07:22:57Z</time></trkpt><trkpt lat="46.21741963387432" lon="13.082250110234227"><ele>164.0</ele><time>2026-04-26T07:22:59Z</time></trkpt><trkpt lat="46.217548977658176" lon="13.082326201272886"><ele>164.0</ele><time>2026-04-26T07:23:00Z</time></trkpt><trkpt lat="46.21766116284948" lon="13.08238750089354"><ele>164.0</ele><time>2026-04-26T07:23:01Z</time></trkpt><trkpt lat="46.217759817640825" lon="13.08244916555771"><ele>164.0</ele><time>2026-04-26T07:23:02Z</time></trkpt><trkpt lat="46.217854432140925" lon="13.08250511901856"><ele>164.0</ele><time>2026-04-26T07:23:03Z</time></trkpt><trkpt lat="46.21796210441997" lon="13.082568779931506"><ele>164.0</ele><time>2026-04-26T07:23:04Z</time></trkpt><trkpt lat="46.21806758029129" lon="13.082644287466609"><ele>164.16666666666666</ele><time>2026-04-26T07:23:05Z</time></trkpt><trkpt lat="46.21815773973468" lon="13.082702558422845"><ele>164.33333333333331</ele><time>2026-04-26T07:23:06Z</time></trkpt><trkpt lat="46.21823032822139" lon="13.082755581937858"><ele>164.5</ele><time>2026-04-26T07:23:07Z</time></trkpt><trkpt lat="46.218288318555466" lon="13.08282019530436"><ele>164.66666666666666</ele><time>2026-04-26T07:23:08Z</time></trkpt><trkpt lat="46.218345244603206" lon="13.082917600521464"><ele>164.83333333333334</ele><time>2026-04-26T07:23:09Z</time></trkpt><trkpt lat="46.21841295623785" lon="13.08297118509869"><ele>165.0</ele><time>2026-04-26T07:23:10Z</time></trkpt><trkpt lat="46.218500082321306" lon="13.083067583007482"><ele>165.0</ele><time>2026-04-26T07:23:12Z</time></trkpt><trkpt lat="46.21855640582773" lon="13.083108494977003"><ele>165.0</ele><time>2026-04-26T07:23:19Z</time></trkpt><trkpt lat="46.21869143397027" lon="13.08299186268769"><ele>165.0</ele><time>2026-04-26T07:23:21Z</time></trkpt><trkpt lat="46.218754510784045" lon="13.082827416084497"><ele>165.0</ele><time>2026-04-26T07:23:22Z</time></trkpt><trkpt lat="46.21882574020727" lon="13.082625390377135"><ele>164.5</ele><time>2026-04-26T07:23:23Z</time></trkpt><trkpt lat="46.218930331133734" lon="13.082371555487157"><ele>164.0</ele><time>2026-04-26T07:23:24Z</time></trkpt><trkpt lat="46.21907361396566" lon="13.082050623317425"><ele>163.5</ele><time>2026-04-26T07:23:25Z</time></trkpt><trkpt lat="46.219242284926096" lon="13.08167649265858"><ele>163.0</ele><time>2026-04-26T07:23:26Z</time></trkpt><trkpt lat="46.21939413553725" lon="13.081346230931578"><ele>164.0</ele><time>2026-04-26T07:23:27Z</time></trkpt><trkpt lat="46.21959111454198" lon="13.080912625894582"><ele>165.0</ele><time>2026-04-26T07:23:28Z</time></trkpt><trkpt lat="46.219774196968444" lon="13.080491777827389"><ele>165.0</ele><time>2026-04-26T07:23:29Z</time></trkpt><trkpt lat="46.21993288999603" lon="13.080124843857714"><ele>165.0</ele><time>2026-04-26T07:23:30Z</time></trkpt><trkpt lat="46.2200735232652" lon="13.07980293055823"><ele>165.0</ele><time>2026-04-26T07:23:31Z</time></trkpt><trkpt lat="46.22020764493951" lon="13.079508445309674"><ele>165.0</ele><time>2026-04-26T07:23:32Z</time></trkpt><trkpt lat="46.22033349882471" lon="13.07923074755961"><ele>164.0</ele><time>2026-04-26T07:23:33Z</time></trkpt><trkpt lat="46.22045415767771" lon="13.078966938752052"><ele>163.0</ele><time>2026-04-26T07:23:34Z</time></trkpt><trkpt lat="46.22058550605473" lon="13.078679141717574"><ele>162.5</ele><time>2026-04-26T07:23:35Z</time></trkpt><trkpt lat="46.22072162599695" lon="13.078364667118434"><ele>162.0</ele><time>2026-04-26T07:23:36Z</time></trkpt><trkpt lat="46.22086875232565" lon="13.078023532709073"><ele>162.0</ele><time>2026-04-26T07:23:37Z</time></trkpt><trkpt lat="46.22102177580135" lon="13.077687991003662"><ele>162.0</ele><time>2026-04-26T07:23:38Z</time></trkpt><trkpt lat="46.22115483453055" lon="13.077394855618"><ele>162.66666666666666</ele><time>2026-04-26T07:23:39Z</time></trkpt><trkpt lat="46.22127526674717" lon="13.077123519013243"><ele>163.33333333333331</ele><time>2026-04-26T07:23:40Z</time></trkpt><trkpt lat="46.22138450263338" lon="13.076872816063657"><ele>164.0</ele><time>2026-04-26T07:23:41Z</time></trkpt><trkpt lat="46.2214944587457" lon="13.076625428464274"><ele>164.0</ele><time>2026-04-26T07:23:42Z</time></trkpt><trkpt lat="46.2216032021599" lon="13.076387193654162"><ele>164.0</ele><time>2026-04-26T07:23:43Z</time></trkpt><trkpt lat="46.22170902400596" lon="13.076152620530594"><ele>164.0</ele><time>2026-04-26T07:23:44Z</time></trkpt><trkpt lat="46.2218209528253" lon="13.07589605087032"><ele>164.0</ele><time>2026-04-26T07:23:45Z</time></trkpt><trkpt lat="46.221951023818896" lon="13.075604112862305"><ele>164.0</ele><time>2026-04-26T07:23:46Z</time></trkpt><trkpt lat="46.222093050127214" lon="13.075286020339941"><ele>164.0</ele><time>2026-04-26T07:23:47Z</time></trkpt><trkpt lat="46.22222070082235" lon="13.074995317202331"><ele>164.0</ele><time>2026-04-26T07:23:48Z</time></trkpt><trkpt lat="46.222332886097796" lon="13.074740270463744"><ele>164.0</ele><time>2026-04-26T07:23:49Z</time></trkpt><trkpt lat="46.2224424646231" lon="13.074499725759464"><ele>164.33333333333331</ele><time>2026-04-26T07:23:50Z</time></trkpt><trkpt lat="46.2225545627191" lon="13.074248040958276"><ele>164.66666666666666</ele><time>2026-04-26T07:23:51Z</time></trkpt><trkpt lat="46.22267330264873" lon="13.073977182675868"><ele>165.0</ele><time>2026-04-26T07:23:52Z</time></trkpt><trkpt lat="46.222791404052906" lon="13.073714692859667"><ele>165.0</ele><time>2026-04-26T07:23:53Z</time></trkpt><trkpt lat="46.222896717497214" lon="13.073484300021825"><ele>165.0</ele><time>2026-04-26T07:23:54Z</time></trkpt><trkpt lat="46.222990920620006" lon="13.073268962131321"><ele>165.0</ele><time>2026-04-26T07:23:55Z</time></trkpt><trkpt lat="46.22308189236072" lon="13.07306424450162"><ele>165.0</ele><time>2026-04-26T07:23:56Z</time></trkpt><trkpt lat="46.22317258741407" lon="13.0728526326242"><ele>165.0</ele><time>2026-04-26T07:23:57Z</time></trkpt><trkpt lat="46.223251818712214" lon="13.072623004259349"><ele>165.0</ele><time>2026-04-26T07:23:58Z</time></trkpt><trkpt lat="46.223323572679135" lon="13.07237080403117"><ele>164.66666666666666</ele><time>2026-04-26T07:23:59Z</time></trkpt><trkpt lat="46.22338742075937" lon="13.072108649425909"><ele>164.33333333333331</ele><time>2026-04-26T07:24:00Z</time></trkpt><trkpt lat="46.223432078416515" lon="13.071849222510014"><ele>164.0</ele><time>2026-04-26T07:24:01Z</time></trkpt><trkpt lat="46.2234721882097" lon="13.07161689385406"><ele>163.75</ele><time>2026-04-26T07:24:02Z</time></trkpt><trkpt lat="46.223510447331385" lon="13.071403932632007"><ele>163.5</ele><time>2026-04-26T07:24:03Z</time></trkpt><trkpt lat="46.22354458145658" lon="13.071206305385925"><ele>163.25</ele><time>2026-04-26T07:24:04Z</time></trkpt><trkpt lat="46.22357830940021" lon="13.071018084968381"><ele>163.0</ele><time>2026-04-26T07:24:05Z</time></trkpt><trkpt lat="46.22360917684524" lon="13.070839129391025"><ele>163.2</ele><time>2026-04-26T07:24:06Z</time></trkpt><trkpt lat="46.22363329339604" lon="13.070673532361429"><ele>163.4</ele><time>2026-04-26T07:24:07Z</time></trkpt><trkpt lat="46.22364262184218" lon="13.070515548357525"><ele>163.6</ele><time>2026-04-26T07:24:08Z</time></trkpt><trkpt lat="46.22364569501364" lon="13.070366979487547"><ele>163.79999999999998</ele><time>2026-04-26T07:24:09Z</time></trkpt><trkpt lat="46.223649896286794" lon="13.070232285534166"><ele>164.0</ele><time>2026-04-26T07:24:10Z</time></trkpt><trkpt lat="46.22364898112684" lon="13.070105712397503"><ele>164.0</ele><time>2026-04-26T07:24:11Z</time></trkpt><trkpt lat="46.22364776850316" lon="13.070001336358981"><ele>164.0</ele><time>2026-04-26T07:24:12Z</time></trkpt><trkpt lat="46.22366730629815" lon="13.069879395254873"><ele>164.0</ele><time>2026-04-26T07:24:13Z</time></trkpt><trkpt lat="46.22371588133221" lon="13.069746734956357"><ele>164.0</ele><time>2026-04-26T07:24:14Z</time></trkpt><trkpt lat="46.22377792480434" lon="13.069647728475669"><ele>164.0</ele><time>2026-04-26T07:24:15Z</time></trkpt><trkpt lat="46.22384500295613" lon="13.069550623820355"><ele>164.0</ele><time>2026-04-26T07:24:16Z</time></trkpt><trkpt lat="46.22392561222287" lon="13.069509100147512"><ele>164.0</ele><time>2026-04-26T07:24:17Z</time></trkpt><trkpt lat="46.22402721516143" lon="13.069507688522146"><ele>164.0</ele><time>2026-04-26T07:24:18Z</time></trkpt><trkpt lat="46.224145074298896" lon="13.06956291168373"><ele>164.0</ele><time>2026-04-26T07:24:19Z</time></trkpt><trkpt lat="46.224278958553434" lon="13.069657455128574"><ele>164.0</ele><time>2026-04-26T07:24:20Z</time></trkpt><trkpt lat="46.22443707932421" lon="13.069741759772462"><ele>164.0</ele><time>2026-04-26T07:24:21Z</time></trkpt><trkpt lat="46.2246404041857" lon="13.069832920391182"><ele>164.0</ele><time>2026-04-26T07:24:22Z</time></trkpt><trkpt lat="46.22484510250435" lon="13.069929738510245"><ele>164.33333333333331</ele><time>2026-04-26T07:24:23Z</time></trkpt><trkpt lat="46.225017808056265" lon="13.070015340508236"><ele>164.66666666666666</ele><time>2026-04-26T07:24:24Z</time></trkpt><trkpt lat="46.22516982290625" lon="13.07009168219339"><ele>165.0</ele><time>2026-04-26T07:24:25Z</time></trkpt><trkpt lat="46.22530986755243" lon="13.07016520482206"><ele>165.0</ele><time>2026-04-26T07:24:26Z</time></trkpt><trkpt lat="46.22544456594702" lon="13.070235014308373"><ele>165.0</ele><time>2026-04-26T07:24:27Z</time></trkpt><trkpt lat="46.22559159923356" lon="13.07030560894107"><ele>165.0</ele><time>2026-04-26T07:24:28Z</time></trkpt><trkpt lat="46.225754393368184" lon="13.070382336779442"><ele>164.33333333333334</ele><time>2026-04-26T07:24:29Z</time></trkpt><trkpt lat="46.22592600843876" lon="13.070456198870575"><ele>163.66666666666669</ele><time>2026-04-26T07:24:30Z</time></trkpt><trkpt lat="46.22610074787382" lon="13.07054915856849"><ele>163.0</ele><time>2026-04-26T07:24:31Z</time></trkpt><trkpt lat="46.22628281034569" lon="13.070637019965922"><ele>163.0</ele><time>2026-04-26T07:24:32Z</time></trkpt><trkpt lat="46.22646617876332" lon="13.070725055954899"><ele>163.0</ele><time>2026-04-26T07:24:33Z</time></trkpt><trkpt lat="46.22664258102375" lon="13.070816623752947"><ele>163.0</ele><time>2026-04-26T07:24:34Z</time></trkpt><trkpt lat="46.22681004968688" lon="13.070898017197258"><ele>163.33333333333334</ele><time>2026-04-26T07:24:35Z</time></trkpt><trkpt lat="46.22698703924372" lon="13.0709838820301"><ele>163.66666666666666</ele><time>2026-04-26T07:24:36Z</time></trkpt><trkpt lat="46.227169175732364" lon="13.071077199883003"><ele>164.0</ele><time>2026-04-26T07:24:37Z</time></trkpt><trkpt lat="46.227349865704085" lon="13.071165630691429"><ele>164.66666666666666</ele><time>2026-04-26T07:24:38Z</time></trkpt><trkpt lat="46.22751635815314" lon="13.071243290643292"><ele>165.33333333333334</ele><time>2026-04-26T07:24:39Z</time></trkpt><trkpt lat="46.227688665706495" lon="13.071331774163685"><ele>166.0</ele><time>2026-04-26T07:24:40Z</time></trkpt><trkpt lat="46.227880576406974" lon="13.071431303967346"><ele>166.0</ele><time>2026-04-26T07:24:41Z</time></trkpt><trkpt lat="46.22808653052726" lon="13.071534759103699"><ele>166.0</ele><time>2026-04-26T07:24:42Z</time></trkpt><trkpt lat="46.22830196938308" lon="13.071632860901708"><ele>166.0</ele><time>2026-04-26T07:24:43Z</time></trkpt><trkpt lat="46.22852248769972" lon="13.071736176872722"><ele>166.5</ele><time>2026-04-26T07:24:44Z</time></trkpt><trkpt lat="46.22874558571921" lon="13.071852471789121"><ele>167.0</ele><time>2026-04-26T07:24:45Z</time></trkpt><trkpt lat="46.22897569114517" lon="13.07196997851971"><ele>166.0</ele><time>2026-04-26T07:24:46Z</time></trkpt><trkpt lat="46.22921366906346" lon="13.072092460669692"><ele>165.0</ele><time>2026-04-26T07:24:47Z</time></trkpt><trkpt lat="46.229464041039265" lon="13.07221753872749"><ele>165.0</ele><time>2026-04-26T07:24:48Z</time></trkpt><trkpt lat="46.22969161501569" lon="13.072326560113366"><ele>165.0</ele><time>2026-04-26T07:24:49Z</time></trkpt><trkpt lat="46.22989391816208" lon="13.072427416475817"><ele>165.0</ele><time>2026-04-26T07:24:50Z</time></trkpt><trkpt lat="46.23007882045946" lon="13.072519644538117"><ele>165.0</ele><time>2026-04-26T07:24:51Z</time></trkpt><trkpt lat="46.23025653660117" lon="13.07260074913736"><ele>165.0</ele><time>2026-04-26T07:24:52Z</time></trkpt><trkpt lat="46.230424929729594" lon="13.07268166304547"><ele>165.0</ele><time>2026-04-26T07:24:53Z</time></trkpt><trkpt lat="46.230580517465704" lon="13.072763889118947"><ele>165.0</ele><time>2026-04-26T07:24:54Z</time></trkpt><trkpt lat="46.230746437087205" lon="13.072849768596477"><ele>165.0</ele><time>2026-04-26T07:24:55Z</time></trkpt><trkpt lat="46.23092837870525" lon="13.072940168544399"><ele>164.66666666666666</ele><time>2026-04-26T07:24:56Z</time></trkpt><trkpt lat="46.23112554015433" lon="13.073038202517834"><ele>164.33333333333331</ele><time>2026-04-26T07:24:57Z</time></trkpt><trkpt lat="46.2313339130597" lon="13.073141552634688"><ele>164.0</ele><time>2026-04-26T07:24:58Z</time></trkpt><trkpt lat="46.23154550908625" lon="13.073243075377293"><ele>165.0</ele><time>2026-04-26T07:24:59Z</time></trkpt><trkpt lat="46.231763588663924" lon="13.073346728683292"><ele>166.0</ele><time>2026-04-26T07:25:00Z</time></trkpt><trkpt lat="46.23198835740303" lon="13.07345846189481"><ele>166.0</ele><time>2026-04-26T07:25:01Z</time></trkpt><trkpt lat="46.232216911616895" lon="13.073574956755294"><ele>166.0</ele><time>2026-04-26T07:25:02Z</time></trkpt><trkpt lat="46.23244959190601" lon="13.0736953703264"><ele>165.5</ele><time>2026-04-26T07:25:03Z</time></trkpt><trkpt lat="46.23268440444416" lon="13.073815864355229"><ele>165.0</ele><time>2026-04-26T07:25:04Z</time></trkpt><trkpt lat="46.23292496996684" lon="13.073934269663306"><ele>164.5</ele><time>2026-04-26T07:25:05Z</time></trkpt><trkpt lat="46.233154015844455" lon="13.074050163589781"><ele>164.0</ele><time>2026-04-26T07:25:06Z</time></trkpt><trkpt lat="46.23336029376569" lon="13.074155791421097"><ele>163.66666666666666</ele><time>2026-04-26T07:25:07Z</time></trkpt><trkpt lat="46.23354377232206" lon="13.074255458719739"><ele>163.33333333333334</ele><time>2026-04-26T07:25:08Z</time></trkpt><trkpt lat="46.23372141496433" lon="13.07435018301211"><ele>163.0</ele><time>2026-04-26T07:25:09Z</time></trkpt><trkpt lat="46.23390558219705" lon="13.074440141120716"><ele>163.66666666666669</ele><time>2026-04-26T07:25:10Z</time></trkpt><trkpt lat="46.23410074824572" lon="13.074533837807166"><ele>164.33333333333334</ele><time>2026-04-26T07:25:11Z</time></trkpt><trkpt lat="46.23430325077144" lon="13.07463698986367"><ele>165.0</ele><time>2026-04-26T07:25:12Z</time></trkpt><trkpt lat="46.23451238198302" lon="13.07474887550613"><ele>165.0</ele><time>2026-04-26T07:25:13Z</time></trkpt><trkpt lat="46.23472191832242" lon="13.07484852105106"><ele>165.0</ele><time>2026-04-26T07:25:14Z</time></trkpt><trkpt lat="46.23491319682531" lon="13.074936804291658"><ele>165.0</ele><time>2026-04-26T07:25:15Z</time></trkpt><trkpt lat="46.235081806452946" lon="13.075020558949408"><ele>166.0</ele><time>2026-04-26T07:25:16Z</time></trkpt><trkpt lat="46.23524071849886" lon="13.075097283143228"><ele>167.0</ele><time>2026-04-26T07:25:17Z</time></trkpt><trkpt lat="46.23538495368957" lon="13.07516602116096"><ele>168.0</ele><time>2026-04-26T07:25:18Z</time></trkpt><trkpt lat="46.23552550384418" lon="13.075236189377353"><ele>168.66666666666666</ele><time>2026-04-26T07:25:19Z</time></trkpt><trkpt lat="46.23567697053333" lon="13.075315425007087"><ele>169.33333333333331</ele><time>2026-04-26T07:25:20Z</time></trkpt><trkpt lat="46.23583959528688" lon="13.075404066724175"><ele>170.0</ele><time>2026-04-26T07:25:21Z</time></trkpt><trkpt lat="46.236007546613685" lon="13.07549279732294"><ele>170.0</ele><time>2026-04-26T07:25:22Z</time></trkpt><trkpt lat="46.23618622761566" lon="13.075582906479813"><ele>170.0</ele><time>2026-04-26T07:25:23Z</time></trkpt><trkpt lat="46.236379381539926" lon="13.075679208465809"><ele>170.0</ele><time>2026-04-26T07:25:24Z</time></trkpt><trkpt lat="46.236590733557534" lon="13.075778818543613"><ele>170.0</ele><time>2026-04-26T07:25:25Z</time></trkpt><trkpt lat="46.23681136981508" lon="13.07587825622378"><ele>170.0</ele><time>2026-04-26T07:25:26Z</time></trkpt><trkpt lat="46.23701797446145" lon="13.075985658235455"><ele>170.0</ele><time>2026-04-26T07:25:27Z</time></trkpt><trkpt lat="46.23722141911297" lon="13.076092910893179"><ele>170.0</ele><time>2026-04-26T07:25:28Z</time></trkpt><trkpt lat="46.23743212099397" lon="13.076195633910825"><ele>170.0</ele><time>2026-04-26T07:25:29Z</time></trkpt><trkpt lat="46.23763696211073" lon="13.07630327272653"><ele>170.33333333333331</ele><time>2026-04-26T07:25:30Z</time></trkpt><trkpt lat="46.237846934492865" lon="13.076401795233345"><ele>170.66666666666666</ele><time>2026-04-26T07:25:31Z</time></trkpt><trkpt lat="46.23805006412875" lon="13.076506456649412"><ele>171.0</ele><time>2026-04-26T07:25:32Z</time></trkpt><trkpt lat="46.23824704322267" lon="13.076610429198745"><ele>172.0</ele><time>2026-04-26T07:25:33Z</time></trkpt><trkpt lat="46.23845312301664" lon="13.0767110926338"><ele>173.0</ele><time>2026-04-26T07:25:34Z</time></trkpt><trkpt lat="46.23866429349413" lon="13.076815227584959"><ele>174.0</ele><time>2026-04-26T07:25:35Z</time></trkpt><trkpt lat="46.23887675344337" lon="13.07692113982757"><ele>174.33333333333334</ele><time>2026-04-26T07:25:36Z</time></trkpt><trkpt lat="46.23909309748752" lon="13.077029418097059"><ele>174.66666666666669</ele><time>2026-04-26T07:25:37Z</time></trkpt><trkpt lat="46.23930062914315" lon="13.077135591896536"><ele>175.0</ele><time>2026-04-26T07:25:38Z</time></trkpt><trkpt lat="46.23948704429542" lon="13.077231829615236"><ele>175.0</ele><time>2026-04-26T07:25:39Z</time></trkpt><trkpt lat="46.239692759612154" lon="13.07733405639738"><ele>175.0</ele><time>2026-04-26T07:25:40Z</time></trkpt><trkpt lat="46.239908039206234" lon="13.077444907560281"><ele>175.0</ele><time>2026-04-26T07:25:41Z</time></trkpt><trkpt lat="46.24013276313905" lon="13.077557193451163"><ele>174.0</ele><time>2026-04-26T07:25:42Z</time></trkpt><trkpt lat="46.24036600998429" lon="13.077671969746069"><ele>173.0</ele><time>2026-04-26T07:25:43Z</time></trkpt><trkpt lat="46.24060781825987" lon="13.077792764023199"><ele>173.0</ele><time>2026-04-26T07:25:44Z</time></trkpt><trkpt lat="46.240864646305546" lon="13.07791488822405"><ele>173.0</ele><time>2026-04-26T07:25:45Z</time></trkpt><trkpt lat="46.24109354725856" lon="13.078021466336248"><ele>173.0</ele><time>2026-04-26T07:25:46Z</time></trkpt><trkpt lat="46.241302440173705" lon="13.078130402603012"><ele>173.0</ele><time>2026-04-26T07:25:47Z</time></trkpt><trkpt lat="46.241498409027585" lon="13.078231690122744"><ele>173.0</ele><time>2026-04-26T07:25:48Z</time></trkpt><trkpt lat="46.24168356812932" lon="13.078325508209003"><ele>173.66666666666666</ele><time>2026-04-26T07:25:49Z</time></trkpt><trkpt lat="46.24187358954409" lon="13.078418662873526"><ele>174.33333333333334</ele><time>2026-04-26T07:25:50Z</time></trkpt><trkpt lat="46.2420671074308" lon="13.078515310330816"><ele>175.0</ele><time>2026-04-26T07:25:51Z</time></trkpt><trkpt lat="46.24226335589858" lon="13.078616601029983"><ele>175.0</ele><time>2026-04-26T07:25:52Z</time></trkpt><trkpt lat="46.24244411632142" lon="13.07870918921726"><ele>175.0</ele><time>2026-04-26T07:25:53Z</time></trkpt><trkpt lat="46.24261241359444" lon="13.078791017977263"><ele>175.0</ele><time>2026-04-26T07:25:54.001Z</time></trkpt><trkpt lat="46.242767039700354" lon="13.078867666097254"><ele>175.0</ele><time>2026-04-26T07:25:55.001Z</time></trkpt><trkpt lat="46.24290984250037" lon="13.078943338027033"><ele>175.0</ele><time>2026-04-26T07:25:56Z</time></trkpt><trkpt lat="46.24305041712188" lon="13.079015398321088"><ele>175.0</ele><time>2026-04-26T07:25:57Z</time></trkpt><trkpt lat="46.243208518850665" lon="13.079093652321607"><ele>174.33333333333334</ele><time>2026-04-26T07:25:58.001Z</time></trkpt><trkpt lat="46.24337998153069" lon="13.079179907614725"><ele>173.66666666666666</ele><time>2026-04-26T07:25:59.001Z</time></trkpt><trkpt lat="46.24355625569539" lon="13.079268175189576"><ele>173.0</ele><time>2026-04-26T07:26:00.001Z</time></trkpt><trkpt lat="46.24374167684176" lon="13.079353230131499"><ele>173.0</ele><time>2026-04-26T07:26:01.001Z</time></trkpt><trkpt lat="46.24392665541989" lon="13.079424641806913"><ele>173.0</ele><time>2026-04-26T07:26:02.001Z</time></trkpt><trkpt lat="46.244099623829534" lon="13.079483086588793"><ele>173.0</ele><time>2026-04-26T07:26:03.001Z</time></trkpt><trkpt lat="46.244259198883086" lon="13.079532741498776"><ele>174.0</ele><time>2026-04-26T07:26:04.001Z</time></trkpt><trkpt lat="46.244407082596204" lon="13.07958000656766"><ele>175.0</ele><time>2026-04-26T07:26:05.001Z</time></trkpt><trkpt lat="46.244535845952484" lon="13.079621584598929"><ele>176.0</ele><time>2026-04-26T07:26:06.001Z</time></trkpt><trkpt lat="46.2446588502365" lon="13.079655619507367"><ele>177.0</ele><time>2026-04-26T07:26:07.001Z</time></trkpt><trkpt lat="46.24477694687156" lon="13.07967111145447"><ele>176.5</ele><time>2026-04-26T07:26:08.001Z</time></trkpt><trkpt lat="46.24489360767116" lon="13.079652065157369"><ele>176.0</ele><time>2026-04-26T07:26:09.001Z</time></trkpt><trkpt lat="46.24501527829054" lon="13.07959327734013"><ele>175.5</ele><time>2026-04-26T07:26:10.001Z</time></trkpt><trkpt lat="46.24513696392168" lon="13.079484538682523"><ele>175.0</ele><time>2026-04-26T07:26:11.001Z</time></trkpt><trkpt lat="46.24525790210253" lon="13.079352114809932"><ele>175.0</ele><time>2026-04-26T07:26:12.001Z</time></trkpt><trkpt lat="46.245378885975505" lon="13.079211459922256"><ele>175.0</ele><time>2026-04-26T07:26:13.001Z</time></trkpt><trkpt lat="46.245502016923645" lon="13.079065638560174"><ele>175.0</ele><time>2026-04-26T07:26:14.001Z</time></trkpt><trkpt lat="46.24561744373963" lon="13.078935374648141"><ele>176.25</ele><time>2026-04-26T07:26:15.001Z</time></trkpt><trkpt lat="46.24573551626013" lon="13.078821870093742"><ele>177.5</ele><time>2026-04-26T07:26:16.001Z</time></trkpt><trkpt lat="46.24587114768516" lon="13.078725728637101"><ele>178.75</ele><time>2026-04-26T07:26:17.001Z</time></trkpt><trkpt lat="46.24601780249599" lon="13.078648027865041"><ele>180.0</ele><time>2026-04-26T07:26:18.001Z</time></trkpt><trkpt lat="46.24616803601455" lon="13.078601012244896"><ele>180.0</ele><time>2026-04-26T07:26:19.001Z</time></trkpt><trkpt lat="46.24632450272658" lon="13.07857513494861"><ele>180.0</ele><time>2026-04-26T07:26:20.001Z</time></trkpt><trkpt lat="46.24649062266731" lon="13.078582134095727"><ele>180.0</ele><time>2026-04-26T07:26:21.001Z</time></trkpt><trkpt lat="46.24666649051011" lon="13.078613865817037"><ele>179.0</ele><time>2026-04-26T07:26:22.001Z</time></trkpt><trkpt lat="46.246860589273886" lon="13.078668943131802"><ele>178.0</ele><time>2026-04-26T07:26:23.001Z</time></trkpt><trkpt lat="46.24707664541513" lon="13.078720757942515"><ele>177.0</ele><time>2026-04-26T07:26:24.001Z</time></trkpt><trkpt lat="46.2473291656981" lon="13.078778429315085"><ele>176.0</ele><time>2026-04-26T07:26:25.001Z</time></trkpt><trkpt lat="46.24759312951125" lon="13.07884616116225"><ele>175.0</ele><time>2026-04-26T07:26:26.001Z</time></trkpt><trkpt lat="46.247830712707035" lon="13.078901374704534"><ele>175.0</ele><time>2026-04-26T07:26:27.001Z</time></trkpt><trkpt lat="46.24804651874706" lon="13.078955967181216"><ele>175.0</ele><time>2026-04-26T07:26:28.001Z</time></trkpt><trkpt lat="46.2482502087377" lon="13.079008551732782"><ele>175.0</ele><time>2026-04-26T07:26:29.001Z</time></trkpt><trkpt lat="46.24843969557727" lon="13.079053944902592"><ele>175.33333333333334</ele><time>2026-04-26T07:26:30.001Z</time></trkpt><trkpt lat="46.24861542361337" lon="13.079096862809974"><ele>175.66666666666666</ele><time>2026-04-26T07:26:31.001Z</time></trkpt><trkpt lat="46.24877956196811" lon="13.07913934891166"><ele>176.0</ele><time>2026-04-26T07:26:32.001Z</time></trkpt><trkpt lat="46.24893385571291" lon="13.079176217625164"><ele>176.0</ele><time>2026-04-26T07:26:33.001Z</time></trkpt><trkpt lat="46.24908305579464" lon="13.079213082142635"><ele>176.0</ele><time>2026-04-26T07:26:34.001Z</time></trkpt><trkpt lat="46.249224634059175" lon="13.079249680652024"><ele>176.0</ele><time>2026-04-26T07:26:35.001Z</time></trkpt><trkpt lat="46.24936716625012" lon="13.079283738176667"><ele>176.0</ele><time>2026-04-26T07:26:36.001Z</time></trkpt><trkpt lat="46.24951558797343" lon="13.07931901381554"><ele>176.0</ele><time>2026-04-26T07:26:37.001Z</time></trkpt><trkpt lat="46.24967622671836" lon="13.079367914774176"><ele>176.0</ele><time>2026-04-26T07:26:38.001Z</time></trkpt><trkpt lat="46.24984662500908" lon="13.079411500433554"><ele>176.0</ele><time>2026-04-26T07:26:39.001Z</time></trkpt><trkpt lat="46.250015118919656" lon="13.07945413005401"><ele>176.75</ele><time>2026-04-26T07:26:40.001Z</time></trkpt><trkpt lat="46.25016637484774" lon="13.079493156008485"><ele>177.5</ele><time>2026-04-26T07:26:41.001Z</time></trkpt><trkpt lat="46.250308585854135" lon="13.079524112866267"><ele>178.25</ele><time>2026-04-26T07:26:42.001Z</time></trkpt><trkpt lat="46.250442554305934" lon="13.079554105880066"><ele>179.0</ele><time>2026-04-26T07:26:43.001Z</time></trkpt><trkpt lat="46.25057089170842" lon="13.079584778667579"><ele>179.66666666666666</ele><time>2026-04-26T07:26:44.001Z</time></trkpt><trkpt lat="46.25071005889952" lon="13.079619105161568"><ele>180.33333333333334</ele><time>2026-04-26T07:26:45.001Z</time></trkpt><trkpt lat="46.25086286625897" lon="13.079661212689825"><ele>181.0</ele><time>2026-04-26T07:26:46.001Z</time></trkpt><trkpt lat="46.25103190266446" lon="13.07970567026739"><ele>181.0</ele><time>2026-04-26T07:26:47.001Z</time></trkpt><trkpt lat="46.2512049289533" lon="13.079743982433053"><ele>181.0</ele><time>2026-04-26T07:26:48.001Z</time></trkpt><trkpt lat="46.25136115908753" lon="13.079778051004546"><ele>181.0</ele><time>2026-04-26T07:26:49.001Z</time></trkpt><trkpt lat="46.25150601242357" lon="13.0798139015743"><ele>181.0</ele><time>2026-04-26T07:26:50.001Z</time></trkpt><trkpt lat="46.25165231352146" lon="13.07985902721012"><ele>181.0</ele><time>2026-04-26T07:26:51.001Z</time></trkpt><trkpt lat="46.251812546496055" lon="13.079906247274398"><ele>181.0</ele><time>2026-04-26T07:26:52.001Z</time></trkpt><trkpt lat="46.25197458072265" lon="13.079963134419456"><ele>181.0</ele><time>2026-04-26T07:26:53.001Z</time></trkpt><trkpt lat="46.252125145682584" lon="13.080043876417832"><ele>181.0</ele><time>2026-04-26T07:26:54Z</time></trkpt><trkpt lat="46.252289458401414" lon="13.080158076525965"><ele>181.0</ele><time>2026-04-26T07:26:55Z</time></trkpt><trkpt lat="46.252435520758496" lon="13.080265461717438"><ele>181.25</ele><time>2026-04-26T07:26:56Z</time></trkpt><trkpt lat="46.252572529863066" lon="13.080357736637058"><ele>181.5</ele><time>2026-04-26T07:26:57Z</time></trkpt><trkpt lat="46.25269771256179" lon="13.080448533194994"><ele>181.75</ele><time>2026-04-26T07:26:58Z</time></trkpt><trkpt lat="46.25280329516242" lon="13.08053192635342"><ele>182.0</ele><time>2026-04-26T07:26:59Z</time></trkpt><trkpt lat="46.25290596028569" lon="13.080609268468207"><ele>182.0</ele><time>2026-04-26T07:27:00Z</time></trkpt><trkpt lat="46.25300578946302" lon="13.080681604342685"><ele>182.0</ele><time>2026-04-26T07:27:01Z</time></trkpt><trkpt lat="46.2531095308757" lon="13.080754722642302"><ele>182.0</ele><time>2026-04-26T07:27:02Z</time></trkpt><trkpt lat="46.25318110248993" lon="13.080812541280585"><ele>182.0</ele><time>2026-04-26T07:27:03Z</time></trkpt><trkpt lat="46.25328008969249" lon="13.080888924417073"><ele>182.0</ele><time>2026-04-26T07:27:04Z</time></trkpt><trkpt lat="46.253389511971456" lon="13.080974214796573"><ele>182.5</ele><time>2026-04-26T07:27:05Z</time></trkpt><trkpt lat="46.25350585630248" lon="13.081064490593114"><ele>183.0</ele><time>2026-04-26T07:27:06Z</time></trkpt><trkpt lat="46.2536141077201" lon="13.081144376178026"><ele>183.5</ele><time>2026-04-26T07:27:07Z</time></trkpt><trkpt lat="46.253724363506066" lon="13.081228336753295"><ele>184.0</ele><time>2026-04-26T07:27:08Z</time></trkpt><trkpt lat="46.25383955847518" lon="13.081317709132557"><ele>184.0</ele><time>2026-04-26T07:27:09Z</time></trkpt><trkpt lat="46.25394346986975" lon="13.081397607745695"><ele>184.0</ele><time>2026-04-26T07:27:10Z</time></trkpt><trkpt lat="46.25405032194563" lon="13.0814838346527"><ele>184.0</ele><time>2026-04-26T07:27:11Z</time></trkpt><trkpt lat="46.25415638319769" lon="13.08155315721485"><ele>184.0</ele><time>2026-04-26T07:27:12Z</time></trkpt><trkpt lat="46.25426221421395" lon="13.081631120376308"><ele>183.6</ele><time>2026-04-26T07:27:13Z</time></trkpt><trkpt lat="46.25435602004823" lon="13.08170558279456"><ele>183.2</ele><time>2026-04-26T07:27:14Z</time></trkpt><trkpt lat="46.25445710140763" lon="13.081778408984519"><ele>182.79999999999998</ele><time>2026-04-26T07:27:15Z</time></trkpt><trkpt lat="46.25456320720868" lon="13.081860620891355"><ele>182.39999999999998</ele><time>2026-04-26T07:27:16Z</time></trkpt><trkpt lat="46.2546611519207" lon="13.081929859157684"><ele>182.0</ele><time>2026-04-26T07:27:17Z</time></trkpt><trkpt lat="46.25475040570385" lon="13.08200542132144"><ele>182.25</ele><time>2026-04-26T07:27:18Z</time></trkpt><trkpt lat="46.25483385042281" lon="13.082074499140427"><ele>182.5</ele><time>2026-04-26T07:27:19Z</time></trkpt><trkpt lat="46.25492211990652" lon="13.082142680509369"><ele>182.75</ele><time>2026-04-26T07:27:20Z</time></trkpt><trkpt lat="46.25511026314656" lon="13.082278449594968"><ele>183.0</ele><time>2026-04-26T07:27:22Z</time></trkpt><trkpt lat="46.2552061472652" lon="13.082351743737545"><ele>183.2</ele><time>2026-04-26T07:27:23Z</time></trkpt><trkpt lat="46.255309123846466" lon="13.082433436800706"><ele>183.4</ele><time>2026-04-26T07:27:24Z</time></trkpt><trkpt lat="46.255402687585935" lon="13.08250780556598"><ele>183.6</ele><time>2026-04-26T07:27:25Z</time></trkpt><trkpt lat="46.25548278907354" lon="13.082565651881986"><ele>183.79999999999998</ele><time>2026-04-26T07:27:26Z</time></trkpt><trkpt lat="46.2555658333738" lon="13.082633480835781"><ele>184.0</ele><time>2026-04-26T07:27:27Z</time></trkpt><trkpt lat="46.25565927476961" lon="13.082701616258095"><ele>184.0</ele><time>2026-04-26T07:27:28Z</time></trkpt><trkpt lat="46.25576876522976" lon="13.08278172526689"><ele>184.0</ele><time>2026-04-26T07:27:29Z</time></trkpt><trkpt lat="46.25587653916143" lon="13.082883429221708"><ele>184.0</ele><time>2026-04-26T07:27:30Z</time></trkpt><trkpt lat="46.25596159959555" lon="13.082988150247886"><ele>184.0</ele><time>2026-04-26T07:27:31Z</time></trkpt><trkpt lat="46.25603583172447" lon="13.083094679122036"><ele>184.0</ele><time>2026-04-26T07:27:32Z</time></trkpt><trkpt lat="46.25611158528585" lon="13.083215552933664"><ele>184.0</ele><time>2026-04-26T07:27:33Z</time></trkpt><trkpt lat="46.256192792395204" lon="13.083357768032856"><ele>184.0</ele><time>2026-04-26T07:27:34Z</time></trkpt><trkpt lat="46.2562683753167" lon="13.083506701856713"><ele>184.0</ele><time>2026-04-26T07:27:35Z</time></trkpt><trkpt lat="46.256336320860854" lon="13.083634128571305"><ele>184.39999999999998</ele><time>2026-04-26T07:27:36Z</time></trkpt><trkpt lat="46.256393748483944" lon="13.083750868636171"><ele>184.8</ele><time>2026-04-26T07:27:37Z</time></trkpt><trkpt lat="46.256452665814265" lon="13.083871357643725"><ele>185.2</ele><time>2026-04-26T07:27:38Z</time></trkpt><trkpt lat="46.25650796329968" lon="13.08398459783308"><ele>185.60000000000002</ele><time>2026-04-26T07:27:39Z</time></trkpt><trkpt lat="46.25657070961042" lon="13.08410113126035"><ele>186.0</ele><time>2026-04-26T07:27:40Z</time></trkpt><trkpt lat="46.25664514769116" lon="13.08424057289246"><ele>186.0</ele><time>2026-04-26T07:27:41Z</time></trkpt><trkpt lat="46.25672147925229" lon="13.08438402332401"><ele>186.0</ele><time>2026-04-26T07:27:42Z</time></trkpt><trkpt lat="46.25678296814326" lon="13.08451067412603"><ele>186.0</ele><time>2026-04-26T07:27:43Z</time></trkpt><trkpt lat="46.25684040949865" lon="13.084630366840182"><ele>186.0</ele><time>2026-04-26T07:27:44Z</time></trkpt><trkpt lat="46.25689820440209" lon="13.08474294113252"><ele>186.0</ele><time>2026-04-26T07:27:45Z</time></trkpt><trkpt lat="46.25695206780384" lon="13.084842973314428"><ele>185.83333333333334</ele><time>2026-04-26T07:27:46Z</time></trkpt><trkpt lat="46.25699842539022" lon="13.084938860161628"><ele>185.66666666666666</ele><time>2026-04-26T07:27:47Z</time></trkpt><trkpt lat="46.257036928375925" lon="13.085028790798114"><ele>185.5</ele><time>2026-04-26T07:27:48Z</time></trkpt><trkpt lat="46.25707904875944" lon="13.085104095914371"><ele>185.33333333333331</ele><time>2026-04-26T07:27:49Z</time></trkpt><trkpt lat="46.257123544161004" lon="13.085177517955042"><ele>185.16666666666666</ele><time>2026-04-26T07:27:50Z</time></trkpt><trkpt lat="46.25719166440968" lon="13.085308061868703"><ele>185.0</ele><time>2026-04-26T07:27:52Z</time></trkpt><trkpt lat="46.25725868037636" lon="13.085392174668836"><ele>184.8</ele><time>2026-04-26T07:27:54Z</time></trkpt><trkpt lat="46.257303198749796" lon="13.085475101752392"><ele>184.6</ele><time>2026-04-26T07:27:55.001Z</time></trkpt><trkpt lat="46.257341148151454" lon="13.085574649293969"><ele>184.39999999999998</ele><time>2026-04-26T07:27:56.001Z</time></trkpt><trkpt lat="46.25744093716065" lon="13.085667468827314"><ele>184.2</ele><time>2026-04-26T07:27:58.001Z</time></trkpt><trkpt lat="46.257564514181325" lon="13.085664586821409"><ele>184.0</ele><time>2026-04-26T07:28:00.001Z</time></trkpt><trkpt lat="46.25769278790729" lon="13.085692168226396"><ele>184.39999999999998</ele><time>2026-04-26T07:28:02.001Z</time></trkpt><trkpt lat="46.25775017955609" lon="13.085790168990604"><ele>184.8</ele><time>2026-04-26T07:28:03.001Z</time></trkpt><trkpt lat="46.25782844036446" lon="13.08587180523398"><ele>185.2</ele><time>2026-04-26T07:28:04.001Z</time></trkpt><trkpt lat="46.25792095823426" lon="13.085940989066751"><ele>185.60000000000002</ele><time>2026-04-26T07:28:05.001Z</time></trkpt><trkpt lat="46.257991957969075" lon="13.08603107134741"><ele>186.0</ele><time>2026-04-26T07:28:06.001Z</time></trkpt><trkpt lat="46.25806192989207" lon="13.086114566216153"><ele>186.0</ele><time>2026-04-26T07:28:07.001Z</time></trkpt><trkpt lat="46.2581436850845" lon="13.086207234882368"><ele>186.0</ele><time>2026-04-26T07:28:08.001Z</time></trkpt><trkpt lat="46.258225688815195" lon="13.086299937978552"><ele>186.0</ele><time>2026-04-26T07:28:09.001Z</time></trkpt><trkpt lat="46.25830405120337" lon="13.08639049146051"><ele>186.0</ele><time>2026-04-26T07:28:10.001Z</time></trkpt><trkpt lat="46.25838241089554" lon="13.0864929203494"><ele>186.0</ele><time>2026-04-26T07:28:11.001Z</time></trkpt><trkpt lat="46.25847159939472" lon="13.08660007869769"><ele>186.25</ele><time>2026-04-26T07:28:12Z</time></trkpt><trkpt lat="46.25856358861908" lon="13.08670592595307"><ele>186.5</ele><time>2026-04-26T07:28:13Z</time></trkpt><trkpt lat="46.258651690305776" lon="13.086808619985103"><ele>186.75</ele><time>2026-04-26T07:28:14Z</time></trkpt><trkpt lat="46.25873393145439" lon="13.08690347391345"><ele>187.0</ele><time>2026-04-26T07:28:15Z</time></trkpt><trkpt lat="46.25882593741437" lon="13.087007181286165"><ele>187.0</ele><time>2026-04-26T07:28:16Z</time></trkpt><trkpt lat="46.258920772755495" lon="13.087117688772608"><ele>187.0</ele><time>2026-04-26T07:28:17Z</time></trkpt><trkpt lat="46.259004225789525" lon="13.08722158866928"><ele>187.0</ele><time>2026-04-26T07:28:18Z</time></trkpt><trkpt lat="46.25908196907245" lon="13.0873037547324"><ele>187.0</ele><time>2026-04-26T07:28:19Z</time></trkpt><trkpt lat="46.25915756092298" lon="13.087371029226702"><ele>187.0</ele><time>2026-04-26T07:28:20Z</time></trkpt><trkpt lat="46.25923318345894" lon="13.087434303213001"><ele>186.8</ele><time>2026-04-26T07:28:21Z</time></trkpt><trkpt lat="46.25929979055889" lon="13.087499002133722"><ele>186.6</ele><time>2026-04-26T07:28:22Z</time></trkpt><trkpt lat="46.25935805883886" lon="13.087556375278893"><ele>186.4</ele><time>2026-04-26T07:28:23Z</time></trkpt><trkpt lat="46.25942668440598" lon="13.087610353471415"><ele>186.20000000000002</ele><time>2026-04-26T07:28:24Z</time></trkpt><trkpt lat="46.259526591932826" lon="13.087666765852061"><ele>186.0</ele><time>2026-04-26T07:28:25Z</time></trkpt><trkpt lat="46.25967230854104" lon="13.0877278085855"><ele>186.33333333333334</ele><time>2026-04-26T07:28:26Z</time></trkpt><trkpt lat="46.259854417434845" lon="13.087800650927598"><ele>186.66666666666669</ele><time>2026-04-26T07:28:27Z</time></trkpt><trkpt lat="46.26005797074198" lon="13.087868571960467"><ele>187.0</ele><time>2026-04-26T07:28:28Z</time></trkpt><trkpt lat="46.260266882450935" lon="13.087934111171748"><ele>187.0</ele><time>2026-04-26T07:28:29Z</time></trkpt><trkpt lat="46.260482555093745" lon="13.088005488031222"><ele>187.0</ele><time>2026-04-26T07:28:30Z</time></trkpt><trkpt lat="46.26070941787538" lon="13.088076004575285"><ele>188.0</ele><time>2026-04-26T07:28:31Z</time></trkpt><trkpt lat="46.26094256951662" lon="13.088144851881205"><ele>189.0</ele><time>2026-04-26T07:28:32Z</time></trkpt><trkpt lat="46.261172344249" lon="13.088214289597326"><ele>188.66666666666666</ele><time>2026-04-26T07:28:33Z</time></trkpt><trkpt lat="46.26138466433569" lon="13.088277834253079"><ele>188.33333333333331</ele><time>2026-04-26T07:28:34Z</time></trkpt><trkpt lat="46.26158716871354" lon="13.088342390779381"><ele>188.0</ele><time>2026-04-26T07:28:35Z</time></trkpt><trkpt lat="46.26177874347715" lon="13.088401269958224"><ele>188.0</ele><time>2026-04-26T07:28:36Z</time></trkpt><trkpt lat="46.26195823048809" lon="13.088454665064937"><ele>188.0</ele><time>2026-04-26T07:28:37Z</time></trkpt><trkpt lat="46.26214422952457" lon="13.088514056968481"><ele>188.0</ele><time>2026-04-26T07:28:38Z</time></trkpt><trkpt lat="46.26234379995134" lon="13.088578110150475"><ele>188.66666666666666</ele><time>2026-04-26T07:28:39Z</time></trkpt><trkpt lat="46.2625532428689" lon="13.088643799690848"><ele>189.33333333333334</ele><time>2026-04-26T07:28:40Z</time></trkpt><trkpt lat="46.26276769990931" lon="13.08871062373028"><ele>190.0</ele><time>2026-04-26T07:28:41Z</time></trkpt><trkpt lat="46.262986271540086" lon="13.088779317808191"><ele>189.0</ele><time>2026-04-26T07:28:42Z</time></trkpt><trkpt lat="46.26320675041433" lon="13.088842314476423"><ele>188.0</ele><time>2026-04-26T07:28:43Z</time></trkpt><trkpt lat="46.26340690085901" lon="13.088901198511737"><ele>187.0</ele><time>2026-04-26T07:28:44Z</time></trkpt><trkpt lat="46.263595126960105" lon="13.088953493363217"><ele>187.0</ele><time>2026-04-26T07:28:45Z</time></trkpt><trkpt lat="46.2637707423328" lon="13.08901228807192"><ele>187.0</ele><time>2026-04-26T07:28:46Z</time></trkpt><trkpt lat="46.26394629441552" lon="13.089077222469351"><ele>187.0</ele><time>2026-04-26T07:28:47Z</time></trkpt><trkpt lat="46.26414374592354" lon="13.089133798229218"><ele>186.33333333333334</ele><time>2026-04-26T07:28:48Z</time></trkpt><trkpt lat="46.26434097647166" lon="13.089193813852955"><ele>185.66666666666666</ele><time>2026-04-26T07:28:49Z</time></trkpt><trkpt lat="46.26453163748007" lon="13.08924921422662"><ele>185.0</ele><time>2026-04-26T07:28:50Z</time></trkpt><trkpt lat="46.26472238336818" lon="13.089302863633444"><ele>185.33333333333331</ele><time>2026-04-26T07:28:51Z</time></trkpt><trkpt lat="46.26491592495062" lon="13.089362748651"><ele>185.66666666666666</ele><time>2026-04-26T07:28:52Z</time></trkpt><trkpt lat="46.265122504550064" lon="13.08942250450477"><ele>186.0</ele><time>2026-04-26T07:28:53Z</time></trkpt><trkpt lat="46.26533296542794" lon="13.089488256518553"><ele>186.0</ele><time>2026-04-26T07:28:54Z</time></trkpt><trkpt lat="46.26554962297945" lon="13.089559310005704"><ele>186.0</ele><time>2026-04-26T07:28:55Z</time></trkpt><trkpt lat="46.265748058854086" lon="13.08962231587599"><ele>186.0</ele><time>2026-04-26T07:28:56Z</time></trkpt><trkpt lat="46.2659243633914" lon="13.089677250350165"><ele>185.66666666666666</ele><time>2026-04-26T07:28:57Z</time></trkpt><trkpt lat="46.26608322428117" lon="13.089736036565846"><ele>185.33333333333331</ele><time>2026-04-26T07:28:58Z</time></trkpt><trkpt lat="46.26624073305457" lon="13.089810696476523"><ele>185.0</ele><time>2026-04-26T07:28:59Z</time></trkpt><trkpt lat="46.26639512086366" lon="13.08991966891122"><ele>186.66666666666666</ele><time>2026-04-26T07:29:00Z</time></trkpt><trkpt lat="46.266560297671184" lon="13.090063172905243"><ele>188.33333333333334</ele><time>2026-04-26T07:29:01Z</time></trkpt><trkpt lat="46.26673073929521" lon="13.090217249122537"><ele>190.0</ele><time>2026-04-26T07:29:02Z</time></trkpt><trkpt lat="46.26688962738475" lon="13.090379311763458"><ele>190.0</ele><time>2026-04-26T07:29:03Z</time></trkpt><trkpt lat="46.26703220988995" lon="13.09054030188533"><ele>190.0</ele><time>2026-04-26T07:29:04Z</time></trkpt><trkpt lat="46.26719680745898" lon="13.090726113423786"><ele>190.0</ele><time>2026-04-26T07:29:05Z</time></trkpt><trkpt lat="46.267341721882985" lon="13.090919035711064"><ele>189.5</ele><time>2026-04-26T07:29:06Z</time></trkpt><trkpt lat="46.267522707164915" lon="13.09114083034266"><ele>189.0</ele><time>2026-04-26T07:29:07Z</time></trkpt><trkpt lat="46.26772163666544" lon="13.0913779850198"><ele>188.66666666666666</ele><time>2026-04-26T07:29:08Z</time></trkpt><trkpt lat="46.26789821452376" lon="13.091598474714226"><ele>188.33333333333331</ele><time>2026-04-26T07:29:09Z</time></trkpt><trkpt lat="46.268051201481825" lon="13.091784908248501"><ele>188.0</ele><time>2026-04-26T07:29:10Z</time></trkpt><trkpt lat="46.268190921307735" lon="13.091959330956568"><ele>188.0</ele><time>2026-04-26T07:29:11Z</time></trkpt><trkpt lat="46.26832351322853" lon="13.092123958935074"><ele>188.0</ele><time>2026-04-26T07:29:12Z</time></trkpt><trkpt lat="46.268464365419625" lon="13.092294234529668"><ele>188.0</ele><time>2026-04-26T07:29:13Z</time></trkpt><trkpt lat="46.26861324949673" lon="13.092477714424904"><ele>188.33333333333331</ele><time>2026-04-26T07:29:14Z</time></trkpt><trkpt lat="46.26877067929354" lon="13.092672130980503"><ele>188.66666666666666</ele><time>2026-04-26T07:29:15Z</time></trkpt><trkpt lat="46.268928013637364" lon="13.09285518318695"><ele>189.0</ele><time>2026-04-26T07:29:16Z</time></trkpt><trkpt lat="46.269066744162075" lon="13.093020973044105"><ele>189.0</ele><time>2026-04-26T07:29:17Z</time></trkpt><trkpt lat="46.269193152234486" lon="13.093182162744437"><ele>189.0</ele><time>2026-04-26T07:29:18Z</time></trkpt><trkpt lat="46.26931030666878" lon="13.093325480605083"><ele>189.0</ele><time>2026-04-26T07:29:19Z</time></trkpt><trkpt lat="46.269429381850564" lon="13.093464011123125"><ele>189.0</ele><time>2026-04-26T07:29:20Z</time></trkpt><trkpt lat="46.26956223113694" lon="13.09362528550971"><ele>189.0</ele><time>2026-04-26T07:29:21Z</time></trkpt><trkpt lat="46.26970800096508" lon="13.093807702230368"><ele>189.0</ele><time>2026-04-26T07:29:22Z</time></trkpt><trkpt lat="46.26984856375344" lon="13.09396479478783"><ele>189.33333333333334</ele><time>2026-04-26T07:29:23Z</time></trkpt><trkpt lat="46.269978340016486" lon="13.094095739395291"><ele>189.66666666666669</ele><time>2026-04-26T07:29:24Z</time></trkpt><trkpt lat="46.27011632235438" lon="13.094235220489425"><ele>190.0</ele><time>2026-04-26T07:29:25Z</time></trkpt><trkpt lat="46.27026512522003" lon="13.094388326171089"><ele>190.0</ele><time>2026-04-26T07:29:26Z</time></trkpt><trkpt lat="46.270418027986466" lon="13.094555237949464"><ele>190.0</ele><time>2026-04-26T07:29:27Z</time></trkpt><trkpt lat="46.27057391944369" lon="13.094728868942052"><ele>190.0</ele><time>2026-04-26T07:29:28Z</time></trkpt><trkpt lat="46.27073897251483" lon="13.094904119134835"><ele>190.66666666666669</ele><time>2026-04-26T07:29:29Z</time></trkpt><trkpt lat="46.27090801046659" lon="13.095077696512218"><ele>191.33333333333334</ele><time>2026-04-26T07:29:30Z</time></trkpt><trkpt lat="46.27106804539931" lon="13.09524951612978"><ele>192.0</ele><time>2026-04-26T07:29:31Z</time></trkpt><trkpt lat="46.27121674633281" lon="13.095403648321467"><ele>192.0</ele><time>2026-04-26T07:29:32Z</time></trkpt><trkpt lat="46.271381429151525" lon="13.095572654494724"><ele>192.0</ele><time>2026-04-26T07:29:33Z</time></trkpt><trkpt lat="46.271555354038455" lon="13.095760943048978"><ele>192.0</ele><time>2026-04-26T07:29:34Z</time></trkpt><trkpt lat="46.271735097964395" lon="13.09595495270709"><ele>192.5</ele><time>2026-04-26T07:29:35Z</time></trkpt><trkpt lat="46.2719302153023" lon="13.096162669517689"><ele>193.0</ele><time>2026-04-26T07:29:36Z</time></trkpt><trkpt lat="46.27216137127246" lon="13.096407735886531"><ele>192.0</ele><time>2026-04-26T07:29:37Z</time></trkpt><trkpt lat="46.27237376399766" lon="13.096627923036845"><ele>191.0</ele><time>2026-04-26T07:29:38Z</time></trkpt><trkpt lat="46.27255431798411" lon="13.09681731598627"><ele>191.0</ele><time>2026-04-26T07:29:39Z</time></trkpt><trkpt lat="46.272711586129205" lon="13.096991944432853"><ele>191.0</ele><time>2026-04-26T07:29:40Z</time></trkpt><trkpt lat="46.272859710777226" lon="13.097152864120105"><ele>191.0</ele><time>2026-04-26T07:29:41Z</time></trkpt><trkpt lat="46.27299682007734" lon="13.097298416263646"><ele>191.33333333333331</ele><time>2026-04-26T07:29:42Z</time></trkpt><trkpt lat="46.27312283306241" lon="13.09743524206256"><ele>191.66666666666666</ele><time>2026-04-26T07:29:43Z</time></trkpt><trkpt lat="46.273251348978086" lon="13.097572032208014"><ele>192.0</ele><time>2026-04-26T07:29:44Z</time></trkpt><trkpt lat="46.273382011082965" lon="13.097712994930527"><ele>192.0</ele><time>2026-04-26T07:29:45Z</time></trkpt><trkpt lat="46.27350953925977" lon="13.097847724286401"><ele>192.0</ele><time>2026-04-26T07:29:46Z</time></trkpt><trkpt lat="46.27362884147491" lon="13.09797452871301"><ele>192.0</ele><time>2026-04-26T07:29:47Z</time></trkpt><trkpt lat="46.273746315503864" lon="13.098100427903502"><ele>192.0</ele><time>2026-04-26T07:29:48Z</time></trkpt><trkpt lat="46.27386583949944" lon="13.09822989029558"><ele>192.0</ele><time>2026-04-26T07:29:49Z</time></trkpt><trkpt lat="46.27399335455597" lon="13.098368128530952"><ele>192.0</ele><time>2026-04-26T07:29:50Z</time></trkpt><trkpt lat="46.274129748106354" lon="13.098512755610308"><ele>192.0</ele><time>2026-04-26T07:29:51Z</time></trkpt><trkpt lat="46.27427221328105" lon="13.098660863409279"><ele>192.0</ele><time>2026-04-26T07:29:52Z</time></trkpt><trkpt lat="46.27441450657177" lon="13.098813328352717"><ele>192.0</ele><time>2026-04-26T07:29:53Z</time></trkpt><trkpt lat="46.27455235371171" lon="13.098962704557872"><ele>192.0</ele><time>2026-04-26T07:29:54Z</time></trkpt><trkpt lat="46.274686307629835" lon="13.099106127413481"><ele>192.0</ele><time>2026-04-26T07:29:55Z</time></trkpt><trkpt lat="46.274826374075836" lon="13.099254223007405"><ele>192.0</ele><time>2026-04-26T07:29:56Z</time></trkpt><trkpt lat="46.274950405042965" lon="13.099389647859477"><ele>192.25</ele><time>2026-04-26T07:29:57Z</time></trkpt><trkpt lat="46.275062275576786" lon="13.099509403553805"><ele>192.5</ele><time>2026-04-26T07:29:58Z</time></trkpt><trkpt lat="46.27517315181347" lon="13.099621138507016"><ele>192.75</ele><time>2026-04-26T07:29:59Z</time></trkpt><trkpt lat="46.275282888472695" lon="13.099736024501174"><ele>193.0</ele><time>2026-04-26T07:30:00Z</time></trkpt><trkpt lat="46.275406655837266" lon="13.099865281840119"><ele>193.0</ele><time>2026-04-26T07:30:01Z</time></trkpt><trkpt lat="46.27554071732773" lon="13.099993189409908"><ele>193.0</ele><time>2026-04-26T07:30:02Z</time></trkpt><trkpt lat="46.27566769800038" lon="13.100098273356682"><ele>193.0</ele><time>2026-04-26T07:30:03Z</time></trkpt><trkpt lat="46.275805894920985" lon="13.100189103594156"><ele>193.66666666666666</ele><time>2026-04-26T07:30:04Z</time></trkpt><trkpt lat="46.27594781660145" lon="13.100269786333588"><ele>194.33333333333331</ele><time>2026-04-26T07:30:05Z</time></trkpt><trkpt lat="46.276087432716345" lon="13.10033833882311"><ele>195.0</ele><time>2026-04-26T07:30:06Z</time></trkpt><trkpt lat="46.27625472275462" lon="13.100413491543037"><ele>195.0</ele><time>2026-04-26T07:30:07Z</time></trkpt><trkpt lat="46.27643244525456" lon="13.100460480150659"><ele>195.0</ele><time>2026-04-26T07:30:08Z</time></trkpt><trkpt lat="46.27659794229298" lon="13.100485849162947"><ele>195.0</ele><time>2026-04-26T07:30:09Z</time></trkpt><trkpt lat="46.27675076729648" lon="13.100503521901654"><ele>195.66666666666669</ele><time>2026-04-26T07:30:10Z</time></trkpt><trkpt lat="46.27689937813966" lon="13.100521884684314"><ele>196.33333333333334</ele><time>2026-04-26T07:30:11Z</time></trkpt><trkpt lat="46.277059348977154" lon="13.100518839937179"><ele>197.0</ele><time>2026-04-26T07:30:12Z</time></trkpt><trkpt lat="46.27721932918976" lon="13.100503052360757"><ele>196.75</ele><time>2026-04-26T07:30:13Z</time></trkpt><trkpt lat="46.27735946465816" lon="13.100477304566192"><ele>196.5</ele><time>2026-04-26T07:30:14Z</time></trkpt><trkpt lat="46.277486773031406" lon="13.100439527088435"><ele>196.25</ele><time>2026-04-26T07:30:15Z</time></trkpt><trkpt lat="46.277613700001304" lon="13.100394304509447"><ele>196.0</ele><time>2026-04-26T07:30:16Z</time></trkpt><trkpt lat="46.27775740014341" lon="13.10033292301481"><ele>196.0</ele><time>2026-04-26T07:30:17Z</time></trkpt><trkpt lat="46.277905866640936" lon="13.100255702591332"><ele>196.0</ele><time>2026-04-26T07:30:18Z</time></trkpt><trkpt lat="46.278044712356206" lon="13.10017362764745"><ele>196.0</ele><time>2026-04-26T07:30:19Z</time></trkpt><trkpt lat="46.27818380535241" lon="13.100077990294663"><ele>196.0</ele><time>2026-04-26T07:30:20Z</time></trkpt><trkpt lat="46.278325803802545" lon="13.099970267970711"><ele>196.0</ele><time>2026-04-26T07:30:21Z</time></trkpt><trkpt lat="46.278471720313625" lon="13.099838441417422"><ele>196.0</ele><time>2026-04-26T07:30:22Z</time></trkpt><trkpt lat="46.27863347953957" lon="13.099671590841899"><ele>196.0</ele><time>2026-04-26T07:30:23Z</time></trkpt><trkpt lat="46.278805168691655" lon="13.099461395307827"><ele>196.0</ele><time>2026-04-26T07:30:24Z</time></trkpt><trkpt lat="46.27897513744563" lon="13.099218886787684"><ele>196.0</ele><time>2026-04-26T07:30:25Z</time></trkpt><trkpt lat="46.279143088639266" lon="13.098961318944491"><ele>196.0</ele><time>2026-04-26T07:30:26Z</time></trkpt><trkpt lat="46.279305127875936" lon="13.098704969822366"><ele>196.0</ele><time>2026-04-26T07:30:27Z</time></trkpt><trkpt lat="46.27948158276148" lon="13.098427246718376"><ele>196.0</ele><time>2026-04-26T07:30:28Z</time></trkpt><trkpt lat="46.27966205491921" lon="13.098151706997225"><ele>197.0</ele><time>2026-04-26T07:30:29Z</time></trkpt><trkpt lat="46.27981819191542" lon="13.097911952849646"><ele>198.0</ele><time>2026-04-26T07:30:30Z</time></trkpt><trkpt lat="46.279963081419616" lon="13.097694567601751"><ele>199.0</ele><time>2026-04-26T07:30:31Z</time></trkpt><trkpt lat="46.28009461948482" lon="13.097493290952064"><ele>198.66666666666666</ele><time>2026-04-26T07:30:32Z</time></trkpt><trkpt lat="46.28021122434828" lon="13.097314928715795"><ele>198.33333333333331</ele><time>2026-04-26T07:30:33Z</time></trkpt><trkpt lat="46.280318572705106" lon="13.097149086435822"><ele>198.0</ele><time>2026-04-26T07:30:34Z</time></trkpt><trkpt lat="46.28041935337245" lon="13.09699504252445"><ele>198.0</ele><time>2026-04-26T07:30:35Z</time></trkpt><trkpt lat="46.28052734393328" lon="13.0968282021565"><ele>198.0</ele><time>2026-04-26T07:30:36Z</time></trkpt><trkpt lat="46.28061652122812" lon="13.096683858189971"><ele>198.0</ele><time>2026-04-26T07:30:37Z</time></trkpt><trkpt lat="46.28069773674447" lon="13.096558074249195"><ele>198.0</ele><time>2026-04-26T07:30:38Z</time></trkpt><trkpt lat="46.28077219525085" lon="13.096442225886378"><ele>198.5</ele><time>2026-04-26T07:30:39Z</time></trkpt><trkpt lat="46.28083810593042" lon="13.096338397940968"><ele>199.0</ele><time>2026-04-26T07:30:40Z</time></trkpt><trkpt lat="46.2809052081175" lon="13.096261642255428"><ele>199.5</ele><time>2026-04-26T07:30:41Z</time></trkpt><trkpt lat="46.28097406253516" lon="13.096201513512128"><ele>200.0</ele><time>2026-04-26T07:30:42Z</time></trkpt><trkpt lat="46.28105275693353" lon="13.096142474754956"><ele>200.5</ele><time>2026-04-26T07:30:43Z</time></trkpt><trkpt lat="46.281124944422274" lon="13.096104708014776"><ele>201.0</ele><time>2026-04-26T07:30:44Z</time></trkpt><trkpt lat="46.28118973875764" lon="13.096075339988047"><ele>201.0</ele><time>2026-04-26T07:30:45Z</time></trkpt><trkpt lat="46.28127844200681" lon="13.096017856650143"><ele>201.0</ele><time>2026-04-26T07:30:47Z</time></trkpt><trkpt lat="46.281331143284035" lon="13.095830722958278"><ele>201.0</ele><time>2026-04-26T07:30:50Z</time></trkpt><trkpt lat="46.28133942413677" lon="13.095718869848366"><ele>201.0</ele><time>2026-04-26T07:30:51Z</time></trkpt><trkpt lat="46.28135977678421" lon="13.095621001943583"><ele>201.0</ele><time>2026-04-26T07:30:52Z</time></trkpt><trkpt lat="46.28138749697949" lon="13.09553555451849"><ele>200.4</ele><time>2026-04-26T07:30:53Z</time></trkpt><trkpt lat="46.281424957081526" lon="13.095440960053182"><ele>199.8</ele><time>2026-04-26T07:30:54Z</time></trkpt><trkpt lat="46.28148311678495" lon="13.095348926104563"><ele>199.20000000000002</ele><time>2026-04-26T07:30:55Z</time></trkpt><trkpt lat="46.28155366854158" lon="13.095248958070625"><ele>198.60000000000002</ele><time>2026-04-26T07:30:56Z</time></trkpt><trkpt lat="46.28162727855877" lon="13.095134563587713"><ele>198.0</ele><time>2026-04-26T07:30:57Z</time></trkpt><trkpt lat="46.2816932766186" lon="13.095024963468092"><ele>198.0</ele><time>2026-04-26T07:30:58Z</time></trkpt><trkpt lat="46.28175556418223" lon="13.094943496614526"><ele>198.0</ele><time>2026-04-26T07:30:59Z</time></trkpt><trkpt lat="46.281813748331544" lon="13.0948559719099"><ele>198.0</ele><time>2026-04-26T07:31:00Z</time></trkpt><trkpt lat="46.28186790084991" lon="13.094770763125396"><ele>198.0</ele><time>2026-04-26T07:31:01Z</time></trkpt><trkpt lat="46.28192297752006" lon="13.094687608780172"><ele>198.0</ele><time>2026-04-26T07:31:02Z</time></trkpt><trkpt lat="46.2819855267777" lon="13.094589911153582"><ele>198.0</ele><time>2026-04-26T07:31:03Z</time></trkpt><trkpt lat="46.282057514680474" lon="13.094474377946355"><ele>198.0</ele><time>2026-04-26T07:31:04Z</time></trkpt><trkpt lat="46.28213472369184" lon="13.094353011871677"><ele>198.0</ele><time>2026-04-26T07:31:05Z</time></trkpt><trkpt lat="46.28220830463733" lon="13.094234469695762"><ele>198.0</ele><time>2026-04-26T07:31:06Z</time></trkpt><trkpt lat="46.28228221639486" lon="13.094119724200603"><ele>198.0</ele><time>2026-04-26T07:31:07Z</time></trkpt><trkpt lat="46.28235749933706" lon="13.094001204340225"><ele>198.0</ele><time>2026-04-26T07:31:08Z</time></trkpt><trkpt lat="46.28243499930838" lon="13.09388333391028"><ele>197.5</ele><time>2026-04-26T07:31:09Z</time></trkpt><trkpt lat="46.28251878707464" lon="13.09375654200514"><ele>197.0</ele><time>2026-04-26T07:31:10Z</time></trkpt><trkpt lat="46.282602151769794" lon="13.093620824795767"><ele>196.5</ele><time>2026-04-26T07:31:11Z</time></trkpt><trkpt lat="46.2826842828974" lon="13.093497727179258"><ele>196.0</ele><time>2026-04-26T07:31:12Z</time></trkpt><trkpt lat="46.28276603452147" lon="13.093372089828044"><ele>196.0</ele><time>2026-04-26T07:31:13Z</time></trkpt><trkpt lat="46.282851632918934" lon="13.09323733023637"><ele>196.0</ele><time>2026-04-26T07:31:14Z</time></trkpt><trkpt lat="46.282939438835385" lon="13.093098751284222"><ele>196.0</ele><time>2026-04-26T07:31:15Z</time></trkpt><trkpt lat="46.28303255727338" lon="13.092952691177098"><ele>196.0</ele><time>2026-04-26T07:31:16Z</time></trkpt><trkpt lat="46.28312331090457" lon="13.092815814976486"><ele>196.5</ele><time>2026-04-26T07:31:17Z</time></trkpt><trkpt lat="46.28320766256577" lon="13.092682376931572"><ele>197.0</ele><time>2026-04-26T07:31:18Z</time></trkpt><trkpt lat="46.28328761974447" lon="13.0925637133414"><ele>197.5</ele><time>2026-04-26T07:31:19Z</time></trkpt><trkpt lat="46.283362219906266" lon="13.092445396759567"><ele>198.0</ele><time>2026-04-26T07:31:20Z</time></trkpt><trkpt lat="46.28342929625315" lon="13.092338453488434"><ele>198.33333333333334</ele><time>2026-04-26T07:31:21Z</time></trkpt><trkpt lat="46.283490070904" lon="13.092244640318098"><ele>198.66666666666669</ele><time>2026-04-26T07:31:22Z</time></trkpt><trkpt lat="46.283544154660085" lon="13.092158377899056"><ele>199.0</ele><time>2026-04-26T07:31:23Z</time></trkpt><trkpt lat="46.28362346782949" lon="13.092041203151753"><ele>199.33333333333334</ele><time>2026-04-26T07:31:25Z</time></trkpt><trkpt lat="46.28368288178079" lon="13.091948108268394"><ele>199.66666666666669</ele><time>2026-04-26T07:31:26Z</time></trkpt><trkpt lat="46.28374642161969" lon="13.091898467465533"><ele>200.0</ele><time>2026-04-26T07:31:28Z</time></trkpt><trkpt lat="46.283834693687275" lon="13.091836743785416"><ele>200.0</ele><time>2026-04-26T07:31:30Z</time></trkpt><trkpt lat="46.28389250505443" lon="13.091695202798546"><ele>200.0</ele><time>2026-04-26T07:31:32Z</time></trkpt><trkpt lat="46.28388767686672" lon="13.091531572202516"><ele>200.0</ele><time>2026-04-26T07:31:34Z</time></trkpt><trkpt lat="46.283801026101536" lon="13.091412929619032"><ele>200.0</ele><time>2026-04-26T07:31:36Z</time></trkpt><trkpt lat="46.28371794575169" lon="13.091368296641127"><ele>200.0</ele><time>2026-04-26T07:31:37Z</time></trkpt><trkpt lat="46.28361955397054" lon="13.091368388837568"><ele>199.8</ele><time>2026-04-26T07:31:38Z</time></trkpt><trkpt lat="46.28354195938597" lon="13.091350004835608"><ele>199.6</ele><time>2026-04-26T07:31:39Z</time></trkpt><trkpt lat="46.28342494251879" lon="13.09122372358334"><ele>199.39999999999998</ele><time>2026-04-26T07:31:41Z</time></trkpt><trkpt lat="46.28336726247295" lon="13.09114287704696"><ele>199.2</ele><time>2026-04-26T07:31:42Z</time></trkpt><trkpt lat="46.283291923762164" lon="13.09103977298727"><ele>199.0</ele><time>2026-04-26T07:31:43Z</time></trkpt><trkpt lat="46.28322678358745" lon="13.09094321658074"><ele>198.99999999999997</ele><time>2026-04-26T07:31:44Z</time></trkpt><trkpt lat="46.28316892486296" lon="13.090857583794929"><ele>199.0</ele><time>2026-04-26T07:31:45Z</time></trkpt><trkpt lat="46.283126614037975" lon="13.090763648549908"><ele>199.0</ele><time>2026-04-26T07:31:46Z</time></trkpt><trkpt lat="46.28308170928416" lon="13.090669950359526"><ele>199.0</ele><time>2026-04-26T07:31:47Z</time></trkpt><trkpt lat="46.283032946568625" lon="13.090575227608431"><ele>198.99999999999997</ele><time>2026-04-26T07:31:48Z</time></trkpt><trkpt lat="46.28299469339867" lon="13.090471281681504"><ele>199.0</ele><time>2026-04-26T07:31:49Z</time></trkpt><trkpt lat="46.282952886490854" lon="13.090366896878386"><ele>198.79999999999998</ele><time>2026-04-26T07:31:50Z</time></trkpt><trkpt lat="46.282914467482485" lon="13.090262130709704"><ele>198.6</ele><time>2026-04-26T07:31:51Z</time></trkpt><trkpt lat="46.28287697462255" lon="13.090166288809865"><ele>198.4</ele><time>2026-04-26T07:31:52Z</time></trkpt><trkpt lat="46.28285003809741" lon="13.090082128082347"><ele>198.2</ele><time>2026-04-26T07:31:53Z</time></trkpt><trkpt lat="46.28280313915136" lon="13.089924097235302"><ele>198.0</ele><time>2026-04-26T07:31:55Z</time></trkpt><trkpt lat="46.28274094038748" lon="13.089791457932359"><ele>198.33333333333334</ele><time>2026-04-26T07:31:57Z</time></trkpt><trkpt lat="46.28271112214387" lon="13.089698126592014"><ele>198.66666666666669</ele><time>2026-04-26T07:31:58Z</time></trkpt><trkpt lat="46.28268228008368" lon="13.08958911839576"><ele>199.0</ele><time>2026-04-26T07:31:59Z</time></trkpt><trkpt lat="46.28264521931336" lon="13.089471413546036"><ele>199.33333333333334</ele><time>2026-04-26T07:32:00Z</time></trkpt><trkpt lat="46.282612588396134" lon="13.089365109575807"><ele>199.66666666666669</ele><time>2026-04-26T07:32:01Z</time></trkpt><trkpt lat="46.28258302993682" lon="13.089262937082296"><ele>200.0</ele><time>2026-04-26T07:32:02Z</time></trkpt><trkpt lat="46.28255612823926" lon="13.089173180165526"><ele>199.2</ele><time>2026-04-26T07:32:03Z</time></trkpt><trkpt lat="46.282506454747214" lon="13.08900671254522"><ele>198.4</ele><time>2026-04-26T07:32:05Z</time></trkpt><trkpt lat="46.28247914919919" lon="13.088910916025403"><ele>197.60000000000002</ele><time>2026-04-26T07:32:06Z</time></trkpt><trkpt lat="46.28244911303129" lon="13.088796801859903"><ele>196.8</ele><time>2026-04-26T07:32:07Z</time></trkpt><trkpt lat="46.28241211576972" lon="13.088662862111512"><ele>196.0</ele><time>2026-04-26T07:32:08Z</time></trkpt><trkpt lat="46.28236941899862" lon="13.088528019372804"><ele>196.0</ele><time>2026-04-26T07:32:09Z</time></trkpt><trkpt lat="46.282331477978204" lon="13.088408664759159"><ele>196.0</ele><time>2026-04-26T07:32:10Z</time></trkpt><trkpt lat="46.282297002697376" lon="13.088292005428697"><ele>196.0</ele><time>2026-04-26T07:32:11Z</time></trkpt><trkpt lat="46.28226314362047" lon="13.088158388141554"><ele>196.0</ele><time>2026-04-26T07:32:12Z</time></trkpt><trkpt lat="46.28222659410987" lon="13.088028455371747"><ele>196.0</ele><time>2026-04-26T07:32:13Z</time></trkpt><trkpt lat="46.28218815566318" lon="13.087897840072168"><ele>196.0</ele><time>2026-04-26T07:32:14Z</time></trkpt><trkpt lat="46.282148318241234" lon="13.087769991043723"><ele>196.0</ele><time>2026-04-26T07:32:15Z</time></trkpt><trkpt lat="46.28211194876413" lon="13.087646399400205"><ele>196.0</ele><time>2026-04-26T07:32:16Z</time></trkpt><trkpt lat="46.28208000446061" lon="13.08752794380798"><ele>196.0</ele><time>2026-04-26T07:32:17Z</time></trkpt><trkpt lat="46.28204816729558" lon="13.08740969892896"><ele>196.0</ele><time>2026-04-26T07:32:18Z</time></trkpt><trkpt lat="46.28201777499274" lon="13.087295867017927"><ele>196.0</ele><time>2026-04-26T07:32:19Z</time></trkpt><trkpt lat="46.28198938478032" lon="13.087176074856549"><ele>196.0</ele><time>2026-04-26T07:32:20Z</time></trkpt><trkpt lat="46.28196573174796" lon="13.087042696632496"><ele>196.0</ele><time>2026-04-26T07:32:21Z</time></trkpt><trkpt lat="46.28194978389062" lon="13.086900461729709"><ele>196.0</ele><time>2026-04-26T07:32:22Z</time></trkpt><trkpt lat="46.28193338761197" lon="13.086761948116772"><ele>196.0</ele><time>2026-04-26T07:32:23Z</time></trkpt><trkpt lat="46.2819210496908" lon="13.086624937165"><ele>196.16666666666666</ele><time>2026-04-26T07:32:24Z</time></trkpt><trkpt lat="46.28191020422872" lon="13.086494228414814"><ele>196.33333333333331</ele><time>2026-04-26T07:32:25Z</time></trkpt><trkpt lat="46.28189973606328" lon="13.086361487220808"><ele>196.5</ele><time>2026-04-26T07:32:26Z</time></trkpt><trkpt lat="46.281888687856956" lon="13.086233254147146"><ele>196.66666666666669</ele><time>2026-04-26T07:32:27Z</time></trkpt><trkpt lat="46.28188071623024" lon="13.08610709589561"><ele>196.83333333333334</ele><time>2026-04-26T07:32:28Z</time></trkpt><trkpt lat="46.281869335164366" lon="13.085980423132858"><ele>197.0</ele><time>2026-04-26T07:32:29Z</time></trkpt><trkpt lat="46.281856843647" lon="13.085846143224838"><ele>198.16666666666669</ele><time>2026-04-26T07:32:30Z</time></trkpt><trkpt lat="46.281844890446415" lon="13.085713039911406"><ele>199.33333333333334</ele><time>2026-04-26T07:32:31Z</time></trkpt><trkpt lat="46.281829615415674" lon="13.085580768596506"><ele>200.5</ele><time>2026-04-26T07:32:32Z</time></trkpt><trkpt lat="46.28181929443546" lon="13.085442581909486"><ele>201.66666666666669</ele><time>2026-04-26T07:32:33Z</time></trkpt><trkpt lat="46.281810412519185" lon="13.085326701424128"><ele>202.83333333333334</ele><time>2026-04-26T07:32:34Z</time></trkpt><trkpt lat="46.281801067478895" lon="13.085222166671691"><ele>204.0</ele><time>2026-04-26T07:32:35Z</time></trkpt><trkpt lat="46.281792095181395" lon="13.085123571112863"><ele>204.0</ele><time>2026-04-26T07:32:36Z</time></trkpt><trkpt lat="46.28178470644268" lon="13.08501512560606"><ele>204.0</ele><time>2026-04-26T07:32:37Z</time></trkpt><trkpt lat="46.2817756334262" lon="13.084894227030592"><ele>204.0</ele><time>2026-04-26T07:32:38Z</time></trkpt><trkpt lat="46.28176493083172" lon="13.084777967562875"><ele>204.0</ele><time>2026-04-26T07:32:39Z</time></trkpt><trkpt lat="46.28175453140759" lon="13.084652589941541"><ele>204.0</ele><time>2026-04-26T07:32:40Z</time></trkpt><trkpt lat="46.28174324784613" lon="13.08452267191934"><ele>204.0</ele><time>2026-04-26T07:32:41Z</time></trkpt><trkpt lat="46.281734898425384" lon="13.084395236721143"><ele>205.0</ele><time>2026-04-26T07:32:42Z</time></trkpt><trkpt lat="46.2817308703543" lon="13.084270096365952"><ele>206.0</ele><time>2026-04-26T07:32:43Z</time></trkpt><trkpt lat="46.281718584898634" lon="13.084147432657026"><ele>207.0</ele><time>2026-04-26T07:32:44Z</time></trkpt><trkpt lat="46.28169627271446" lon="13.084007715775305"><ele>208.0</ele><time>2026-04-26T07:32:45Z</time></trkpt><trkpt lat="46.28167275270956" lon="13.083865412294127"><ele>209.0</ele><time>2026-04-26T07:32:46Z</time></trkpt><trkpt lat="46.281638266681135" lon="13.083724548940653"><ele>210.2</ele><time>2026-04-26T07:32:47Z</time></trkpt><trkpt lat="46.28161279409153" lon="13.083593004319827"><ele>211.39999999999998</ele><time>2026-04-26T07:32:48Z</time></trkpt><trkpt lat="46.2815855689216" lon="13.083461220216718"><ele>212.6</ele><time>2026-04-26T07:32:49Z</time></trkpt><trkpt lat="46.281560285097406" lon="13.083339006170013"><ele>213.8</ele><time>2026-04-26T07:32:50Z</time></trkpt><trkpt lat="46.28152943360832" lon="13.08319879781834"><ele>215.0</ele><time>2026-04-26T07:32:51Z</time></trkpt><trkpt lat="46.28150002164757" lon="13.083054107215293"><ele>215.8</ele><time>2026-04-26T07:32:52Z</time></trkpt><trkpt lat="46.281471643829704" lon="13.082911701505255"><ele>216.6</ele><time>2026-04-26T07:32:53Z</time></trkpt><trkpt lat="46.28143951502196" lon="13.082778181552063"><ele>217.39999999999998</ele><time>2026-04-26T07:32:54Z</time></trkpt><trkpt lat="46.28141382917946" lon="13.082659193704067"><ele>218.2</ele><time>2026-04-26T07:32:55Z</time></trkpt><trkpt lat="46.281396915941116" lon="13.082562848781699"><ele>219.0</ele><time>2026-04-26T07:32:56Z</time></trkpt><trkpt lat="46.281361988648385" lon="13.082410584901757"><ele>214.0</ele><time>2026-04-26T07:32:58Z</time></trkpt><trkpt lat="46.28131452076532" lon="13.082266049412835"><ele>209.0</ele><time>2026-04-26T07:33:00Z</time></trkpt><trkpt lat="46.2812720274473" lon="13.082093189813756"><ele>204.0</ele><time>2026-04-26T07:33:02Z</time></trkpt><trkpt lat="46.28124105936713" lon="13.081906235229587"><ele>199.0</ele><time>2026-04-26T07:33:04Z</time></trkpt><trkpt lat="46.2812137385063" lon="13.081719658082266"><ele>197.66666666666666</ele><time>2026-04-26T07:33:05Z</time></trkpt><trkpt lat="46.281188734897015" lon="13.081506429452583"><ele>196.33333333333331</ele><time>2026-04-26T07:33:06Z</time></trkpt><trkpt lat="46.28117390033025" lon="13.081257001569515"><ele>195.0</ele><time>2026-04-26T07:33:07Z</time></trkpt><trkpt lat="46.28119186265057" lon="13.080957915095933"><ele>193.75</ele><time>2026-04-26T07:33:08Z</time></trkpt><trkpt lat="46.28121067751117" lon="13.080705317704338"><ele>192.5</ele><time>2026-04-26T07:33:09Z</time></trkpt><trkpt lat="46.28122124406906" lon="13.08050916577081"><ele>191.25</ele><time>2026-04-26T07:33:10Z</time></trkpt><trkpt lat="46.281227317684035" lon="13.080346186585837"><ele>190.0</ele><time>2026-04-26T07:33:11Z</time></trkpt><trkpt lat="46.281239679975485" lon="13.080186177185102"><ele>190.0</ele><time>2026-04-26T07:33:12Z</time></trkpt><trkpt lat="46.28126207277888" lon="13.08003165013274"><ele>190.0</ele><time>2026-04-26T07:33:13Z</time></trkpt><trkpt lat="46.28129314990868" lon="13.079869225240744"><ele>190.0</ele><time>2026-04-26T07:33:14Z</time></trkpt><trkpt lat="46.281335165819534" lon="13.079691462398985"><ele>190.0</ele><time>2026-04-26T07:33:15Z</time></trkpt><trkpt lat="46.281380713010954" lon="13.079522886774654"><ele>189.5</ele><time>2026-04-26T07:33:16Z</time></trkpt><trkpt lat="46.28142513299076" lon="13.079369465507932"><ele>189.0</ele><time>2026-04-26T07:33:17Z</time></trkpt><trkpt lat="46.28146903953413" lon="13.079202625055235"><ele>188.5</ele><time>2026-04-26T07:33:18Z</time></trkpt><trkpt lat="46.28151761468121" lon="13.079015194889289"><ele>188.0</ele><time>2026-04-26T07:33:19Z</time></trkpt><trkpt lat="46.28156168138957" lon="13.078819115166352"><ele>189.5</ele><time>2026-04-26T07:33:20Z</time></trkpt><trkpt lat="46.281602858559886" lon="13.078603014742484"><ele>191.0</ele><time>2026-04-26T07:33:21Z</time></trkpt><trkpt lat="46.281635784362756" lon="13.078398604879123"><ele>192.5</ele><time>2026-04-26T07:33:22Z</time></trkpt><trkpt lat="46.28166277242908" lon="13.078213570850982"><ele>194.0</ele><time>2026-04-26T07:33:23Z</time></trkpt><trkpt lat="46.281690991115155" lon="13.07803535391525"><ele>194.0</ele><time>2026-04-26T07:33:24Z</time></trkpt><trkpt lat="46.28172300563681" lon="13.07783599039889"><ele>194.0</ele><time>2026-04-26T07:33:25Z</time></trkpt><trkpt lat="46.281766589397364" lon="13.077609497487954"><ele>194.0</ele><time>2026-04-26T07:33:26Z</time></trkpt><trkpt lat="46.28180377289319" lon="13.077355296190301"><ele>193.66666666666669</ele><time>2026-04-26T07:33:27Z</time></trkpt><trkpt lat="46.28184028867878" lon="13.077116144338586"><ele>193.33333333333331</ele><time>2026-04-26T07:33:28Z</time></trkpt><trkpt lat="46.28187825039867" lon="13.07690972360787"><ele>193.0</ele><time>2026-04-26T07:33:29Z</time></trkpt><trkpt lat="46.281917984068755" lon="13.076719821084904"><ele>192.75</ele><time>2026-04-26T07:33:30Z</time></trkpt><trkpt lat="46.28195223283958" lon="13.076538622671702"><ele>192.5</ele><time>2026-04-26T07:33:31Z</time></trkpt><trkpt lat="46.2819861503399" lon="13.076362597623742"><ele>192.25</ele><time>2026-04-26T07:33:32Z</time></trkpt><trkpt lat="46.28202753306068" lon="13.076177921215557"><ele>192.0</ele><time>2026-04-26T07:33:33Z</time></trkpt><trkpt lat="46.28207577174859" lon="13.075998108482302"><ele>192.0</ele><time>2026-04-26T07:33:34Z</time></trkpt><trkpt lat="46.28212945945791" lon="13.075835307595707"><ele>192.0</ele><time>2026-04-26T07:33:35Z</time></trkpt><trkpt lat="46.28218811670585" lon="13.07568215828233"><ele>192.0</ele><time>2026-04-26T07:33:36Z</time></trkpt><trkpt lat="46.28226031650704" lon="13.075541804506013"><ele>192.0</ele><time>2026-04-26T07:33:37Z</time></trkpt><trkpt lat="46.28234188146907" lon="13.07539937820208"><ele>192.0</ele><time>2026-04-26T07:33:38Z</time></trkpt><trkpt lat="46.28242653382739" lon="13.075248819549007"><ele>192.0</ele><time>2026-04-26T07:33:39Z</time></trkpt><trkpt lat="46.282498928863646" lon="13.075106560223604"><ele>192.0</ele><time>2026-04-26T07:33:40Z</time></trkpt><trkpt lat="46.28255818933923" lon="13.074959714041341"><ele>192.0</ele><time>2026-04-26T07:33:41Z</time></trkpt><trkpt lat="46.282594275010354" lon="13.074782616477462"><ele>192.0</ele><time>2026-04-26T07:33:42Z</time></trkpt><trkpt lat="46.28261974291607" lon="13.074587510502393"><ele>192.0</ele><time>2026-04-26T07:33:43Z</time></trkpt><trkpt lat="46.28263399424933" lon="13.074369029729006"><ele>192.0</ele><time>2026-04-26T07:33:44Z</time></trkpt><trkpt lat="46.28263163649103" lon="13.074142060207897"><ele>192.0</ele><time>2026-04-26T07:33:45Z</time></trkpt><trkpt lat="46.282636665049175" lon="13.073932625941802"><ele>192.75</ele><time>2026-04-26T07:33:46Z</time></trkpt><trkpt lat="46.282648708609315" lon="13.073724069471101"><ele>193.5</ele><time>2026-04-26T07:33:47Z</time></trkpt><trkpt lat="46.28266126429129" lon="13.07351727423409"><ele>194.25</ele><time>2026-04-26T07:33:48Z</time></trkpt><trkpt lat="46.2826753132056" lon="13.073323674000818"><ele>195.0</ele><time>2026-04-26T07:33:49Z</time></trkpt><trkpt lat="46.28268815467509" lon="13.073146912366049"><ele>195.0</ele><time>2026-04-26T07:33:50Z</time></trkpt><trkpt lat="46.28270095792786" lon="13.072978791117643"><ele>195.0</ele><time>2026-04-26T07:33:51Z</time></trkpt><trkpt lat="46.282714596507944" lon="13.07281572320046"><ele>195.0</ele><time>2026-04-26T07:33:52Z</time></trkpt><trkpt lat="46.282727481375126" lon="13.072663727210061"><ele>195.0</ele><time>2026-04-26T07:33:53Z</time></trkpt><trkpt lat="46.28273817446258" lon="13.072509196852318"><ele>195.0</ele><time>2026-04-26T07:33:54Z</time></trkpt><trkpt lat="46.282751659913465" lon="13.072335948899541"><ele>195.25</ele><time>2026-04-26T07:33:55Z</time></trkpt><trkpt lat="46.282765183751906" lon="13.072132470728173"><ele>195.5</ele><time>2026-04-26T07:33:56Z</time></trkpt><trkpt lat="46.28278230326595" lon="13.071925150080165"><ele>195.75</ele><time>2026-04-26T07:33:57Z</time></trkpt><trkpt lat="46.28280185783009" lon="13.071755604850441"><ele>196.0</ele><time>2026-04-26T07:33:58Z</time></trkpt><trkpt lat="46.28282320205607" lon="13.071591719315913"><ele>195.60000000000002</ele><time>2026-04-26T07:33:59Z</time></trkpt><trkpt lat="46.282843407028444" lon="13.071449829100121"><ele>195.2</ele><time>2026-04-26T07:34:00Z</time></trkpt><trkpt lat="46.28286229618912" lon="13.071297099921093"><ele>194.8</ele><time>2026-04-26T07:34:01Z</time></trkpt><trkpt lat="46.28288252504486" lon="13.071162112674772"><ele>194.39999999999998</ele><time>2026-04-26T07:34:02Z</time></trkpt><trkpt lat="46.282907611579624" lon="13.071018143485583"><ele>194.0</ele><time>2026-04-26T07:34:03Z</time></trkpt><trkpt lat="46.28294881963789" lon="13.070869255058136"><ele>193.25</ele><time>2026-04-26T07:34:04Z</time></trkpt><trkpt lat="46.28298947305297" lon="13.070693219286866"><ele>192.5</ele><time>2026-04-26T07:34:05Z</time></trkpt><trkpt lat="46.283044155684294" lon="13.070500514383083"><ele>191.75</ele><time>2026-04-26T07:34:06Z</time></trkpt><trkpt lat="46.282982720307196" lon="13.070435323901245"><ele>191.0</ele><time>2026-04-26T07:34:07Z</time></trkpt><trkpt lat="46.28300509521009" lon="13.070284842146684"><ele>191.0</ele><time>2026-04-26T07:34:08Z</time></trkpt><trkpt lat="46.28302524977702" lon="13.07014815570687"><ele>191.0</ele><time>2026-04-26T07:34:09Z</time></trkpt><trkpt lat="46.283038388406" lon="13.070025794732262"><ele>191.0</ele><time>2026-04-26T07:34:10Z</time></trkpt><trkpt lat="46.28305438012579" lon="13.069914922971519"><ele>191.0</ele><time>2026-04-26T07:34:11Z</time></trkpt><trkpt lat="46.283085655638" lon="13.069826135165302"><ele>191.0</ele><time>2026-04-26T07:34:12Z</time></trkpt><trkpt lat="46.28316191884834" lon="13.069637266994915"><ele>192.0</ele><time>2026-04-26T07:34:14Z</time></trkpt><trkpt lat="46.283167752785516" lon="13.069509812668826"><ele>193.0</ele><time>2026-04-26T07:34:15Z</time></trkpt><trkpt lat="46.283166372211795" lon="13.069346664143167"><ele>194.0</ele><time>2026-04-26T07:34:16Z</time></trkpt><trkpt lat="46.28319186419746" lon="13.069139864848841"><ele>195.0</ele><time>2026-04-26T07:34:17Z</time></trkpt><trkpt lat="46.28323298046033" lon="13.068894644067203"><ele>195.0</ele><time>2026-04-26T07:34:18Z</time></trkpt><trkpt lat="46.28327945791989" lon="13.06860792762513"><ele>195.0</ele><time>2026-04-26T07:34:19Z</time></trkpt><trkpt lat="46.28333062314274" lon="13.068360793203093"><ele>195.0</ele><time>2026-04-26T07:34:20Z</time></trkpt><trkpt lat="46.28338493801563" lon="13.068146547512068"><ele>194.33333333333331</ele><time>2026-04-26T07:34:21Z</time></trkpt><trkpt lat="46.28345585745841" lon="13.06794210961394"><ele>193.66666666666666</ele><time>2026-04-26T07:34:22Z</time></trkpt><trkpt lat="46.2835378049418" lon="13.067724488195381"><ele>193.0</ele><time>2026-04-26T07:34:23Z</time></trkpt><trkpt lat="46.28361868083029" lon="13.067520018606173"><ele>192.0</ele><time>2026-04-26T07:34:24Z</time></trkpt><trkpt lat="46.28369601325172" lon="13.067337836634982"><ele>191.0</ele><time>2026-04-26T07:34:25Z</time></trkpt><trkpt lat="46.28378020376233" lon="13.067166165078305"><ele>190.0</ele><time>2026-04-26T07:34:26Z</time></trkpt><trkpt lat="46.28387433357773" lon="13.066973537565694"><ele>190.5</ele><time>2026-04-26T07:34:27Z</time></trkpt><trkpt lat="46.28395362202112" lon="13.06680322480953"><ele>191.0</ele><time>2026-04-26T07:34:28Z</time></trkpt><trkpt lat="46.28402269583895" lon="13.066640496015603"><ele>191.5</ele><time>2026-04-26T07:34:29Z</time></trkpt><trkpt lat="46.28409006605539" lon="13.066478056411478"><ele>192.0</ele><time>2026-04-26T07:34:30Z</time></trkpt><trkpt lat="46.28415803867034" lon="13.066321857111479"><ele>192.0</ele><time>2026-04-26T07:34:31Z</time></trkpt><trkpt lat="46.28422481024176" lon="13.066162017251475"><ele>192.0</ele><time>2026-04-26T07:34:32Z</time></trkpt><trkpt lat="46.28429183079424" lon="13.065975061592864"><ele>192.0</ele><time>2026-04-26T07:34:33Z</time></trkpt><trkpt lat="46.28436808712532" lon="13.065764117370342"><ele>192.0</ele><time>2026-04-26T07:34:34Z</time></trkpt><trkpt lat="46.28445681794085" lon="13.06554060667837"><ele>192.0</ele><time>2026-04-26T07:34:35Z</time></trkpt><trkpt lat="46.28453660533385" lon="13.065339592040646"><ele>192.0</ele><time>2026-04-26T07:34:36Z</time></trkpt><trkpt lat="46.28460476006208" lon="13.065178295724952"><ele>192.0</ele><time>2026-04-26T07:34:37Z</time></trkpt><trkpt lat="46.28466537019038" lon="13.065012362572366"><ele>192.0</ele><time>2026-04-26T07:34:38Z</time></trkpt><trkpt lat="46.28474047036939" lon="13.064853188896187"><ele>190.33333333333334</ele><time>2026-04-26T07:34:39Z</time></trkpt><trkpt lat="46.28483038545116" lon="13.064637963763719"><ele>188.66666666666669</ele><time>2026-04-26T07:34:40Z</time></trkpt><trkpt lat="46.28493133647634" lon="13.06445012629111"><ele>187.0</ele><time>2026-04-26T07:34:41Z</time></trkpt><trkpt lat="46.285040085366035" lon="13.064290623084204"><ele>187.0</ele><time>2026-04-26T07:34:42Z</time></trkpt><trkpt lat="46.28514584246843" lon="13.064162346378568"><ele>187.0</ele><time>2026-04-26T07:34:43Z</time></trkpt><trkpt lat="46.28524753455322" lon="13.064055953578478"><ele>187.0</ele><time>2026-04-26T07:34:44Z</time></trkpt><trkpt lat="46.28534540540963" lon="13.063962082307496"><ele>187.0</ele><time>2026-04-26T07:34:45Z</time></trkpt><trkpt lat="46.28543567833853" lon="13.063877673816451"><ele>187.25</ele><time>2026-04-26T07:34:46Z</time></trkpt><trkpt lat="46.28552524497174" lon="13.063793456582092"><ele>187.5</ele><time>2026-04-26T07:34:47Z</time></trkpt><trkpt lat="46.28561785975252" lon="13.063708788760728"><ele>187.75</ele><time>2026-04-26T07:34:48Z</time></trkpt><trkpt lat="46.28573060834919" lon="13.063626411751258"><ele>188.0</ele><time>2026-04-26T07:34:49Z</time></trkpt><trkpt lat="46.28586206161137" lon="13.063562599213023"><ele>188.33333333333331</ele><time>2026-04-26T07:34:50Z</time></trkpt><trkpt lat="46.28601482953306" lon="13.06351890565238"><ele>188.66666666666666</ele><time>2026-04-26T07:34:51Z</time></trkpt><trkpt lat="46.28617848339342" lon="13.063494727473563"><ele>189.0</ele><time>2026-04-26T07:34:52Z</time></trkpt><trkpt lat="46.28633582479077" lon="13.063497782333584"><ele>188.33333333333334</ele><time>2026-04-26T07:34:53Z</time></trkpt><trkpt lat="46.286477416394554" lon="13.0635354396371"><ele>187.66666666666669</ele><time>2026-04-26T07:34:54Z</time></trkpt><trkpt lat="46.286622229046955" lon="13.063607451302895"><ele>187.0</ele><time>2026-04-26T07:34:55Z</time></trkpt><trkpt lat="46.28678368429591" lon="13.06371638097988"><ele>187.0</ele><time>2026-04-26T07:34:56Z</time></trkpt><trkpt lat="46.28694518768978" lon="13.063829319014944"><ele>187.0</ele><time>2026-04-26T07:34:57Z</time></trkpt><trkpt lat="46.28709067229885" lon="13.0639104290057"><ele>187.0</ele><time>2026-04-26T07:34:58Z</time></trkpt><trkpt lat="46.287226501410515" lon="13.063981311922818"><ele>186.33333333333334</ele><time>2026-04-26T07:34:59Z</time></trkpt><trkpt lat="46.28737548281056" lon="13.064042330363996"><ele>185.66666666666666</ele><time>2026-04-26T07:35:00Z</time></trkpt><trkpt lat="46.28754696069854" lon="13.06408956808694"><ele>185.0</ele><time>2026-04-26T07:35:01Z</time></trkpt><trkpt lat="46.287726093813006" lon="13.064111569870175"><ele>185.0</ele><time>2026-04-26T07:35:02Z</time></trkpt><trkpt lat="46.28790135953425" lon="13.06410301570366"><ele>185.0</ele><time>2026-04-26T07:35:03Z</time></trkpt><trkpt lat="46.288064416120264" lon="13.064078627767309"><ele>185.0</ele><time>2026-04-26T07:35:04Z</time></trkpt><trkpt lat="46.28821018308743" lon="13.064061120308335"><ele>186.0</ele><time>2026-04-26T07:35:05Z</time></trkpt><trkpt lat="46.2883546642298" lon="13.064060995946686"><ele>187.0</ele><time>2026-04-26T07:35:06Z</time></trkpt><trkpt lat="46.28851536085579" lon="13.064063707850785"><ele>188.0</ele><time>2026-04-26T07:35:07Z</time></trkpt><trkpt lat="46.28867521135715" lon="13.064066597252513"><ele>188.0</ele><time>2026-04-26T07:35:08Z</time></trkpt><trkpt lat="46.288818054346386" lon="13.064089377517528"><ele>188.0</ele><time>2026-04-26T07:35:09Z</time></trkpt><trkpt lat="46.28894731567926" lon="13.064116577925269"><ele>188.0</ele><time>2026-04-26T07:35:10Z</time></trkpt><trkpt lat="46.28907554454359" lon="13.064145878573417"><ele>188.0</ele><time>2026-04-26T07:35:11Z</time></trkpt><trkpt lat="46.28921910569072" lon="13.064182353281593"><ele>188.33333333333331</ele><time>2026-04-26T07:35:12Z</time></trkpt><trkpt lat="46.28938065963302" lon="13.064224240053047"><ele>188.66666666666666</ele><time>2026-04-26T07:35:13Z</time></trkpt><trkpt lat="46.28955046307201" lon="13.064269311302722"><ele>189.0</ele><time>2026-04-26T07:35:14Z</time></trkpt><trkpt lat="46.28970968255597" lon="13.064307014509671"><ele>188.66666666666666</ele><time>2026-04-26T07:35:15Z</time></trkpt><trkpt lat="46.28985699740048" lon="13.064338058542592"><ele>188.33333333333331</ele><time>2026-04-26T07:35:16Z</time></trkpt><trkpt lat="46.28999963534611" lon="13.064369214208945"><ele>188.0</ele><time>2026-04-26T07:35:17Z</time></trkpt><trkpt lat="46.290154248700695" lon="13.064407739350356"><ele>188.0</ele><time>2026-04-26T07:35:18Z</time></trkpt><trkpt lat="46.2903282360232" lon="13.064450043908492"><ele>188.0</ele><time>2026-04-26T07:35:19Z</time></trkpt><trkpt lat="46.29049091653035" lon="13.064488330904734"><ele>188.0</ele><time>2026-04-26T07:35:20Z</time></trkpt><trkpt lat="46.290640634687264" lon="13.06451523354442"><ele>187.66666666666666</ele><time>2026-04-26T07:35:21Z</time></trkpt><trkpt lat="46.290795789664514" lon="13.064543080189189"><ele>187.33333333333334</ele><time>2026-04-26T07:35:22Z</time></trkpt><trkpt lat="46.29097199853809" lon="13.06456874394344"><ele>187.0</ele><time>2026-04-26T07:35:23Z</time></trkpt><trkpt lat="46.29115473595927" lon="13.064570892639729"><ele>187.0</ele><time>2026-04-26T07:35:24Z</time></trkpt><trkpt lat="46.29134812613546" lon="13.064533121068898"><ele>187.0</ele><time>2026-04-26T07:35:25Z</time></trkpt><trkpt lat="46.291549130993836" lon="13.064461599827776"><ele>187.0</ele><time>2026-04-26T07:35:26Z</time></trkpt><trkpt lat="46.29173392682202" lon="13.064395630096554"><ele>187.33333333333334</ele><time>2026-04-26T07:35:27Z</time></trkpt><trkpt lat="46.29190588418838" lon="13.064351195499503"><ele>187.66666666666666</ele><time>2026-04-26T07:35:28Z</time></trkpt><trkpt lat="46.29206226089836" lon="13.064312103136565"><ele>188.0</ele><time>2026-04-26T07:35:29Z</time></trkpt><trkpt lat="46.29224054186103" lon="13.064257296594059"><ele>187.33333333333331</ele><time>2026-04-26T07:35:30Z</time></trkpt><trkpt lat="46.292428136302135" lon="13.064197544152995"><ele>186.66666666666666</ele><time>2026-04-26T07:35:31Z</time></trkpt><trkpt lat="46.29260659106227" lon="13.064141747171577"><ele>186.0</ele><time>2026-04-26T07:35:32Z</time></trkpt><trkpt lat="46.292793455201384" lon="13.06407587869184"><ele>186.0</ele><time>2026-04-26T07:35:33Z</time></trkpt><trkpt lat="46.29298199315777" lon="13.064000275443359"><ele>186.0</ele><time>2026-04-26T07:35:34Z</time></trkpt><trkpt lat="46.29317657997904" lon="13.06390695129669"><ele>186.0</ele><time>2026-04-26T07:35:35Z</time></trkpt><trkpt lat="46.29336396532614" lon="13.063796077961525"><ele>187.66666666666666</ele><time>2026-04-26T07:35:36Z</time></trkpt><trkpt lat="46.29353258122523" lon="13.06369457296894"><ele>189.33333333333331</ele><time>2026-04-26T07:35:37Z</time></trkpt><trkpt lat="46.29369211683919" lon="13.063606985014328"><ele>191.0</ele><time>2026-04-26T07:35:38Z</time></trkpt><trkpt lat="46.29384957287294" lon="13.063516758406905"><ele>192.0</ele><time>2026-04-26T07:35:39Z</time></trkpt><trkpt lat="46.294005237098006" lon="13.063430528142298"><ele>193.0</ele><time>2026-04-26T07:35:40Z</time></trkpt><trkpt lat="46.29418117402829" lon="13.063352223160202"><ele>194.0</ele><time>2026-04-26T07:35:41Z</time></trkpt><trkpt lat="46.294379390549004" lon="13.063289536315107"><ele>192.0</ele><time>2026-04-26T07:35:42Z</time></trkpt><trkpt lat="46.294591220525504" lon="13.06324188790671"><ele>190.0</ele><time>2026-04-26T07:35:43Z</time></trkpt><trkpt lat="46.29481840549824" lon="13.063194911342057"><ele>188.0</ele><time>2026-04-26T07:35:44Z</time></trkpt><trkpt lat="46.295057522707474" lon="13.063136220086742"><ele>187.5</ele><time>2026-04-26T07:35:45Z</time></trkpt><trkpt lat="46.295337122551274" lon="13.063055399382728"><ele>187.0</ele><time>2026-04-26T07:35:46Z</time></trkpt><trkpt lat="46.29564755754408" lon="13.062990834344795"><ele>188.0</ele><time>2026-04-26T07:35:47Z</time></trkpt><trkpt lat="46.295925458546044" lon="13.062940947601287"><ele>189.0</ele><time>2026-04-26T07:35:48Z</time></trkpt><trkpt lat="46.29617193364575" lon="13.062901304377469"><ele>189.0</ele><time>2026-04-26T07:35:49Z</time></trkpt><trkpt lat="46.29640111197632" lon="13.06286145663991"><ele>189.0</ele><time>2026-04-26T07:35:50Z</time></trkpt><trkpt lat="46.29661050163116" lon="13.062815687619736"><ele>189.0</ele><time>2026-04-26T07:35:51Z</time></trkpt><trkpt lat="46.29681317940214" lon="13.062771736705491"><ele>190.0</ele><time>2026-04-26T07:35:52Z</time></trkpt><trkpt lat="46.29700277096522" lon="13.062730126022005"><ele>191.0</ele><time>2026-04-26T07:35:53Z</time></trkpt><trkpt lat="46.29719148376851" lon="13.062690498749362"><ele>192.0</ele><time>2026-04-26T07:35:54Z</time></trkpt><trkpt lat="46.29738405310202" lon="13.062646729927984"><ele>192.0</ele><time>2026-04-26T07:35:55Z</time></trkpt><trkpt lat="46.29757042477187" lon="13.062608591150607"><ele>192.0</ele><time>2026-04-26T07:35:56Z</time></trkpt><trkpt lat="46.29774280080309" lon="13.062573886997829"><ele>192.0</ele><time>2026-04-26T07:35:57Z</time></trkpt><trkpt lat="46.29791262661365" lon="13.062538237234708"><ele>192.0</ele><time>2026-04-26T07:35:58Z</time></trkpt><trkpt lat="46.298096972948805" lon="13.062495082743736"><ele>192.0</ele><time>2026-04-26T07:35:59Z</time></trkpt><trkpt lat="46.2983138277888" lon="13.062430602569446"><ele>192.0</ele><time>2026-04-26T07:36:00Z</time></trkpt><trkpt lat="46.29857147705502" lon="13.062392501102174"><ele>192.0</ele><time>2026-04-26T07:36:01Z</time></trkpt><trkpt lat="46.298852745807075" lon="13.062308184431677"><ele>192.0</ele><time>2026-04-26T07:36:02Z</time></trkpt><trkpt lat="46.2991277581602" lon="13.062241725711752"><ele>192.5</ele><time>2026-04-26T07:36:03Z</time></trkpt><trkpt lat="46.299365407076884" lon="13.062170713954727"><ele>193.0</ele><time>2026-04-26T07:36:04Z</time></trkpt><trkpt lat="46.299588943820154" lon="13.062097428632748"><ele>193.5</ele><time>2026-04-26T07:36:05Z</time></trkpt><trkpt lat="46.29982374164491" lon="13.062025876808226"><ele>194.0</ele><time>2026-04-26T07:36:06Z</time></trkpt><trkpt lat="46.30006933046251" lon="13.061946105866237"><ele>194.0</ele><time>2026-04-26T07:36:07Z</time></trkpt><trkpt lat="46.3003307284354" lon="13.06185176050201"><ele>194.0</ele><time>2026-04-26T07:36:08Z</time></trkpt><trkpt lat="46.30060726186866" lon="13.061755408893077"><ele>194.5</ele><time>2026-04-26T07:36:09Z</time></trkpt><trkpt lat="46.300898223318406" lon="13.061657569882739"><ele>195.0</ele><time>2026-04-26T07:36:10Z</time></trkpt><trkpt lat="46.30116077604243" lon="13.061568450789578"><ele>195.5</ele><time>2026-04-26T07:36:11Z</time></trkpt><trkpt lat="46.3013973163542" lon="13.061483732730435"><ele>196.0</ele><time>2026-04-26T07:36:12Z</time></trkpt><trkpt lat="46.30162396303271" lon="13.061411426144694"><ele>195.33333333333331</ele><time>2026-04-26T07:36:13Z</time></trkpt><trkpt lat="46.30183756073649" lon="13.061348141382199"><ele>194.66666666666669</ele><time>2026-04-26T07:36:14Z</time></trkpt><trkpt lat="46.302046772296684" lon="13.061280421110277"><ele>194.0</ele><time>2026-04-26T07:36:15Z</time></trkpt><trkpt lat="46.302266596334164" lon="13.06120438538417"><ele>193.0</ele><time>2026-04-26T07:36:16Z</time></trkpt><trkpt lat="46.30249707824979" lon="13.061126892766543"><ele>192.0</ele><time>2026-04-26T07:36:17Z</time></trkpt><trkpt lat="46.302733935371855" lon="13.061044472960681"><ele>192.0</ele><time>2026-04-26T07:36:18Z</time></trkpt><trkpt lat="46.30297597398349" lon="13.060959051591228"><ele>192.0</ele><time>2026-04-26T07:36:19Z</time></trkpt><trkpt lat="46.30320466290059" lon="13.06088136961881"><ele>193.33333333333331</ele><time>2026-04-26T07:36:20Z</time></trkpt><trkpt lat="46.30341203742799" lon="13.060812660819353"><ele>194.66666666666666</ele><time>2026-04-26T07:36:21Z</time></trkpt><trkpt lat="46.303622255436004" lon="13.060747225321224"><ele>196.0</ele><time>2026-04-26T07:36:22Z</time></trkpt><trkpt lat="46.30385217769346" lon="13.060672414040924"><ele>196.0</ele><time>2026-04-26T07:36:23Z</time></trkpt><trkpt lat="46.30409089567351" lon="13.060590464516453"><ele>196.0</ele><time>2026-04-26T07:36:24Z</time></trkpt><trkpt lat="46.304324981807" lon="13.060511195368814"><ele>196.0</ele><time>2026-04-26T07:36:25Z</time></trkpt><trkpt lat="46.30454043461422" lon="13.060440625292655"><ele>196.0</ele><time>2026-04-26T07:36:26Z</time></trkpt><trkpt lat="46.304738536601576" lon="13.060377309906714"><ele>196.0</ele><time>2026-04-26T07:36:27Z</time></trkpt><trkpt lat="46.30492271936007" lon="13.060316417249268"><ele>196.33333333333331</ele><time>2026-04-26T07:36:28Z</time></trkpt><trkpt lat="46.30509591165756" lon="13.060254657984872"><ele>196.66666666666669</ele><time>2026-04-26T07:36:29Z</time></trkpt><trkpt lat="46.30527203301481" lon="13.060192187911499"><ele>197.0</ele><time>2026-04-26T07:36:30Z</time></trkpt><trkpt lat="46.305457473879265" lon="13.060131307195386"><ele>197.0</ele><time>2026-04-26T07:36:31Z</time></trkpt><trkpt lat="46.30565259563694" lon="13.060071240135544"><ele>197.0</ele><time>2026-04-26T07:36:32Z</time></trkpt><trkpt lat="46.30585012982706" lon="13.06000335563597"><ele>197.0</ele><time>2026-04-26T07:36:33Z</time></trkpt><trkpt lat="46.306029870933294" lon="13.059929035039826"><ele>197.33333333333334</ele><time>2026-04-26T07:36:34Z</time></trkpt><trkpt lat="46.30619553406017" lon="13.059841388738334"><ele>197.66666666666669</ele><time>2026-04-26T07:36:35Z</time></trkpt><trkpt lat="46.30636145565273" lon="13.059713242510057"><ele>198.0</ele><time>2026-04-26T07:36:36Z</time></trkpt><trkpt lat="46.30654079730291" lon="13.059554200057454"><ele>198.0</ele><time>2026-04-26T07:36:37Z</time></trkpt><trkpt lat="46.3067256938304" lon="13.059385255187946"><ele>198.0</ele><time>2026-04-26T07:36:38Z</time></trkpt><trkpt lat="46.30688679541397" lon="13.059234142560452"><ele>198.0</ele><time>2026-04-26T07:36:39Z</time></trkpt><trkpt lat="46.307031011102545" lon="13.059101868218749"><ele>198.0</ele><time>2026-04-26T07:36:40Z</time></trkpt><trkpt lat="46.30716874982492" lon="13.058979470190698"><ele>198.0</ele><time>2026-04-26T07:36:41Z</time></trkpt><trkpt lat="46.30730065133276" lon="13.058858839691094"><ele>198.0</ele><time>2026-04-26T07:36:42Z</time></trkpt><trkpt lat="46.307433012537295" lon="13.058732804631576"><ele>198.0</ele><time>2026-04-26T07:36:43Z</time></trkpt><trkpt lat="46.30757610261102" lon="13.058603936519427"><ele>198.0</ele><time>2026-04-26T07:36:44Z</time></trkpt><trkpt lat="46.30772855557529" lon="13.058469218412831"><ele>198.0</ele><time>2026-04-26T07:36:45Z</time></trkpt><trkpt lat="46.307882869413795" lon="13.058331523139447"><ele>197.66666666666669</ele><time>2026-04-26T07:36:46Z</time></trkpt><trkpt lat="46.308037196222074" lon="13.058193275547467"><ele>197.33333333333334</ele><time>2026-04-26T07:36:47Z</time></trkpt><trkpt lat="46.30818901902319" lon="13.05805254187532"><ele>197.0</ele><time>2026-04-26T07:36:48Z</time></trkpt><trkpt lat="46.308350235431284" lon="13.057901071490514"><ele>197.33333333333334</ele><time>2026-04-26T07:36:49Z</time></trkpt><trkpt lat="46.308517121831905" lon="13.05775150937571"><ele>197.66666666666669</ele><time>2026-04-26T07:36:50Z</time></trkpt><trkpt lat="46.30868603106605" lon="13.057598140421426"><ele>198.0</ele><time>2026-04-26T07:36:51Z</time></trkpt><trkpt lat="46.3088502962811" lon="13.057447768833336"><ele>197.66666666666669</ele><time>2026-04-26T07:36:52Z</time></trkpt><trkpt lat="46.30900724483821" lon="13.05730626722658"><ele>197.33333333333334</ele><time>2026-04-26T07:36:53Z</time></trkpt><trkpt lat="46.30915070635794" lon="13.057175236873674"><ele>197.0</ele><time>2026-04-26T07:36:54Z</time></trkpt><trkpt lat="46.30927902743465" lon="13.05705746966128"><ele>197.0</ele><time>2026-04-26T07:36:55Z</time></trkpt><trkpt lat="46.309397285284284" lon="13.056951418165491"><ele>197.0</ele><time>2026-04-26T07:36:56Z</time></trkpt><trkpt lat="46.309503317946394" lon="13.056851867249836"><ele>197.0</ele><time>2026-04-26T07:36:57Z</time></trkpt><trkpt lat="46.30959909211789" lon="13.056759016887744"><ele>197.0</ele><time>2026-04-26T07:36:58Z</time></trkpt><trkpt lat="46.30969179019438" lon="13.056672628838061"><ele>197.2</ele><time>2026-04-26T07:36:59Z</time></trkpt><trkpt lat="46.309784871002115" lon="13.056605916949316"><ele>197.39999999999998</ele><time>2026-04-26T07:37:00Z</time></trkpt><trkpt lat="46.30988692668013" lon="13.056568856368544"><ele>197.60000000000002</ele><time>2026-04-26T07:37:01Z</time></trkpt><trkpt lat="46.30999404394216" lon="13.056554272221637"><ele>197.8</ele><time>2026-04-26T07:37:02Z</time></trkpt><trkpt lat="46.31010433006398" lon="13.056573018360686"><ele>198.0</ele><time>2026-04-26T07:37:03Z</time></trkpt><trkpt lat="46.31021705283007" lon="13.056631470628574"><ele>198.0</ele><time>2026-04-26T07:37:04Z</time></trkpt><trkpt lat="46.31033125289001" lon="13.056731670183275"><ele>198.0</ele><time>2026-04-26T07:37:05Z</time></trkpt><trkpt lat="46.310452143015496" lon="13.056872004438944"><ele>198.0</ele><time>2026-04-26T07:37:06Z</time></trkpt><trkpt lat="46.310590535697905" lon="13.057055221581894"><ele>198.0</ele><time>2026-04-26T07:37:07Z</time></trkpt><trkpt lat="46.31075607806031" lon="13.057268407659548"><ele>198.0</ele><time>2026-04-26T07:37:08Z</time></trkpt><trkpt lat="46.31094349738617" lon="13.057502344607617"><ele>198.0</ele><time>2026-04-26T07:37:09Z</time></trkpt><trkpt lat="46.31114711869122" lon="13.057765234817191"><ele>198.0</ele><time>2026-04-26T07:37:10Z</time></trkpt><trkpt lat="46.31136434562519" lon="13.058053371855717"><ele>197.0</ele><time>2026-04-26T07:37:11Z</time></trkpt><trkpt lat="46.31156266715398" lon="13.058310637979499"><ele>196.0</ele><time>2026-04-26T07:37:12Z</time></trkpt><trkpt lat="46.31174377697674" lon="13.058545030450313"><ele>196.0</ele><time>2026-04-26T07:37:13Z</time></trkpt><trkpt lat="46.31191086660383" lon="13.058766336671011"><ele>196.0</ele><time>2026-04-26T07:37:14Z</time></trkpt><trkpt lat="46.31206430516622" lon="13.058966177158656"><ele>196.0</ele><time>2026-04-26T07:37:15Z</time></trkpt><trkpt lat="46.312213106893466" lon="13.059158608040631"><ele>197.0</ele><time>2026-04-26T07:37:16Z</time></trkpt><trkpt lat="46.31236745942923" lon="13.059363625519827"><ele>198.0</ele><time>2026-04-26T07:37:17Z</time></trkpt><trkpt lat="46.31252944724761" lon="13.059567374917833"><ele>199.0</ele><time>2026-04-26T07:37:18Z</time></trkpt><trkpt lat="46.31268286109609" lon="13.059762022223975"><ele>199.0</ele><time>2026-04-26T07:37:19Z</time></trkpt><trkpt lat="46.31283959207375" lon="13.059960510357458"><ele>199.0</ele><time>2026-04-26T07:37:20Z</time></trkpt><trkpt lat="46.31301339980413" lon="13.060173466264946"><ele>199.0</ele><time>2026-04-26T07:37:21Z</time></trkpt><trkpt lat="46.31319936074204" lon="13.060416170838172"><ele>199.0</ele><time>2026-04-26T07:37:22Z</time></trkpt><trkpt lat="46.313380418796555" lon="13.060654181150758"><ele>199.0</ele><time>2026-04-26T07:37:23Z</time></trkpt><trkpt lat="46.31353597280318" lon="13.060844868124066"><ele>199.0</ele><time>2026-04-26T07:37:24Z</time></trkpt><trkpt lat="46.313687632014535" lon="13.061038503167829"><ele>199.33333333333331</ele><time>2026-04-26T07:37:25Z</time></trkpt><trkpt lat="46.31382195574435" lon="13.061227585124799"><ele>199.66666666666669</ele><time>2026-04-26T07:37:26Z</time></trkpt><trkpt lat="46.31395450715558" lon="13.061395368820055"><ele>200.0</ele><time>2026-04-26T07:37:27Z</time></trkpt><trkpt lat="46.31408732540901" lon="13.061565022258012"><ele>199.0</ele><time>2026-04-26T07:37:28Z</time></trkpt><trkpt lat="46.31421878609513" lon="13.061735155409208"><ele>198.0</ele><time>2026-04-26T07:37:29Z</time></trkpt><trkpt lat="46.31434932744086" lon="13.061905947341453"><ele>197.0</ele><time>2026-04-26T07:37:30Z</time></trkpt><trkpt lat="46.31447915362657" lon="13.062073111425951"><ele>197.0</ele><time>2026-04-26T07:37:31Z</time></trkpt><trkpt lat="46.31459422007378" lon="13.06222215463411"><ele>197.0</ele><time>2026-04-26T07:37:32Z</time></trkpt><trkpt lat="46.314701720036894" lon="13.062360829324712"><ele>197.0</ele><time>2026-04-26T07:37:33Z</time></trkpt><trkpt lat="46.31480795567247" lon="13.062504051555537"><ele>197.0</ele><time>2026-04-26T07:37:34Z</time></trkpt><trkpt lat="46.314917751579216" lon="13.062666805231906"><ele>197.66666666666669</ele><time>2026-04-26T07:37:35Z</time></trkpt><trkpt lat="46.31502307277625" lon="13.062849472300615"><ele>198.33333333333331</ele><time>2026-04-26T07:37:36Z</time></trkpt><trkpt lat="46.31512597361525" lon="13.063059326251315"><ele>199.0</ele><time>2026-04-26T07:37:37Z</time></trkpt><trkpt lat="46.31521539618362" lon="13.063285428645264"><ele>199.66666666666666</ele><time>2026-04-26T07:37:38Z</time></trkpt><trkpt lat="46.31530198108501" lon="13.06353920029282"><ele>200.33333333333331</ele><time>2026-04-26T07:37:39Z</time></trkpt><trkpt lat="46.315393216924946" lon="13.063817018998314"><ele>201.0</ele><time>2026-04-26T07:37:40Z</time></trkpt><trkpt lat="46.315473822753745" lon="13.064065160762027"><ele>201.33333333333331</ele><time>2026-04-26T07:37:41Z</time></trkpt><trkpt lat="46.31554420058923" lon="13.064281523026201"><ele>201.66666666666666</ele><time>2026-04-26T07:37:42Z</time></trkpt><trkpt lat="46.31562141537682" lon="13.064484804575828"><ele>202.0</ele><time>2026-04-26T07:37:43Z</time></trkpt><trkpt lat="46.315715270848905" lon="13.064687051781782"><ele>201.33333333333331</ele><time>2026-04-26T07:37:44Z</time></trkpt><trkpt lat="46.315833349452106" lon="13.06489835031117"><ele>200.66666666666669</ele><time>2026-04-26T07:37:45Z</time></trkpt><trkpt lat="46.31597069727331" lon="13.065119458091418"><ele>200.0</ele><time>2026-04-26T07:37:46Z</time></trkpt><trkpt lat="46.316121180080046" lon="13.06533888121006"><ele>200.0</ele><time>2026-04-26T07:37:47Z</time></trkpt><trkpt lat="46.316269817587795" lon="13.065545240146822"><ele>200.0</ele><time>2026-04-26T07:37:48Z</time></trkpt><trkpt lat="46.31640992223105" lon="13.065722538035974"><ele>200.0</ele><time>2026-04-26T07:37:49Z</time></trkpt><trkpt lat="46.31653276677448" lon="13.065891596520041"><ele>200.25</ele><time>2026-04-26T07:37:50Z</time></trkpt><trkpt lat="46.31664492100287" lon="13.066056281524753"><ele>200.5</ele><time>2026-04-26T07:37:51Z</time></trkpt><trkpt lat="46.31674408916956" lon="13.066208069648185"><ele>200.75</ele><time>2026-04-26T07:37:52Z</time></trkpt><trkpt lat="46.316837583528795" lon="13.066348906967809"><ele>201.0</ele><time>2026-04-26T07:37:53Z</time></trkpt><trkpt lat="46.31692407930225" lon="13.06647881173768"><ele>201.0</ele><time>2026-04-26T07:37:54Z</time></trkpt><trkpt lat="46.317010678475825" lon="13.066589856773598"><ele>201.0</ele><time>2026-04-26T07:37:55Z</time></trkpt><trkpt lat="46.31709660841773" lon="13.066684737241607"><ele>201.0</ele><time>2026-04-26T07:37:56Z</time></trkpt><trkpt lat="46.31716014042748" lon="13.066801622812461"><ele>201.0</ele><time>2026-04-26T07:37:57Z</time></trkpt><trkpt lat="46.317227366431666" lon="13.066896274398776"><ele>201.0</ele><time>2026-04-26T07:37:58Z</time></trkpt><trkpt lat="46.31729730540833" lon="13.066963347830441"><ele>200.0</ele><time>2026-04-26T07:37:59Z</time></trkpt><trkpt lat="46.317350870051676" lon="13.067036167155813"><ele>199.0</ele><time>2026-04-26T07:38:00Z</time></trkpt><trkpt lat="46.31739350198454" lon="13.06712340185444"><ele>198.0</ele><time>2026-04-26T07:38:01Z</time></trkpt><trkpt lat="46.317549743111606" lon="13.067002792737307"><ele>197.0</ele><time>2026-04-26T07:38:03Z</time></trkpt><trkpt lat="46.317634581141" lon="13.066932603531228"><ele>196.0</ele><time>2026-04-26T07:38:04Z</time></trkpt><trkpt lat="46.317737389045696" lon="13.06684754734484"><ele>196.0</ele><time>2026-04-26T07:38:05Z</time></trkpt><trkpt lat="46.317832641247094" lon="13.066764346454283"><ele>196.0</ele><time>2026-04-26T07:38:06Z</time></trkpt><trkpt lat="46.31791502808126" lon="13.066673355894284"><ele>196.0</ele><time>2026-04-26T07:38:07Z</time></trkpt><trkpt lat="46.31799560839223" lon="13.066588503351463"><ele>196.0</ele><time>2026-04-26T07:38:08Z</time></trkpt><trkpt lat="46.31806843985726" lon="13.066496979562665"><ele>196.0</ele><time>2026-04-26T07:38:09Z</time></trkpt><trkpt lat="46.31813714102046" lon="13.06639980225913"><ele>195.5</ele><time>2026-04-26T07:38:10Z</time></trkpt><trkpt lat="46.31819796519481" lon="13.066274737696162"><ele>195.0</ele><time>2026-04-26T07:38:11Z</time></trkpt><trkpt lat="46.318267103290516" lon="13.066139832913908"><ele>194.5</ele><time>2026-04-26T07:38:12Z</time></trkpt><trkpt lat="46.31829998422225" lon="13.065972610538001"><ele>194.0</ele><time>2026-04-26T07:38:13Z</time></trkpt><trkpt lat="46.31835109845661" lon="13.065808684753296"><ele>194.5</ele><time>2026-04-26T07:38:14Z</time></trkpt><trkpt lat="46.3183992201665" lon="13.065643319082666"><ele>195.0</ele><time>2026-04-26T07:38:15Z</time></trkpt><trkpt lat="46.31844347852971" lon="13.06548565055118"><ele>195.5</ele><time>2026-04-26T07:38:16Z</time></trkpt><trkpt lat="46.318486563196615" lon="13.065324813244626"><ele>196.0</ele><time>2026-04-26T07:38:17Z</time></trkpt><trkpt lat="46.31853003167946" lon="13.065155375721908"><ele>196.0</ele><time>2026-04-26T07:38:18Z</time></trkpt><trkpt lat="46.31857499339684" lon="13.064989881249035"><ele>196.0</ele><time>2026-04-26T07:38:19Z</time></trkpt><trkpt lat="46.31862385007773" lon="13.064828297008185"><ele>196.0</ele><time>2026-04-26T07:38:20Z</time></trkpt><trkpt lat="46.318679171750276" lon="13.064674862602018"><ele>196.0</ele><time>2026-04-26T07:38:21Z</time></trkpt><trkpt lat="46.31874681660082" lon="13.064546926079842"><ele>196.0</ele><time>2026-04-26T07:38:22Z</time></trkpt><trkpt lat="46.318825013021694" lon="13.064442398507742"><ele>196.0</ele><time>2026-04-26T07:38:23Z</time></trkpt><trkpt lat="46.3189068883289" lon="13.064343699470802"><ele>196.0</ele><time>2026-04-26T07:38:24Z</time></trkpt><trkpt lat="46.318998741714175" lon="13.064265926741104"><ele>196.0</ele><time>2026-04-26T07:38:25Z</time></trkpt><trkpt lat="46.31909991653839" lon="13.06421474980614"><ele>196.0</ele><time>2026-04-26T07:38:26Z</time></trkpt><trkpt lat="46.31921667222781" lon="13.064183675294569"><ele>195.5</ele><time>2026-04-26T07:38:27Z</time></trkpt><trkpt lat="46.3193436125942" lon="13.064168944731987"><ele>195.0</ele><time>2026-04-26T07:38:28Z</time></trkpt><trkpt lat="46.319476124771754" lon="13.064151869614216"><ele>194.5</ele><time>2026-04-26T07:38:29Z</time></trkpt><trkpt lat="46.31960780788423" lon="13.064138986743137"><ele>194.0</ele><time>2026-04-26T07:38:30Z</time></trkpt><trkpt lat="46.31972525387077" lon="13.064137799864904"><ele>193.75</ele><time>2026-04-26T07:38:31Z</time></trkpt><trkpt lat="46.31983745360156" lon="13.064150607212417"><ele>193.5</ele><time>2026-04-26T07:38:32Z</time></trkpt><trkpt lat="46.319951556759946" lon="13.064184596556158"><ele>193.25</ele><time>2026-04-26T07:38:33Z</time></trkpt><trkpt lat="46.320077188114205" lon="13.064231519251994"><ele>193.0</ele><time>2026-04-26T07:38:34Z</time></trkpt><trkpt lat="46.32020248593085" lon="13.064293604672725"><ele>193.0</ele><time>2026-04-26T07:38:35Z</time></trkpt><trkpt lat="46.32033741428011" lon="13.064365390717764"><ele>193.0</ele><time>2026-04-26T07:38:36Z</time></trkpt><trkpt lat="46.32047499815984" lon="13.064438208105466"><ele>193.0</ele><time>2026-04-26T07:38:37Z</time></trkpt><trkpt lat="46.32060940370628" lon="13.064504737195165"><ele>193.0</ele><time>2026-04-26T07:38:38Z</time></trkpt><trkpt lat="46.320736478891895" lon="13.064564636366981"><ele>193.75</ele><time>2026-04-26T07:38:39Z</time></trkpt><trkpt lat="46.320852408174076" lon="13.06462077262542"><ele>194.5</ele><time>2026-04-26T07:38:40Z</time></trkpt><trkpt lat="46.32096499067451" lon="13.064674727745265"><ele>195.25</ele><time>2026-04-26T07:38:41Z</time></trkpt><trkpt lat="46.321078815572186" lon="13.064724388394156"><ele>196.0</ele><time>2026-04-26T07:38:42Z</time></trkpt><trkpt lat="46.321191878854144" lon="13.064770557591581"><ele>196.0</ele><time>2026-04-26T07:38:43Z</time></trkpt><trkpt lat="46.32130643165739" lon="13.064811481473814"><ele>196.0</ele><time>2026-04-26T07:38:44Z</time></trkpt><trkpt lat="46.321422483042305" lon="13.06485257594907"><ele>196.0</ele><time>2026-04-26T07:38:45Z</time></trkpt><trkpt lat="46.32153893958819" lon="13.064893337294107"><ele>196.0</ele><time>2026-04-26T07:38:46Z</time></trkpt><trkpt lat="46.32165773973475" lon="13.064929900441234"><ele>196.0</ele><time>2026-04-26T07:38:47Z</time></trkpt><trkpt lat="46.321778968083635" lon="13.064956375435022"><ele>196.0</ele><time>2026-04-26T07:38:48Z</time></trkpt><trkpt lat="46.32189569646648" lon="13.064975905394588"><ele>196.0</ele><time>2026-04-26T07:38:49Z</time></trkpt><trkpt lat="46.32200798463695" lon="13.064997087906832"><ele>196.0</ele><time>2026-04-26T07:38:50Z</time></trkpt><trkpt lat="46.32211736993304" lon="13.06501759687938"><ele>196.0</ele><time>2026-04-26T07:38:51Z</time></trkpt><trkpt lat="46.32222710271706" lon="13.065035332812807"><ele>196.0</ele><time>2026-04-26T07:38:52Z</time></trkpt><trkpt lat="46.32233641823332" lon="13.065055872697414"><ele>196.0</ele><time>2026-04-26T07:38:53Z</time></trkpt><trkpt lat="46.322442440392656" lon="13.065089976563055"><ele>196.0</ele><time>2026-04-26T07:38:54Z</time></trkpt><trkpt lat="46.322541648352974" lon="13.065138809160647"><ele>196.0</ele><time>2026-04-26T07:38:55Z</time></trkpt><trkpt lat="46.322640477836444" lon="13.06519427121333"><ele>196.20000000000002</ele><time>2026-04-26T07:38:56Z</time></trkpt><trkpt lat="46.322736851876435" lon="13.065255472900754"><ele>196.4</ele><time>2026-04-26T07:38:57Z</time></trkpt><trkpt lat="46.32282846895119" lon="13.06533043454055"><ele>196.6</ele><time>2026-04-26T07:38:58Z</time></trkpt><trkpt lat="46.322909048760344" lon="13.065423395754143"><ele>196.8</ele><time>2026-04-26T07:38:59Z</time></trkpt><trkpt lat="46.32298331188585" lon="13.06552604480671"><ele>197.0</ele><time>2026-04-26T07:39:00Z</time></trkpt><trkpt lat="46.32305963021849" lon="13.065621474001974"><ele>196.8</ele><time>2026-04-26T07:39:01Z</time></trkpt><trkpt lat="46.32315054684415" lon="13.065697130651175"><ele>196.6</ele><time>2026-04-26T07:39:02Z</time></trkpt><trkpt lat="46.323234581128226" lon="13.065748530894629"><ele>196.4</ele><time>2026-04-26T07:39:03Z</time></trkpt><trkpt lat="46.32331433537649" lon="13.065787852493822"><ele>196.20000000000002</ele><time>2026-04-26T07:39:04Z</time></trkpt><trkpt lat="46.32340473045986" lon="13.065818049345681"><ele>196.0</ele><time>2026-04-26T07:39:05Z</time></trkpt><trkpt lat="46.32349532216358" lon="13.065828930857808"><ele>195.5</ele><time>2026-04-26T07:39:06Z</time></trkpt><trkpt lat="46.3236017123819" lon="13.06584827248621"><ele>195.0</ele><time>2026-04-26T07:39:08Z</time></trkpt><trkpt lat="46.323690639005044" lon="13.065880811077749"><ele>194.5</ele><time>2026-04-26T07:39:10Z</time></trkpt><trkpt lat="46.323908053372215" lon="13.065942310806479"><ele>194.0</ele><time>2026-04-26T07:39:12Z</time></trkpt><trkpt lat="46.324010305413935" lon="13.06601856662317"><ele>194.00000000000003</ele><time>2026-04-26T07:39:14Z</time></trkpt><trkpt lat="46.32408270986112" lon="13.066065573585153"><ele>194.0</ele><time>2026-04-26T07:39:16Z</time></trkpt><trkpt lat="46.32414831102317" lon="13.066128361748083"><ele>194.0</ele><time>2026-04-26T07:39:18Z</time></trkpt><trkpt lat="46.324205113507" lon="13.066204366133725"><ele>194.0</ele><time>2026-04-26T07:39:20Z</time></trkpt><trkpt lat="46.324264429414896" lon="13.06628634916121"><ele>194.00000000000003</ele><time>2026-04-26T07:39:23Z</time></trkpt><trkpt lat="46.324324203899245" lon="13.066319862466631"><ele>194.0</ele><time>2026-04-26T07:39:27Z</time></trkpt><trkpt lat="46.324262076884" lon="13.066272339382357"><ele>194.0</ele><time>2026-04-26T07:42:50Z</time></trkpt><trkpt lat="46.32421323289261" lon="13.066204362135023"><ele>194.0</ele><time>2026-04-26T07:42:58Z</time></trkpt><trkpt lat="46.324161106520414" lon="13.066152305285943"><ele>194.0</ele><time>2026-04-26T07:43:04Z</time></trkpt><trkpt lat="46.32411296913196" lon="13.066091710644317"><ele>194.0</ele><time>2026-04-26T07:43:11Z</time></trkpt><trkpt lat="46.32416258819037" lon="13.06595659488396"><ele>194.0</ele><time>2026-04-26T07:43:14Z</time></trkpt><trkpt lat="46.32415342123286" lon="13.06586553201585"><ele>194.0</ele><time>2026-04-26T07:43:19Z</time></trkpt><trkpt lat="46.32419376452227" lon="13.065786293097382"><ele>194.0</ele><time>2026-04-26T07:43:31Z</time></trkpt><trkpt lat="46.32411411128579" lon="13.065909143730488"><ele>194.0</ele><time>2026-04-26T07:43:52Z</time></trkpt><trkpt lat="46.32406071270905" lon="13.065844248992066"><ele>194.0</ele><time>2026-04-26T07:43:55Z</time></trkpt><trkpt lat="46.32411158873882" lon="13.065905264701334"><ele>194.0</ele><time>2026-04-26T07:44:02Z</time></trkpt><trkpt lat="46.32413010435629" lon="13.066047106693595"><ele>194.0</ele><time>2026-04-26T07:44:05Z</time></trkpt><trkpt lat="46.324239080621695" lon="13.065919499872855"><ele>194.0</ele><time>2026-04-26T07:45:30Z</time></trkpt><trkpt lat="46.324081422579305" lon="13.065931773306843"><ele>194.0</ele><time>2026-04-26T07:45:32Z</time></trkpt><trkpt lat="46.324137220017256" lon="13.065994636174782"><ele>194.0</ele><time>2026-04-26T07:45:37Z</time></trkpt><trkpt lat="46.32418653661907" lon="13.066067051417832"><ele>194.0</ele><time>2026-04-26T07:45:55Z</time></trkpt><trkpt lat="46.324222214908815" lon="13.066148597543565"><ele>194.0</ele><time>2026-04-26T07:46:01Z</time></trkpt><trkpt lat="46.32424149002824" lon="13.066246684895289"><ele>194.0</ele><time>2026-04-26T07:46:07Z</time></trkpt><trkpt lat="46.324273269781685" lon="13.066342336540568"><ele>194.0</ele><time>2026-04-26T07:46:13Z</time></trkpt><trkpt lat="46.32421568614732" lon="13.066289422558786"><ele>194.0</ele><time>2026-04-26T07:54:06Z</time></trkpt><trkpt lat="46.32418417640514" lon="13.06614417366315"><ele>194.0</ele><time>2026-04-26T07:54:08Z</time></trkpt><trkpt lat="46.32413838282934" lon="13.066073163289365"><ele>194.0</ele><time>2026-04-26T07:54:10Z</time></trkpt><trkpt lat="46.32402741601277" lon="13.066029526061838"><ele>194.0</ele><time>2026-04-26T07:54:13Z</time></trkpt><trkpt lat="46.32392303328101" lon="13.06596867490064"><ele>194.0</ele><time>2026-04-26T07:54:15Z</time></trkpt><trkpt lat="46.32385874280072" lon="13.065928635574345"><ele>194.0</ele><time>2026-04-26T07:54:16Z</time></trkpt><trkpt lat="46.32379177752454" lon="13.065844077104694"><ele>194.00000000000003</ele><time>2026-04-26T07:54:17Z</time></trkpt><trkpt lat="46.32372340193478" lon="13.065826503043573"><ele>194.0</ele><time>2026-04-26T07:54:18Z</time></trkpt><trkpt lat="46.323655653304215" lon="13.065819145683866"><ele>194.0</ele><time>2026-04-26T07:54:19Z</time></trkpt><trkpt lat="46.32357245804514" lon="13.06582734801917"><ele>194.0</ele><time>2026-04-26T07:54:20Z</time></trkpt><trkpt lat="46.32347668469614" lon="13.065803498472597"><ele>194.00000000000003</ele><time>2026-04-26T07:54:21Z</time></trkpt><trkpt lat="46.323373793870985" lon="13.065780124286428"><ele>194.0</ele><time>2026-04-26T07:54:22Z</time></trkpt><trkpt lat="46.32328062595621" lon="13.065746346966357"><ele>194.39999999999998</ele><time>2026-04-26T07:54:23Z</time></trkpt><trkpt lat="46.32319850063456" lon="13.065688435907266"><ele>194.8</ele><time>2026-04-26T07:54:24Z</time></trkpt><trkpt lat="46.32311209838319" lon="13.065606813395567"><ele>195.2</ele><time>2026-04-26T07:54:25Z</time></trkpt><trkpt lat="46.32303431437673" lon="13.065509553735183"><ele>195.60000000000002</ele><time>2026-04-26T07:54:26Z</time></trkpt><trkpt lat="46.32296007405271" lon="13.065406835404378"><ele>196.0</ele><time>2026-04-26T07:54:27Z</time></trkpt><trkpt lat="46.32288185315855" lon="13.065308896826297"><ele>196.20000000000002</ele><time>2026-04-26T07:54:28Z</time></trkpt><trkpt lat="46.32279755172926" lon="13.065231848765334"><ele>196.4</ele><time>2026-04-26T07:54:29Z</time></trkpt><trkpt lat="46.322701579683596" lon="13.065168578961378"><ele>196.6</ele><time>2026-04-26T07:54:30Z</time></trkpt><trkpt lat="46.322592196618416" lon="13.065115218537285"><ele>196.8</ele><time>2026-04-26T07:54:31Z</time></trkpt><trkpt lat="46.32247629569703" lon="13.065065874260178"><ele>197.0</ele><time>2026-04-26T07:54:32Z</time></trkpt><trkpt lat="46.32236029882276" lon="13.065029016323605"><ele>197.0</ele><time>2026-04-26T07:54:33Z</time></trkpt><trkpt lat="46.322240774612325" lon="13.065004217846298"><ele>197.0</ele><time>2026-04-26T07:54:34Z</time></trkpt><trkpt lat="46.32210849123933" lon="13.064980696050984"><ele>197.0</ele><time>2026-04-26T07:54:35Z</time></trkpt><trkpt lat="46.3219769209528" lon="13.064962876274437"><ele>197.0</ele><time>2026-04-26T07:54:36Z</time></trkpt><trkpt lat="46.321866605898165" lon="13.064937488540094"><ele>197.75</ele><time>2026-04-26T07:54:37Z</time></trkpt><trkpt lat="46.3217623115376" lon="13.06491385777186"><ele>198.5</ele><time>2026-04-26T07:54:38Z</time></trkpt><trkpt lat="46.3216599370849" lon="13.064886533733484"><ele>199.25</ele><time>2026-04-26T07:54:39Z</time></trkpt><trkpt lat="46.32154397090842" lon="13.064858111460518"><ele>200.0</ele><time>2026-04-26T07:54:40Z</time></trkpt><trkpt lat="46.32142263331774" lon="13.064824743663936"><ele>199.0</ele><time>2026-04-26T07:54:41Z</time></trkpt><trkpt lat="46.321297190153366" lon="13.064781856498474"><ele>198.0</ele><time>2026-04-26T07:54:42Z</time></trkpt><trkpt lat="46.32116041611275" lon="13.064720595857914"><ele>197.0</ele><time>2026-04-26T07:54:43Z</time></trkpt><trkpt lat="46.32102879331042" lon="13.064657650255095"><ele>196.0</ele><time>2026-04-26T07:54:44Z</time></trkpt><trkpt lat="46.32091305871759" lon="13.064596401727027"><ele>196.0</ele><time>2026-04-26T07:54:45Z</time></trkpt><trkpt lat="46.32080742596744" lon="13.06454383045964"><ele>196.0</ele><time>2026-04-26T07:54:46Z</time></trkpt><trkpt lat="46.320707895427525" lon="13.064501986514832"><ele>196.0</ele><time>2026-04-26T07:54:47Z</time></trkpt><trkpt lat="46.32060527944827" lon="13.064452449206046"><ele>196.0</ele><time>2026-04-26T07:54:48Z</time></trkpt><trkpt lat="46.32049253700257" lon="13.064396789901638"><ele>196.0</ele><time>2026-04-26T07:54:49Z</time></trkpt><trkpt lat="46.32037241045797" lon="13.064337661079382"><ele>195.25</ele><time>2026-04-26T07:54:50Z</time></trkpt><trkpt lat="46.320249610908284" lon="13.064274275914805"><ele>194.5</ele><time>2026-04-26T07:54:51Z</time></trkpt><trkpt lat="46.320122977250044" lon="13.064209374967419"><ele>193.75</ele><time>2026-04-26T07:54:52Z</time></trkpt><trkpt lat="46.3200013947783" lon="13.064153565286672"><ele>193.0</ele><time>2026-04-26T07:54:53Z</time></trkpt><trkpt lat="46.31988082221916" lon="13.064114918675585"><ele>193.25</ele><time>2026-04-26T07:54:54Z</time></trkpt><trkpt lat="46.319755072134015" lon="13.064092837937533"><ele>193.5</ele><time>2026-04-26T07:54:55Z</time></trkpt><trkpt lat="46.31961155969707" lon="13.064093435752563"><ele>193.75</ele><time>2026-04-26T07:54:56Z</time></trkpt><trkpt lat="46.319478574628775" lon="13.064104739090592"><ele>194.0</ele><time>2026-04-26T07:54:57Z</time></trkpt><trkpt lat="46.31936013104674" lon="13.064116263064356"><ele>194.0</ele><time>2026-04-26T07:54:58Z</time></trkpt><trkpt lat="46.319247852668745" lon="13.06413146793385"><ele>194.0</ele><time>2026-04-26T07:54:59Z</time></trkpt><trkpt lat="46.31913605114885" lon="13.064157205860502"><ele>194.0</ele><time>2026-04-26T07:55:00Z</time></trkpt><trkpt lat="46.31902648389268" lon="13.064203579542367"><ele>194.0</ele><time>2026-04-26T07:55:01Z</time></trkpt><trkpt lat="46.31891150971771" lon="13.064254306713059"><ele>194.5</ele><time>2026-04-26T07:55:02Z</time></trkpt><trkpt lat="46.31880629950461" lon="13.064385438145782"><ele>195.0</ele><time>2026-04-26T07:55:03Z</time></trkpt><trkpt lat="46.31871283929604" lon="13.064532330455991"><ele>195.5</ele><time>2026-04-26T07:55:04Z</time></trkpt><trkpt lat="46.31863054554236" lon="13.064703843115009"><ele>196.0</ele><time>2026-04-26T07:55:05Z</time></trkpt><trkpt lat="46.31857202049439" lon="13.064897949784813"><ele>196.0</ele><time>2026-04-26T07:55:06Z</time></trkpt><trkpt lat="46.318521751734735" lon="13.065084669174633"><ele>196.0</ele><time>2026-04-26T07:55:07Z</time></trkpt><trkpt lat="46.31847175450212" lon="13.065270429356767"><ele>196.0</ele><time>2026-04-26T07:55:08Z</time></trkpt><trkpt lat="46.31843698291062" lon="13.065462425383455"><ele>196.0</ele><time>2026-04-26T07:55:09Z</time></trkpt><trkpt lat="46.318389168935475" lon="13.06564160986281"><ele>195.5</ele><time>2026-04-26T07:55:10Z</time></trkpt><trkpt lat="46.3183404461382" lon="13.065810171037569"><ele>195.0</ele><time>2026-04-26T07:55:11Z</time></trkpt><trkpt lat="46.31829321321399" lon="13.065964157076923"><ele>194.5</ele><time>2026-04-26T07:55:12Z</time></trkpt><trkpt lat="46.31824638360594" lon="13.066108868589716"><ele>194.0</ele><time>2026-04-26T07:55:13Z</time></trkpt><trkpt lat="46.318193950796854" lon="13.066244687023014"><ele>194.0</ele><time>2026-04-26T07:55:14Z</time></trkpt><trkpt lat="46.31813058699202" lon="13.066372686698005"><ele>194.0</ele><time>2026-04-26T07:55:15Z</time></trkpt><trkpt lat="46.318054451649076" lon="13.066481611738501"><ele>194.0</ele><time>2026-04-26T07:55:16Z</time></trkpt><trkpt lat="46.31796858653862" lon="13.066569723523138"><ele>194.0</ele><time>2026-04-26T07:55:17Z</time></trkpt><trkpt lat="46.31787792051311" lon="13.06664623139424"><ele>194.0</ele><time>2026-04-26T07:55:18Z</time></trkpt><trkpt lat="46.31778988230595" lon="13.066687147910088"><ele>194.33333333333334</ele><time>2026-04-26T07:55:19Z</time></trkpt><trkpt lat="46.31772359033705" lon="13.066745783608896"><ele>194.66666666666669</ele><time>2026-04-26T07:55:20Z</time></trkpt><trkpt lat="46.31766539688101" lon="13.066796230886872"><ele>195.0</ele><time>2026-04-26T07:55:21Z</time></trkpt><trkpt lat="46.317578464956036" lon="13.066871752694405"><ele>195.33333333333331</ele><time>2026-04-26T07:55:23Z</time></trkpt><trkpt lat="46.31749548984874" lon="13.0669393118852"><ele>195.66666666666666</ele><time>2026-04-26T07:55:25Z</time></trkpt><trkpt lat="46.3174175169995" lon="13.066968746189733"><ele>196.0</ele><time>2026-04-26T07:55:27Z</time></trkpt><trkpt lat="46.317390975343166" lon="13.06709956644272"><ele>196.0</ele><time>2026-04-26T07:55:38Z</time></trkpt><trkpt lat="46.317467107352336" lon="13.06722809820348"><ele>196.0</ele><time>2026-04-26T07:55:39Z</time></trkpt><trkpt lat="46.31755072775626" lon="13.06732876926186"><ele>196.0</ele><time>2026-04-26T07:55:40Z</time></trkpt><trkpt lat="46.31766048835929" lon="13.067466355970247"><ele>196.0</ele><time>2026-04-26T07:55:41Z</time></trkpt><trkpt lat="46.317812378121396" lon="13.067655568783708"><ele>197.33333333333331</ele><time>2026-04-26T07:55:42Z</time></trkpt><trkpt lat="46.31798433584096" lon="13.067858907828061"><ele>198.66666666666669</ele><time>2026-04-26T07:55:43Z</time></trkpt><trkpt lat="46.318128012738434" lon="13.068028052779523"><ele>200.0</ele><time>2026-04-26T07:55:44Z</time></trkpt><trkpt lat="46.31826562522757" lon="13.068173601147713"><ele>204.33333333333334</ele><time>2026-04-26T07:55:45Z</time></trkpt><trkpt lat="46.31839823142908" lon="13.068307981782555"><ele>208.66666666666669</ele><time>2026-04-26T07:55:46Z</time></trkpt><trkpt lat="46.318539359912535" lon="13.068449743466962"><ele>213.0</ele><time>2026-04-26T07:55:47Z</time></trkpt><trkpt lat="46.31869098870843" lon="13.068599498811446"><ele>213.0</ele><time>2026-04-26T07:55:48Z</time></trkpt><trkpt lat="46.31884491278232" lon="13.068750709549894"><ele>213.0</ele><time>2026-04-26T07:55:49Z</time></trkpt><trkpt lat="46.318980820926" lon="13.068879871075614"><ele>213.0</ele><time>2026-04-26T07:55:50Z</time></trkpt><trkpt lat="46.31910685737963" lon="13.068997570628083"><ele>209.66666666666669</ele><time>2026-04-26T07:55:51Z</time></trkpt><trkpt lat="46.319235085109796" lon="13.06911406225883"><ele>206.33333333333334</ele><time>2026-04-26T07:55:52Z</time></trkpt><trkpt lat="46.31936693655448" lon="13.069234129233708"><ele>203.0</ele><time>2026-04-26T07:55:53Z</time></trkpt><trkpt lat="46.31948749571964" lon="13.069344589767413"><ele>203.0</ele><time>2026-04-26T07:55:54Z</time></trkpt><trkpt lat="46.31960024865768" lon="13.069443092248767"><ele>203.0</ele><time>2026-04-26T07:55:55Z</time></trkpt><trkpt lat="46.31970733044687" lon="13.069541724400606"><ele>203.0</ele><time>2026-04-26T07:55:56Z</time></trkpt><trkpt lat="46.31980076447801" lon="13.069632921787354"><ele>203.0</ele><time>2026-04-26T07:55:57Z</time></trkpt><trkpt lat="46.31988916218478" lon="13.069727439131526"><ele>202.75</ele><time>2026-04-26T07:55:58Z</time></trkpt><trkpt lat="46.31997324245026" lon="13.069824755281127"><ele>202.5</ele><time>2026-04-26T07:55:59Z</time></trkpt><trkpt lat="46.32006107550846" lon="13.069936520737226"><ele>202.25</ele><time>2026-04-26T07:56:00Z</time></trkpt><trkpt lat="46.320165602152436" lon="13.070066347587238"><ele>202.0</ele><time>2026-04-26T07:56:01Z</time></trkpt><trkpt lat="46.32027189028772" lon="13.070197955162223"><ele>202.0</ele><time>2026-04-26T07:56:02Z</time></trkpt><trkpt lat="46.32040487014669" lon="13.070369356996606"><ele>202.0</ele><time>2026-04-26T07:56:03Z</time></trkpt><trkpt lat="46.32056938525044" lon="13.070561830124156"><ele>202.0</ele><time>2026-04-26T07:56:04Z</time></trkpt><trkpt lat="46.32073904256715" lon="13.070762587863937"><ele>201.33333333333331</ele><time>2026-04-26T07:56:05Z</time></trkpt><trkpt lat="46.32088144170338" lon="13.070943577302506"><ele>200.66666666666669</ele><time>2026-04-26T07:56:06Z</time></trkpt><trkpt lat="46.32101112165249" lon="13.071118312483739"><ele>200.0</ele><time>2026-04-26T07:56:07Z</time></trkpt><trkpt lat="46.321156125115074" lon="13.071325352562761"><ele>200.0</ele><time>2026-04-26T07:56:08Z</time></trkpt><trkpt lat="46.321312340646436" lon="13.071569813227416"><ele>200.0</ele><time>2026-04-26T07:56:09Z</time></trkpt><trkpt lat="46.32148450116613" lon="13.071848738024068"><ele>201.0</ele><time>2026-04-26T07:56:10Z</time></trkpt><trkpt lat="46.321671447544304" lon="13.072158500278892"><ele>202.0</ele><time>2026-04-26T07:56:11Z</time></trkpt><trkpt lat="46.321880655542756" lon="13.072498054747077"><ele>197.0</ele><time>2026-04-26T07:56:12Z</time></trkpt><trkpt lat="46.322101641827494" lon="13.072870551277619"><ele>192.0</ele><time>2026-04-26T07:56:13Z</time></trkpt><trkpt lat="46.32231455583886" lon="13.07324565532918"><ele>196.5</ele><time>2026-04-26T07:56:14Z</time></trkpt><trkpt lat="46.32249955421496" lon="13.07357747342935"><ele>201.0</ele><time>2026-04-26T07:56:15Z</time></trkpt><trkpt lat="46.32266294907346" lon="13.073875364835477"><ele>214.5</ele><time>2026-04-26T07:56:16Z</time></trkpt><trkpt lat="46.32281655829399" lon="13.074147349739839"><ele>228.0</ele><time>2026-04-26T07:56:17Z</time></trkpt><trkpt lat="46.3229609306948" lon="13.074401566577393"><ele>222.0</ele><time>2026-04-26T07:56:18Z</time></trkpt><trkpt lat="46.32308770737279" lon="13.074636207293649"><ele>216.0</ele><time>2026-04-26T07:56:19Z</time></trkpt><trkpt lat="46.32320249830206" lon="13.074848538137266"><ele>210.0</ele><time>2026-04-26T07:56:20Z</time></trkpt><trkpt lat="46.32331969017366" lon="13.075062132051801"><ele>210.0</ele><time>2026-04-26T07:56:21Z</time></trkpt><trkpt lat="46.32343799164082" lon="13.075275663082587"><ele>210.0</ele><time>2026-04-26T07:56:22Z</time></trkpt><trkpt lat="46.32356719766831" lon="13.075492105483002"><ele>210.0</ele><time>2026-04-26T07:56:23Z</time></trkpt><trkpt lat="46.3237040661833" lon="13.075701723777085"><ele>210.0</ele><time>2026-04-26T07:56:24Z</time></trkpt><trkpt lat="46.32385978312739" lon="13.07589337099697"><ele>210.0</ele><time>2026-04-26T07:56:25Z</time></trkpt><trkpt lat="46.32402978107427" lon="13.076080087987553"><ele>210.0</ele><time>2026-04-26T07:56:26Z</time></trkpt><trkpt lat="46.32418279448735" lon="13.076238721524808"><ele>210.0</ele><time>2026-04-26T07:56:27Z</time></trkpt><trkpt lat="46.32433100334679" lon="13.076393379598347"><ele>210.0</ele><time>2026-04-26T07:56:28Z</time></trkpt><trkpt lat="46.32448857763714" lon="13.076566776458678"><ele>210.0</ele><time>2026-04-26T07:56:29Z</time></trkpt><trkpt lat="46.32465151545354" lon="13.076774266049503"><ele>211.0</ele><time>2026-04-26T07:56:30Z</time></trkpt><trkpt lat="46.3248250415802" lon="13.07700885990304"><ele>212.0</ele><time>2026-04-26T07:56:31Z</time></trkpt><trkpt lat="46.32500188600813" lon="13.077240433944432"><ele>221.0</ele><time>2026-04-26T07:56:32Z</time></trkpt><trkpt lat="46.32515986649806" lon="13.077438570275449"><ele>230.0</ele><time>2026-04-26T07:56:33Z</time></trkpt><trkpt lat="46.32530181421771" lon="13.077619097326533"><ele>239.0</ele><time>2026-04-26T07:56:34Z</time></trkpt><trkpt lat="46.32543792257949" lon="13.077785830936813"><ele>229.66666666666669</ele><time>2026-04-26T07:56:35Z</time></trkpt><trkpt lat="46.325576971321745" lon="13.077953650698651"><ele>220.33333333333331</ele><time>2026-04-26T07:56:36Z</time></trkpt><trkpt lat="46.32570589945871" lon="13.078111643443945"><ele>211.0</ele><time>2026-04-26T07:56:37Z</time></trkpt><trkpt lat="46.32582015283625" lon="13.078250396869176"><ele>220.0</ele><time>2026-04-26T07:56:38Z</time></trkpt><trkpt lat="46.325932167532244" lon="13.0783775425653"><ele>229.0</ele><time>2026-04-26T07:56:39Z</time></trkpt><trkpt lat="46.32604878732939" lon="13.078501204728605"><ele>238.0</ele><time>2026-04-26T07:56:40Z</time></trkpt><trkpt lat="46.32617993459888" lon="13.078607255382163"><ele>247.0</ele><time>2026-04-26T07:56:41Z</time></trkpt><trkpt lat="46.32631294689124" lon="13.078702927492113"><ele>246.0</ele><time>2026-04-26T07:56:42Z</time></trkpt><trkpt lat="46.32642398259129" lon="13.078800426480294"><ele>245.0</ele><time>2026-04-26T07:56:43Z</time></trkpt><trkpt lat="46.3265184841305" lon="13.078926966641673"><ele>244.0</ele><time>2026-04-26T07:56:44Z</time></trkpt><trkpt lat="46.326614991661835" lon="13.079087204808019"><ele>243.0</ele><time>2026-04-26T07:56:45Z</time></trkpt><trkpt lat="46.32670121117675" lon="13.07923341275912"><ele>243.0</ele><time>2026-04-26T07:56:46Z</time></trkpt><trkpt lat="46.32677033979182" lon="13.079363560308611"><ele>243.0</ele><time>2026-04-26T07:56:47Z</time></trkpt><trkpt lat="46.32682567798129" lon="13.07950011166287"><ele>243.0</ele><time>2026-04-26T07:56:48Z</time></trkpt><trkpt lat="46.32684851600401" lon="13.079653163573793"><ele>243.0</ele><time>2026-04-26T07:56:49Z</time></trkpt><trkpt lat="46.326842756394534" lon="13.079821020586454"><ele>243.0</ele><time>2026-04-26T07:56:50Z</time></trkpt><trkpt lat="46.32680411398547" lon="13.079980841019816"><ele>244.75</ele><time>2026-04-26T07:56:51Z</time></trkpt><trkpt lat="46.326727016696786" lon="13.080142715370531"><ele>246.5</ele><time>2026-04-26T07:56:52Z</time></trkpt><trkpt lat="46.32667636390937" lon="13.08028757305731"><ele>248.25</ele><time>2026-04-26T07:56:53Z</time></trkpt><trkpt lat="46.32666016599679" lon="13.08044191095452"><ele>250.0</ele><time>2026-04-26T07:56:54Z</time></trkpt><trkpt lat="46.32667897711808" lon="13.080617580080357"><ele>249.5</ele><time>2026-04-26T07:56:55Z</time></trkpt><trkpt lat="46.32672143409907" lon="13.080799381839558"><ele>249.0</ele><time>2026-04-26T07:56:56Z</time></trkpt><trkpt lat="46.326791627059045" lon="13.080990673159512"><ele>248.5</ele><time>2026-04-26T07:56:57Z</time></trkpt><trkpt lat="46.326868709850096" lon="13.081182717854384"><ele>248.0</ele><time>2026-04-26T07:56:58Z</time></trkpt><trkpt lat="46.32694389787744" lon="13.081367971526598"><ele>248.0</ele><time>2026-04-26T07:56:59Z</time></trkpt><trkpt lat="46.327016825859964" lon="13.08153602386228"><ele>248.0</ele><time>2026-04-26T07:57:00Z</time></trkpt><trkpt lat="46.3270878304914" lon="13.08168423080542"><ele>248.0</ele><time>2026-04-26T07:57:01Z</time></trkpt><trkpt lat="46.32717389261179" lon="13.08184392190683"><ele>248.0</ele><time>2026-04-26T07:57:02Z</time></trkpt><trkpt lat="46.3272711096003" lon="13.082019004931707"><ele>247.0</ele><time>2026-04-26T07:57:03Z</time></trkpt><trkpt lat="46.327382522862614" lon="13.082206594542653"><ele>246.0</ele><time>2026-04-26T07:57:04Z</time></trkpt><trkpt lat="46.32750455037723" lon="13.082376200306625"><ele>245.0</ele><time>2026-04-26T07:57:05Z</time></trkpt><trkpt lat="46.32762445122716" lon="13.082528056383099"><ele>245.0</ele><time>2026-04-26T07:57:06Z</time></trkpt><trkpt lat="46.32774112148795" lon="13.082658460086659"><ele>245.0</ele><time>2026-04-26T07:57:07Z</time></trkpt><trkpt lat="46.327855870902205" lon="13.082770061963066"><ele>245.0</ele><time>2026-04-26T07:57:08Z</time></trkpt><trkpt lat="46.32798547335343" lon="13.0828913623016"><ele>245.0</ele><time>2026-04-26T07:57:09Z</time></trkpt><trkpt lat="46.32813816334578" lon="13.083015152439035"><ele>247.33333333333334</ele><time>2026-04-26T07:57:10Z</time></trkpt><trkpt lat="46.32830137081107" lon="13.083122553940745"><ele>249.66666666666669</ele><time>2026-04-26T07:57:11Z</time></trkpt><trkpt lat="46.32847137990387" lon="13.083218734008579"><ele>252.0</ele><time>2026-04-26T07:57:12Z</time></trkpt><trkpt lat="46.328644035248914" lon="13.083304049991948"><ele>260.6666666666667</ele><time>2026-04-26T07:57:13Z</time></trkpt><trkpt lat="46.328828190544016" lon="13.083373471492667"><ele>269.33333333333337</ele><time>2026-04-26T07:57:14Z</time></trkpt><trkpt lat="46.32901125121734" lon="13.08342542911958"><ele>278.0</ele><time>2026-04-26T07:57:15Z</time></trkpt><trkpt lat="46.32920570376547" lon="13.083473631830083"><ele>294.0</ele><time>2026-04-26T07:57:16.07Z</time></trkpt><trkpt lat="46.33130767542017" lon="13.082564354688246"><ele>265.5</ele><time>2026-04-26T07:57:21.042Z</time></trkpt><trkpt lat="46.331691075837995" lon="13.082226052138662"><ele>237.0</ele><time>2026-04-26T07:57:22.041Z</time></trkpt><trkpt lat="46.33207220054799" lon="13.081885426097514"><ele>218.0</ele><time>2026-04-26T07:57:23.038Z</time></trkpt><trkpt lat="46.332456912222376" lon="13.081543338146924"><ele>218.0</ele><time>2026-04-26T07:57:24.042Z</time></trkpt><trkpt lat="46.3328147" lon="13.0812308"><ele>218.0</ele><time>2026-04-26T07:57:25.042Z</time></trkpt><trkpt lat="46.33312582159565" lon="13.081025547372978"><ele>222.0</ele><time>2026-04-26T07:57:38Z</time></trkpt><trkpt lat="46.333278391412655" lon="13.08089704288653"><ele>226.0</ele><time>2026-04-26T07:57:39Z</time></trkpt><trkpt lat="46.333002664587376" lon="13.080620397508204"><ele>199.0</ele><time>2026-04-26T07:57:40Z</time></trkpt><trkpt lat="46.333615038967764" lon="13.080546539152836"><ele>199.0</ele><time>2026-04-26T07:57:41Z</time></trkpt><trkpt lat="46.33380495420376" lon="13.080432711213556"><ele>199.0</ele><time>2026-04-26T07:57:42Z</time></trkpt><trkpt lat="46.33399589484187" lon="13.08030428363944"><ele>199.0</ele><time>2026-04-26T07:57:43Z</time></trkpt><trkpt lat="46.33420697342679" lon="13.080198413889573"><ele>202.66666666666666</ele><time>2026-04-26T07:57:44Z</time></trkpt><trkpt lat="46.33440691677212" lon="13.080084309734035"><ele>206.33333333333331</ele><time>2026-04-26T07:57:45Z</time></trkpt><trkpt lat="46.334589438647306" lon="13.079988760670918"><ele>210.0</ele><time>2026-04-26T07:57:46Z</time></trkpt><trkpt lat="46.33477090531074" lon="13.079911454138378"><ele>210.0</ele><time>2026-04-26T07:57:47Z</time></trkpt><trkpt lat="46.334979012727544" lon="13.079832564915037"><ele>210.0</ele><time>2026-04-26T07:57:48Z</time></trkpt><trkpt lat="46.33518059330068" lon="13.079738379668326"><ele>210.0</ele><time>2026-04-26T07:57:49Z</time></trkpt><trkpt lat="46.33538500707954" lon="13.079622465542435"><ele>208.5</ele><time>2026-04-26T07:57:50Z</time></trkpt><trkpt lat="46.335605047882744" lon="13.079493906315953"><ele>207.0</ele><time>2026-04-26T07:57:51Z</time></trkpt><trkpt lat="46.335823168054425" lon="13.07935279723397"><ele>207.0</ele><time>2026-04-26T07:57:52Z</time></trkpt><trkpt lat="46.33603423599732" lon="13.07921211452986"><ele>207.0</ele><time>2026-04-26T07:57:53Z</time></trkpt><trkpt lat="46.33625767168749" lon="13.079083340071444"><ele>200.0</ele><time>2026-04-26T07:57:54Z</time></trkpt><trkpt lat="46.336501855809765" lon="13.07896097882307"><ele>193.0</ele><time>2026-04-26T07:57:55Z</time></trkpt><trkpt lat="46.336765791273336" lon="13.07883964469432"><ele>193.0</ele><time>2026-04-26T07:57:56Z</time></trkpt><trkpt lat="46.337039482624256" lon="13.078720132582527"><ele>193.0</ele><time>2026-04-26T07:57:57Z</time></trkpt><trkpt lat="46.337323453166" lon="13.078589918302345"><ele>197.0</ele><time>2026-04-26T07:57:58Z</time></trkpt><trkpt lat="46.33758615043062" lon="13.078468611519696"><ele>201.0</ele><time>2026-04-26T07:57:59Z</time></trkpt><trkpt lat="46.33782630750107" lon="13.078362767971305"><ele>201.0</ele><time>2026-04-26T07:58:00Z</time></trkpt><trkpt lat="46.338051513063064" lon="13.078268457166567"><ele>201.0</ele><time>2026-04-26T07:58:01Z</time></trkpt><trkpt lat="46.33826949598156" lon="13.078179246367082"><ele>200.33333333333331</ele><time>2026-04-26T07:58:02Z</time></trkpt><trkpt lat="46.33848070510903" lon="13.078085248304781"><ele>199.66666666666666</ele><time>2026-04-26T07:58:03Z</time></trkpt><trkpt lat="46.33868873180634" lon="13.077998277744314"><ele>199.0</ele><time>2026-04-26T07:58:04Z</time></trkpt><trkpt lat="46.33889091359915" lon="13.077917857640491"><ele>199.0</ele><time>2026-04-26T07:58:05Z</time></trkpt><trkpt lat="46.33906965724375" lon="13.077847746033797"><ele>199.0</ele><time>2026-04-26T07:58:06Z</time></trkpt><trkpt lat="46.339224473734625" lon="13.077786423401735"><ele>199.0</ele><time>2026-04-26T07:58:07Z</time></trkpt><trkpt lat="46.33936677483185" lon="13.077719543552641"><ele>199.0</ele><time>2026-04-26T07:58:08Z</time></trkpt><trkpt lat="46.3394966626508" lon="13.077571520928952"><ele>199.0</ele><time>2026-04-26T07:58:09Z</time></trkpt><trkpt lat="46.339617305500276" lon="13.077443185978597"><ele>199.0</ele><time>2026-04-26T07:58:10Z</time></trkpt><trkpt lat="46.33972782552393" lon="13.077297869184612"><ele>199.66666666666666</ele><time>2026-04-26T07:58:11Z</time></trkpt><trkpt lat="46.33983312390241" lon="13.077125708282837"><ele>200.33333333333331</ele><time>2026-04-26T07:58:12Z</time></trkpt><trkpt lat="46.33993323956553" lon="13.076925505998366"><ele>201.0</ele><time>2026-04-26T07:58:13Z</time></trkpt><trkpt lat="46.340026362234326" lon="13.076709797830457"><ele>199.0</ele><time>2026-04-26T07:58:14Z</time></trkpt><trkpt lat="46.34012064391024" lon="13.07651104799545"><ele>197.0</ele><time>2026-04-26T07:58:15Z</time></trkpt><trkpt lat="46.34021093912344" lon="13.07634543037125"><ele>195.0</ele><time>2026-04-26T07:58:16Z</time></trkpt><trkpt lat="46.34030645964034" lon="13.076200527528382"><ele>195.0</ele><time>2026-04-26T07:58:17Z</time></trkpt><trkpt lat="46.34041061742745" lon="13.076083055338074"><ele>195.0</ele><time>2026-04-26T07:58:18Z</time></trkpt><trkpt lat="46.3405297747805" lon="13.075984071020658"><ele>195.0</ele><time>2026-04-26T07:58:19Z</time></trkpt><trkpt lat="46.34067549461387" lon="13.075927154698029"><ele>195.0</ele><time>2026-04-26T07:58:20Z</time></trkpt><trkpt lat="46.34084453201017" lon="13.075885537690464"><ele>195.0</ele><time>2026-04-26T07:58:21Z</time></trkpt><trkpt lat="46.34103045352402" lon="13.075842624286468"><ele>195.0</ele><time>2026-04-26T07:58:22Z</time></trkpt><trkpt lat="46.34122498151693" lon="13.075780130313811"><ele>195.0</ele><time>2026-04-26T07:58:23Z</time></trkpt><trkpt lat="46.341439862998456" lon="13.075701130326662"><ele>195.0</ele><time>2026-04-26T07:58:24Z</time></trkpt><trkpt lat="46.341632613887384" lon="13.075616805410618"><ele>195.0</ele><time>2026-04-26T07:58:25Z</time></trkpt><trkpt lat="46.34181348645971" lon="13.075535239297619"><ele>195.0</ele><time>2026-04-26T07:58:26Z</time></trkpt><trkpt lat="46.341980518631225" lon="13.075453290481214"><ele>195.0</ele><time>2026-04-26T07:58:27Z</time></trkpt><trkpt lat="46.34213460935424" lon="13.075379527860918"><ele>195.0</ele><time>2026-04-26T07:58:28Z</time></trkpt><trkpt lat="46.34227988447248" lon="13.075307877449001"><ele>195.0</ele><time>2026-04-26T07:58:29Z</time></trkpt><trkpt lat="46.34243346997093" lon="13.075230310358208"><ele>196.0</ele><time>2026-04-26T07:58:30Z</time></trkpt><trkpt lat="46.3425807466961" lon="13.075152514932181"><ele>197.0</ele><time>2026-04-26T07:58:31Z</time></trkpt><trkpt lat="46.34271566817131" lon="13.07508238117084"><ele>198.0</ele><time>2026-04-26T07:58:32Z</time></trkpt><trkpt lat="46.34285178617058" lon="13.075015534520917"><ele>199.0</ele><time>2026-04-26T07:58:33Z</time></trkpt><trkpt lat="46.342999555634506" lon="13.074947070520997"><ele>197.66666666666666</ele><time>2026-04-26T07:58:34Z</time></trkpt><trkpt lat="46.34318014801875" lon="13.074862393297183"><ele>196.33333333333331</ele><time>2026-04-26T07:58:35Z</time></trkpt><trkpt lat="46.343385906174355" lon="13.074739296659114"><ele>195.0</ele><time>2026-04-26T07:58:36Z</time></trkpt><trkpt lat="46.34358956239282" lon="13.074602056216282"><ele>195.0</ele><time>2026-04-26T07:58:37Z</time></trkpt><trkpt lat="46.34376280490916" lon="13.074467927835984"><ele>195.0</ele><time>2026-04-26T07:58:38Z</time></trkpt><trkpt lat="46.34392418286905" lon="13.07433191215437"><ele>195.0</ele><time>2026-04-26T07:58:39Z</time></trkpt><trkpt lat="46.34408012684333" lon="13.07418867851647"><ele>195.66666666666669</ele><time>2026-04-26T07:58:40Z</time></trkpt><trkpt lat="46.344227319597266" lon="13.074051156061872"><ele>196.33333333333334</ele><time>2026-04-26T07:58:41Z</time></trkpt><trkpt lat="46.344356782661684" lon="13.073925224978515"><ele>197.0</ele><time>2026-04-26T07:58:42Z</time></trkpt><trkpt lat="46.34447310441368" lon="13.07380189164982"><ele>197.0</ele><time>2026-04-26T07:58:43Z</time></trkpt><trkpt lat="46.34457474946022" lon="13.073659648755301"><ele>197.0</ele><time>2026-04-26T07:58:44Z</time></trkpt><trkpt lat="46.344660714374804" lon="13.073484421720172"><ele>197.0</ele><time>2026-04-26T07:58:45Z</time></trkpt><trkpt lat="46.34473739055739" lon="13.073268973579873"><ele>199.0</ele><time>2026-04-26T07:58:46Z</time></trkpt><trkpt lat="46.34480161316129" lon="13.073025958535094"><ele>201.0</ele><time>2026-04-26T07:58:47Z</time></trkpt><trkpt lat="46.344871384962744" lon="13.072767065606934"><ele>203.0</ele><time>2026-04-26T07:58:48Z</time></trkpt><trkpt lat="46.34495627607835" lon="13.072502408656698"><ele>203.0</ele><time>2026-04-26T07:58:49Z</time></trkpt><trkpt lat="46.34505966340192" lon="13.072258640532384"><ele>203.0</ele><time>2026-04-26T07:58:50Z</time></trkpt><trkpt lat="46.34516992637546" lon="13.072045687102568"><ele>203.0</ele><time>2026-04-26T07:58:51Z</time></trkpt><trkpt lat="46.345283487183444" lon="13.07182709661635"><ele>204.0</ele><time>2026-04-26T07:58:52Z</time></trkpt><trkpt lat="46.34539956634318" lon="13.071593404783275"><ele>205.0</ele><time>2026-04-26T07:58:53Z</time></trkpt><trkpt lat="46.34550917265007" lon="13.071366190603444"><ele>206.0</ele><time>2026-04-26T07:58:54Z</time></trkpt><trkpt lat="46.345609629981425" lon="13.07116131555702"><ele>204.66666666666669</ele><time>2026-04-26T07:58:55Z</time></trkpt><trkpt lat="46.3457048271524" lon="13.07097333597597"><ele>203.33333333333331</ele><time>2026-04-26T07:58:56Z</time></trkpt><trkpt lat="46.345801824993934" lon="13.070785610235582"><ele>202.0</ele><time>2026-04-26T07:58:57Z</time></trkpt><trkpt lat="46.345905686663386" lon="13.070592211704705"><ele>202.0</ele><time>2026-04-26T07:58:58Z</time></trkpt><trkpt lat="46.346011681574076" lon="13.070379205167493"><ele>202.0</ele><time>2026-04-26T07:58:59Z</time></trkpt><trkpt lat="46.34610689027936" lon="13.070194953277475"><ele>202.0</ele><time>2026-04-26T07:59:00Z</time></trkpt><trkpt lat="46.34619151120335" lon="13.070015935427918"><ele>203.0</ele><time>2026-04-26T07:59:01Z</time></trkpt><trkpt lat="46.34626860018127" lon="13.069846401539987"><ele>204.0</ele><time>2026-04-26T07:59:02Z</time></trkpt><trkpt lat="46.34635000525525" lon="13.069651254521169"><ele>205.0</ele><time>2026-04-26T07:59:03Z</time></trkpt><trkpt lat="46.34643610829343" lon="13.069442313368448"><ele>205.0</ele><time>2026-04-26T07:59:04Z</time></trkpt><trkpt lat="46.346510382743766" lon="13.069230858006877"><ele>205.0</ele><time>2026-04-26T07:59:05Z</time></trkpt><trkpt lat="46.3465729026669" lon="13.069047858585268"><ele>205.0</ele><time>2026-04-26T07:59:06Z</time></trkpt><trkpt lat="46.346628497559934" lon="13.068870292718822"><ele>205.0</ele><time>2026-04-26T07:59:07Z</time></trkpt><trkpt lat="46.346675741151344" lon="13.068702070738372"><ele>204.4</ele><time>2026-04-26T07:59:08Z</time></trkpt><trkpt lat="46.34671180015539" lon="13.068539807387713"><ele>203.8</ele><time>2026-04-26T07:59:09Z</time></trkpt><trkpt lat="46.34674189633209" lon="13.068385103714208"><ele>203.2</ele><time>2026-04-26T07:59:10Z</time></trkpt><trkpt lat="46.3467665934007" lon="13.068244022272788"><ele>202.6</ele><time>2026-04-26T07:59:11Z</time></trkpt><trkpt lat="46.3467870149244" lon="13.068115569867507"><ele>202.0</ele><time>2026-04-26T07:59:12Z</time></trkpt><trkpt lat="46.34681020022461" lon="13.068003961986085"><ele>201.49999999999997</ele><time>2026-04-26T07:59:13Z</time></trkpt><trkpt lat="46.34683276450856" lon="13.067900312183257"><ele>201.0</ele><time>2026-04-26T07:59:14Z</time></trkpt><trkpt lat="46.346855106738914" lon="13.067798905767987"><ele>200.5</ele><time>2026-04-26T07:59:15Z</time></trkpt><trkpt lat="46.34687169476296" lon="13.06770384248537"><ele>200.0</ele><time>2026-04-26T07:59:16Z</time></trkpt><trkpt lat="46.34691385622988" lon="13.067594676069985"><ele>199.49999999999997</ele><time>2026-04-26T07:59:19Z</time></trkpt><trkpt lat="46.34679554072182" lon="13.067507294735897"><ele>199.0</ele><time>2026-04-26T07:59:20Z</time></trkpt><trkpt lat="46.34670963251165" lon="13.067461398523847"><ele>198.75</ele><time>2026-04-26T07:59:21Z</time></trkpt><trkpt lat="46.346586535751136" lon="13.06739381449801"><ele>198.5</ele><time>2026-04-26T07:59:22Z</time></trkpt><trkpt lat="46.34645084926987" lon="13.067296423177412"><ele>198.25</ele><time>2026-04-26T07:59:23Z</time></trkpt><trkpt lat="46.346346993523426" lon="13.067204005949312"><ele>198.0</ele><time>2026-04-26T07:59:24Z</time></trkpt><trkpt lat="46.34626893046243" lon="13.067102002013394"><ele>198.0</ele><time>2026-04-26T07:59:25Z</time></trkpt><trkpt lat="46.34620086557098" lon="13.066987216237342"><ele>198.0</ele><time>2026-04-26T07:59:26Z</time></trkpt><trkpt lat="46.34610536741151" lon="13.066830308090829"><ele>198.0</ele><time>2026-04-26T07:59:27Z</time></trkpt><trkpt lat="46.346029034683724" lon="13.066683337877793"><ele>198.0</ele><time>2026-04-26T07:59:28Z</time></trkpt><trkpt lat="46.34595887871153" lon="13.066561696196942"><ele>198.0</ele><time>2026-04-26T07:59:29Z</time></trkpt><trkpt lat="46.34588687457024" lon="13.066452734145802"><ele>198.0</ele><time>2026-04-26T07:59:30Z</time></trkpt><trkpt lat="46.34580960637453" lon="13.0663412380519"><ele>198.0</ele><time>2026-04-26T07:59:31Z</time></trkpt><trkpt lat="46.34571567633694" lon="13.06623517441102"><ele>198.0</ele><time>2026-04-26T07:59:32Z</time></trkpt><trkpt lat="46.345622385199285" lon="13.066156263499781"><ele>198.0</ele><time>2026-04-26T07:59:33Z</time></trkpt><trkpt lat="46.34553327634455" lon="13.066101175035426"><ele>198.4</ele><time>2026-04-26T07:59:34Z</time></trkpt><trkpt lat="46.345434977930175" lon="13.066072240016927"><ele>198.8</ele><time>2026-04-26T07:59:35Z</time></trkpt><trkpt lat="46.34531858515172" lon="13.066057811544669"><ele>199.2</ele><time>2026-04-26T07:59:36Z</time></trkpt><trkpt lat="46.3452021200081" lon="13.066046892194375"><ele>199.6</ele><time>2026-04-26T07:59:37Z</time></trkpt><trkpt lat="46.34510288598732" lon="13.066068961247217"><ele>200.0</ele><time>2026-04-26T07:59:38Z</time></trkpt><trkpt lat="46.345012214216815" lon="13.0660936033275"><ele>200.0</ele><time>2026-04-26T07:59:39Z</time></trkpt><trkpt lat="46.344910658639854" lon="13.066107035572232"><ele>200.0</ele><time>2026-04-26T07:59:40Z</time></trkpt><trkpt lat="46.34478303887996" lon="13.06615652353971"><ele>200.0</ele><time>2026-04-26T07:59:41Z</time></trkpt><trkpt lat="46.34465505010263" lon="13.066212914413596"><ele>200.0</ele><time>2026-04-26T07:59:42Z</time></trkpt><trkpt lat="46.344543813569786" lon="13.066285259937434"><ele>200.0</ele><time>2026-04-26T07:59:43Z</time></trkpt><trkpt lat="46.344423956200515" lon="13.06637619618302"><ele>200.0</ele><time>2026-04-26T07:59:44Z</time></trkpt><trkpt lat="46.34428465300825" lon="13.066505621810364"><ele>200.0</ele><time>2026-04-26T07:59:45Z</time></trkpt><trkpt lat="46.3441319991282" lon="13.066642823979665"><ele>200.0</ele><time>2026-04-26T07:59:46Z</time></trkpt><trkpt lat="46.34396867252491" lon="13.066781457295924"><ele>200.0</ele><time>2026-04-26T07:59:47Z</time></trkpt><trkpt lat="46.34378707414543" lon="13.066929582800242"><ele>200.0</ele><time>2026-04-26T07:59:48Z</time></trkpt><trkpt lat="46.343588801655905" lon="13.067111126592735"><ele>200.0</ele><time>2026-04-26T07:59:49Z</time></trkpt><trkpt lat="46.343421373615904" lon="13.067261805201333"><ele>200.0</ele><time>2026-04-26T07:59:50Z</time></trkpt><trkpt lat="46.343270843716994" lon="13.067384225205045"><ele>200.0</ele><time>2026-04-26T07:59:51Z</time></trkpt><trkpt lat="46.34313414096034" lon="13.067498744177929"><ele>200.33333333333334</ele><time>2026-04-26T07:59:52Z</time></trkpt><trkpt lat="46.342996162634556" lon="13.067621471565547"><ele>200.66666666666669</ele><time>2026-04-26T07:59:53Z</time></trkpt><trkpt lat="46.34285868495559" lon="13.06773523540475"><ele>201.0</ele><time>2026-04-26T07:59:54Z</time></trkpt><trkpt lat="46.342744570969764" lon="13.067835901046202"><ele>201.0</ele><time>2026-04-26T07:59:55Z</time></trkpt><trkpt lat="46.342628822839885" lon="13.067934596021455"><ele>201.0</ele><time>2026-04-26T07:59:56Z</time></trkpt><trkpt lat="46.342501029549865" lon="13.068043355716902"><ele>201.0</ele><time>2026-04-26T07:59:57Z</time></trkpt><trkpt lat="46.342345342495484" lon="13.06814218216449"><ele>201.33333333333331</ele><time>2026-04-26T07:59:58Z</time></trkpt><trkpt lat="46.34215699980826" lon="13.068220565774665"><ele>201.66666666666666</ele><time>2026-04-26T07:59:59Z</time></trkpt><trkpt lat="46.34197319609457" lon="13.068301173124452"><ele>202.0</ele><time>2026-04-26T08:00:00Z</time></trkpt><trkpt lat="46.341815904875666" lon="13.068384590000958"><ele>201.25</ele><time>2026-04-26T08:00:01Z</time></trkpt><trkpt lat="46.341672332913255" lon="13.068458155026166"><ele>200.5</ele><time>2026-04-26T08:00:02Z</time></trkpt><trkpt lat="46.34153881682735" lon="13.068528148905616"><ele>199.75</ele><time>2026-04-26T08:00:03Z</time></trkpt><trkpt lat="46.341401069564355" lon="13.068624979246179"><ele>199.0</ele><time>2026-04-26T08:00:04Z</time></trkpt><trkpt lat="46.34126065510947" lon="13.068748325461437"><ele>201.33333333333331</ele><time>2026-04-26T08:00:05Z</time></trkpt><trkpt lat="46.34112206199696" lon="13.0688982774943"><ele>203.66666666666669</ele><time>2026-04-26T08:00:06Z</time></trkpt><trkpt lat="46.34098529196041" lon="13.06905181468212"><ele>206.0</ele><time>2026-04-26T08:00:07Z</time></trkpt><trkpt lat="46.340865597186394" lon="13.069189419203845"><ele>206.0</ele><time>2026-04-26T08:00:08Z</time></trkpt><trkpt lat="46.34073933672784" lon="13.069291134585383"><ele>206.0</ele><time>2026-04-26T08:00:09Z</time></trkpt><trkpt lat="46.34061254673654" lon="13.069424191739968"><ele>206.0</ele><time>2026-04-26T08:00:10Z</time></trkpt><trkpt lat="46.34045460792012" lon="13.069519609273982"><ele>216.0</ele><time>2026-04-26T08:00:11Z</time></trkpt><trkpt lat="46.34027989391642" lon="13.069569650595115"><ele>226.0</ele><time>2026-04-26T08:00:12Z</time></trkpt><trkpt lat="46.34009111663362" lon="13.069622950549503"><ele>236.0</ele><time>2026-04-26T08:00:13Z</time></trkpt><trkpt lat="46.339921510323535" lon="13.069674255385255"><ele>236.0</ele><time>2026-04-26T08:00:14Z</time></trkpt><trkpt lat="46.33976981518087" lon="13.069697739536304"><ele>236.0</ele><time>2026-04-26T08:00:15Z</time></trkpt><trkpt lat="46.33963224633481" lon="13.06974326238303"><ele>236.0</ele><time>2026-04-26T08:00:16Z</time></trkpt><trkpt lat="46.339501412393844" lon="13.069821616153185"><ele>236.0</ele><time>2026-04-26T08:00:17Z</time></trkpt><trkpt lat="46.33937492809782" lon="13.069911067712184"><ele>231.33333333333334</ele><time>2026-04-26T08:00:18Z</time></trkpt><trkpt lat="46.33921629252072" lon="13.069950521852627"><ele>226.66666666666669</ele><time>2026-04-26T08:00:19Z</time></trkpt><trkpt lat="46.3390511803702" lon="13.069995775241654"><ele>222.0</ele><time>2026-04-26T08:00:20Z</time></trkpt><trkpt lat="46.3389162258222" lon="13.070044112564368"><ele>224.0</ele><time>2026-04-26T08:00:21Z</time></trkpt><trkpt lat="46.33880008823704" lon="13.070074301410738"><ele>226.0</ele><time>2026-04-26T08:00:22Z</time></trkpt><trkpt lat="46.33868016307447" lon="13.070106102185127"><ele>228.0</ele><time>2026-04-26T08:00:23Z</time></trkpt><trkpt lat="46.33855338135666" lon="13.070137683178107"><ele>230.0</ele><time>2026-04-26T08:00:24Z</time></trkpt><trkpt lat="46.33843801006429" lon="13.070171267204241"><ele>230.0</ele><time>2026-04-26T08:00:25Z</time></trkpt><trkpt lat="46.338340010623206" lon="13.07020080596643"><ele>230.0</ele><time>2026-04-26T08:00:26Z</time></trkpt><trkpt lat="46.33825116917998" lon="13.070238062633395"><ele>230.0</ele><time>2026-04-26T08:00:27Z</time></trkpt><trkpt lat="46.33816350572593" lon="13.070298027681059"><ele>230.0</ele><time>2026-04-26T08:00:28Z</time></trkpt><trkpt lat="46.3380954776249" lon="13.070392943262927"><ele>230.0</ele><time>2026-04-26T08:00:29Z</time></trkpt><trkpt lat="46.33802930713152" lon="13.070480571815825"><ele>230.5</ele><time>2026-04-26T08:00:30Z</time></trkpt><trkpt lat="46.3379538318338" lon="13.070592195067258"><ele>231.0</ele><time>2026-04-26T08:00:31Z</time></trkpt><trkpt lat="46.33789641948701" lon="13.070750395588853"><ele>231.5</ele><time>2026-04-26T08:00:32Z</time></trkpt><trkpt lat="46.33785433343729" lon="13.070941413104665"><ele>232.0</ele><time>2026-04-26T08:00:33Z</time></trkpt><trkpt lat="46.337792592337394" lon="13.071081538432098"><ele>232.0</ele><time>2026-04-26T08:00:34Z</time></trkpt><trkpt lat="46.33772944710465" lon="13.071212369331692"><ele>232.0</ele><time>2026-04-26T08:00:35Z</time></trkpt><trkpt lat="46.33764334585126" lon="13.071349865289575"><ele>232.0</ele><time>2026-04-26T08:00:36Z</time></trkpt><trkpt lat="46.33752052204771" lon="13.071504681383388"><ele>232.0</ele><time>2026-04-26T08:00:37Z</time></trkpt><trkpt lat="46.337426630414186" lon="13.071628210688877"><ele>227.75</ele><time>2026-04-26T08:00:38Z</time></trkpt><trkpt lat="46.33732176199835" lon="13.071773181814498"><ele>223.5</ele><time>2026-04-26T08:00:39Z</time></trkpt><trkpt lat="46.33724260323086" lon="13.071897946414616"><ele>219.25</ele><time>2026-04-26T08:00:40Z</time></trkpt><trkpt lat="46.33716450336985" lon="13.072037138681829"><ele>215.0</ele><time>2026-04-26T08:00:41Z</time></trkpt><trkpt lat="46.337085565702566" lon="13.072220189454995"><ele>219.5</ele><time>2026-04-26T08:00:42Z</time></trkpt><trkpt lat="46.33702602781969" lon="13.07237853793348"><ele>224.0</ele><time>2026-04-26T08:00:43Z</time></trkpt><trkpt lat="46.33696693101634" lon="13.072522025328679"><ele>228.5</ele><time>2026-04-26T08:00:44Z</time></trkpt><trkpt lat="46.33691485266589" lon="13.072664973395804"><ele>233.0</ele><time>2026-04-26T08:00:45Z</time></trkpt><trkpt lat="46.33687996940529" lon="13.07280814604676"><ele>233.0</ele><time>2026-04-26T08:00:46Z</time></trkpt><trkpt lat="46.336850315665195" lon="13.072940349821332"><ele>233.0</ele><time>2026-04-26T08:00:47Z</time></trkpt><trkpt lat="46.3368218341918" lon="13.073063092846322"><ele>233.0</ele><time>2026-04-26T08:00:48Z</time></trkpt><trkpt lat="46.33675244112105" lon="13.073177087478474"><ele>233.0</ele><time>2026-04-26T08:00:49Z</time></trkpt><trkpt lat="46.33664503926169" lon="13.07330867478365"><ele>233.0</ele><time>2026-04-26T08:00:50Z</time></trkpt><trkpt lat="46.336567240805415" lon="13.07347474933653"><ele>235.5</ele><time>2026-04-26T08:00:51Z</time></trkpt><trkpt lat="46.336493060762024" lon="13.073604323766022"><ele>238.0</ele><time>2026-04-26T08:00:52Z</time></trkpt><trkpt lat="46.336421396534945" lon="13.073733552688278"><ele>240.5</ele><time>2026-04-26T08:00:53Z</time></trkpt><trkpt lat="46.33631809595873" lon="13.073842032783135"><ele>243.0</ele><time>2026-04-26T08:00:54Z</time></trkpt><trkpt lat="46.33620252109932" lon="13.07394635465113"><ele>243.0</ele><time>2026-04-26T08:00:55Z</time></trkpt><trkpt lat="46.33611254272045" lon="13.074056458468418"><ele>243.0</ele><time>2026-04-26T08:00:56Z</time></trkpt><trkpt lat="46.33602591208339" lon="13.07414432765111"><ele>243.0</ele><time>2026-04-26T08:00:57Z</time></trkpt><trkpt lat="46.335941043479046" lon="13.074226134238389"><ele>243.0</ele><time>2026-04-26T08:00:58Z</time></trkpt><trkpt lat="46.33583941777465" lon="13.074297851460734"><ele>243.0</ele><time>2026-04-26T08:00:59Z</time></trkpt><trkpt lat="46.33571401967156" lon="13.07437234811208"><ele>238.75</ele><time>2026-04-26T08:01:00Z</time></trkpt><trkpt lat="46.33558179055301" lon="13.074452756478491"><ele>234.5</ele><time>2026-04-26T08:01:01Z</time></trkpt><trkpt lat="46.33544475754987" lon="13.074509087869776"><ele>230.25</ele><time>2026-04-26T08:01:02Z</time></trkpt><trkpt lat="46.3353262924299" lon="13.074548620726512"><ele>226.0</ele><time>2026-04-26T08:01:03Z</time></trkpt><trkpt lat="46.33522085855975" lon="13.074588002499501"><ele>226.0</ele><time>2026-04-26T08:01:04Z</time></trkpt><trkpt lat="46.33511624300697" lon="13.074625426352325"><ele>226.00000000000003</ele><time>2026-04-26T08:01:05Z</time></trkpt><trkpt lat="46.33501513830412" lon="13.074661586707597"><ele>226.00000000000003</ele><time>2026-04-26T08:01:06Z</time></trkpt><trkpt lat="46.33491327807089" lon="13.074685869730468"><ele>226.0</ele><time>2026-04-26T08:01:07Z</time></trkpt><trkpt lat="46.33480019276119" lon="13.074688140690002"><ele>226.0</ele><time>2026-04-26T08:01:08Z</time></trkpt><trkpt lat="46.33466659637595" lon="13.074655142231897"><ele>228.66666666666666</ele><time>2026-04-26T08:01:09Z</time></trkpt><trkpt lat="46.334521127842706" lon="13.07462217966297"><ele>231.33333333333331</ele><time>2026-04-26T08:01:10Z</time></trkpt><trkpt lat="46.334362698776516" lon="13.07459958389795"><ele>234.0</ele><time>2026-04-26T08:01:11Z</time></trkpt><trkpt lat="46.334186553250156" lon="13.074602155963214"><ele>234.0</ele><time>2026-04-26T08:01:12Z</time></trkpt><trkpt lat="46.3340046408486" lon="13.074615049825853"><ele>234.0</ele><time>2026-04-26T08:01:13Z</time></trkpt><trkpt lat="46.33384811772118" lon="13.074608541083126"><ele>234.0</ele><time>2026-04-26T08:01:14Z</time></trkpt><trkpt lat="46.33370954849961" lon="13.074604513684791"><ele>237.5</ele><time>2026-04-26T08:01:15Z</time></trkpt><trkpt lat="46.3335835890147" lon="13.074604391308112"><ele>241.0</ele><time>2026-04-26T08:01:16Z</time></trkpt><trkpt lat="46.33346347668196" lon="13.074612147976872"><ele>244.5</ele><time>2026-04-26T08:01:17Z</time></trkpt><trkpt lat="46.33335567260403" lon="13.074611124696688"><ele>248.0</ele><time>2026-04-26T08:01:18Z</time></trkpt><trkpt lat="46.333255324725535" lon="13.074609209922835"><ele>248.0</ele><time>2026-04-26T08:01:19Z</time></trkpt><trkpt lat="46.33316105175746" lon="13.074621786229839"><ele>248.0</ele><time>2026-04-26T08:01:20Z</time></trkpt><trkpt lat="46.333060812250494" lon="13.074659158814542"><ele>248.0</ele><time>2026-04-26T08:01:21Z</time></trkpt><trkpt lat="46.33293880605156" lon="13.074694435280259"><ele>248.0</ele><time>2026-04-26T08:01:22Z</time></trkpt><trkpt lat="46.33281452177249" lon="13.074728643827992"><ele>248.0</ele><time>2026-04-26T08:01:23Z</time></trkpt><trkpt lat="46.332698477358925" lon="13.074763353102243"><ele>247.0</ele><time>2026-04-26T08:01:24Z</time></trkpt><trkpt lat="46.33256995359903" lon="13.074799803200124"><ele>246.0</ele><time>2026-04-26T08:01:25Z</time></trkpt><trkpt lat="46.332443180876986" lon="13.074828743223923"><ele>245.0</ele><time>2026-04-26T08:01:26Z</time></trkpt><trkpt lat="46.332325562226636" lon="13.074852122482806"><ele>244.0</ele><time>2026-04-26T08:01:27Z</time></trkpt><trkpt lat="46.33220823714431" lon="13.074852100826119"><ele>237.5</ele><time>2026-04-26T08:01:28Z</time></trkpt><trkpt lat="46.33206730926992" lon="13.074840744733427"><ele>231.0</ele><time>2026-04-26T08:01:29Z</time></trkpt><trkpt lat="46.33192233960604" lon="13.074815777069599"><ele>224.5</ele><time>2026-04-26T08:01:30Z</time></trkpt><trkpt lat="46.331789162969194" lon="13.074780375372596"><ele>218.0</ele><time>2026-04-26T08:01:31Z</time></trkpt><trkpt lat="46.331674271382596" lon="13.074756045635025"><ele>218.0</ele><time>2026-04-26T08:01:32Z</time></trkpt><trkpt lat="46.331565781497666" lon="13.074728680746562"><ele>218.0</ele><time>2026-04-26T08:01:33Z</time></trkpt><trkpt lat="46.33147087392597" lon="13.074672115750671"><ele>218.0</ele><time>2026-04-26T08:01:34Z</time></trkpt><trkpt lat="46.33138674905176" lon="13.074575510967904"><ele>218.0</ele><time>2026-04-26T08:01:35Z</time></trkpt><trkpt lat="46.33132898847727" lon="13.074449713103807"><ele>218.0</ele><time>2026-04-26T08:01:36Z</time></trkpt><trkpt lat="46.33130101373837" lon="13.074290347085492"><ele>212.25</ele><time>2026-04-26T08:01:37Z</time></trkpt><trkpt lat="46.33129224581476" lon="13.074097041221217"><ele>206.5</ele><time>2026-04-26T08:01:38Z</time></trkpt><trkpt lat="46.3312964469146" lon="13.073919245382307"><ele>200.75</ele><time>2026-04-26T08:01:39Z</time></trkpt><trkpt lat="46.33131856634609" lon="13.07375554806769"><ele>195.0</ele><time>2026-04-26T08:01:40Z</time></trkpt><trkpt lat="46.33136860353229" lon="13.073550555821813"><ele>202.0</ele><time>2026-04-26T08:01:41Z</time></trkpt><trkpt lat="46.33141090630198" lon="13.073364339876274"><ele>209.0</ele><time>2026-04-26T08:01:42Z</time></trkpt><trkpt lat="46.3314442772803" lon="13.07320208148723"><ele>216.0</ele><time>2026-04-26T08:01:43Z</time></trkpt><trkpt lat="46.33147851672085" lon="13.073058788147597"><ele>223.0</ele><time>2026-04-26T08:01:44Z</time></trkpt><trkpt lat="46.33150607866538" lon="13.07289784761556"><ele>223.0</ele><time>2026-04-26T08:01:45Z</time></trkpt><trkpt lat="46.33152668798289" lon="13.072723541941953"><ele>223.0</ele><time>2026-04-26T08:01:46Z</time></trkpt><trkpt lat="46.331532951598255" lon="13.072574983242049"><ele>223.0</ele><time>2026-04-26T08:01:47Z</time></trkpt><trkpt lat="46.33150374562781" lon="13.072449384327667"><ele>223.0</ele><time>2026-04-26T08:01:48Z</time></trkpt><trkpt lat="46.33144638508798" lon="13.072354324118441"><ele>223.0</ele><time>2026-04-26T08:01:49Z</time></trkpt><trkpt lat="46.331365665845176" lon="13.072298912274531"><ele>221.75</ele><time>2026-04-26T08:01:50Z</time></trkpt><trkpt lat="46.331258134503244" lon="13.072240900454206"><ele>220.5</ele><time>2026-04-26T08:01:51Z</time></trkpt><trkpt lat="46.33114588227766" lon="13.072161246504667"><ele>219.25</ele><time>2026-04-26T08:01:52Z</time></trkpt><trkpt lat="46.33104374099261" lon="13.072080151618234"><ele>218.0</ele><time>2026-04-26T08:01:53Z</time></trkpt><trkpt lat="46.33095709205177" lon="13.071992098674722"><ele>218.0</ele><time>2026-04-26T08:01:54Z</time></trkpt><trkpt lat="46.330862082564835" lon="13.071860609595603"><ele>218.0</ele><time>2026-04-26T08:01:55Z</time></trkpt><trkpt lat="46.330752214904074" lon="13.071726962724698"><ele>218.0</ele><time>2026-04-26T08:01:56Z</time></trkpt><trkpt lat="46.33065162427608" lon="13.071615089078902"><ele>218.0</ele><time>2026-04-26T08:01:57Z</time></trkpt><trkpt lat="46.33056335340436" lon="13.071517954463877"><ele>214.8</ele><time>2026-04-26T08:01:58Z</time></trkpt><trkpt lat="46.33048672875085" lon="13.071427906120526"><ele>211.60000000000002</ele><time>2026-04-26T08:01:59Z</time></trkpt><trkpt lat="46.330425690030154" lon="13.07134092274618"><ele>208.39999999999998</ele><time>2026-04-26T08:02:00Z</time></trkpt><trkpt lat="46.330381731532086" lon="13.071232207284002"><ele>205.2</ele><time>2026-04-26T08:02:01Z</time></trkpt><trkpt lat="46.33035567246083" lon="13.071085898650574"><ele>202.0</ele><time>2026-04-26T08:02:02Z</time></trkpt><trkpt lat="46.33036115995921" lon="13.07091514370613"><ele>201.6</ele><time>2026-04-26T08:02:03Z</time></trkpt><trkpt lat="46.33038179703577" lon="13.070758488640719"><ele>201.2</ele><time>2026-04-26T08:02:04Z</time></trkpt><trkpt lat="46.33037447087736" lon="13.070632324307342"><ele>200.8</ele><time>2026-04-26T08:02:05Z</time></trkpt><trkpt lat="46.330321030174105" lon="13.070519902814464"><ele>200.4</ele><time>2026-04-26T08:02:06Z</time></trkpt><trkpt lat="46.3302595222595" lon="13.070397967081975"><ele>200.0</ele><time>2026-04-26T08:02:07Z</time></trkpt><trkpt lat="46.33021004848068" lon="13.070286764758077"><ele>200.00000000000003</ele><time>2026-04-26T08:02:08Z</time></trkpt><trkpt lat="46.33018590038525" lon="13.070162158594977"><ele>200.0</ele><time>2026-04-26T08:02:09Z</time></trkpt><trkpt lat="46.330159102858296" lon="13.07006776472593"><ele>200.0</ele><time>2026-04-26T08:02:10Z</time></trkpt><trkpt lat="46.33018920885091" lon="13.069976623808998"><ele>200.0</ele><time>2026-04-26T08:02:11Z</time></trkpt><trkpt lat="46.33022080070318" lon="13.069888466509934"><ele>200.0</ele><time>2026-04-26T08:02:12Z</time></trkpt><trkpt lat="46.330273392482574" lon="13.069826064727605"><ele>200.00000000000003</ele><time>2026-04-26T08:02:13Z</time></trkpt><trkpt lat="46.33035105912657" lon="13.069836315432825"><ele>200.0</ele><time>2026-04-26T08:02:14Z</time></trkpt><trkpt lat="46.330425663228496" lon="13.069859908708723"><ele>201.33333333333334</ele><time>2026-04-26T08:02:15Z</time></trkpt><trkpt lat="46.33050176344778" lon="13.069840008800066"><ele>202.66666666666669</ele><time>2026-04-26T08:02:16Z</time></trkpt><trkpt lat="46.330566320190094" lon="13.069783651041748"><ele>204.0</ele><time>2026-04-26T08:02:17Z</time></trkpt><trkpt lat="46.330610477209646" lon="13.06969651988243"><ele>205.33333333333331</ele><time>2026-04-26T08:02:18Z</time></trkpt><trkpt lat="46.33063970958535" lon="13.069594021903962"><ele>206.66666666666666</ele><time>2026-04-26T08:02:19Z</time></trkpt><trkpt lat="46.33064436126665" lon="13.069472180212983"><ele>208.0</ele><time>2026-04-26T08:02:20Z</time></trkpt><trkpt lat="46.330620784383036" lon="13.069359083576156"><ele>208.75</ele><time>2026-04-26T08:02:21Z</time></trkpt><trkpt lat="46.33056093593842" lon="13.069224835039472"><ele>209.5</ele><time>2026-04-26T08:02:22Z</time></trkpt><trkpt lat="46.33045050075255" lon="13.06908428598849"><ele>210.25</ele><time>2026-04-26T08:02:23Z</time></trkpt><trkpt lat="46.33032880044305" lon="13.068907299248318"><ele>211.0</ele><time>2026-04-26T08:02:24Z</time></trkpt><trkpt lat="46.3302268514255" lon="13.06875890501905"><ele>211.0</ele><time>2026-04-26T08:02:25Z</time></trkpt><trkpt lat="46.33013086728851" lon="13.068642930657882"><ele>211.0</ele><time>2026-04-26T08:02:26Z</time></trkpt><trkpt lat="46.330061942189595" lon="13.068488683677693"><ele>211.0</ele><time>2026-04-26T08:02:27Z</time></trkpt><trkpt lat="46.329971811228454" lon="13.068312147066665"><ele>211.0</ele><time>2026-04-26T08:02:28Z</time></trkpt><trkpt lat="46.32987605770168" lon="13.068111457646301"><ele>203.66666666666666</ele><time>2026-04-26T08:02:29Z</time></trkpt><trkpt lat="46.329779568554514" lon="13.067915890250676"><ele>196.33333333333331</ele><time>2026-04-26T08:02:30Z</time></trkpt><trkpt lat="46.32969068188475" lon="13.06775402682266"><ele>189.0</ele><time>2026-04-26T08:02:31Z</time></trkpt><trkpt lat="46.329589076624174" lon="13.067579894384345"><ele>189.0</ele><time>2026-04-26T08:02:32Z</time></trkpt><trkpt lat="46.32948771423132" lon="13.067375477120786"><ele>189.0</ele><time>2026-04-26T08:02:33Z</time></trkpt><trkpt lat="46.329357966581675" lon="13.067206659227221"><ele>189.0</ele><time>2026-04-26T08:02:34Z</time></trkpt><trkpt lat="46.32924600629235" lon="13.067070198845707"><ele>195.5</ele><time>2026-04-26T08:02:35Z</time></trkpt><trkpt lat="46.32915107635591" lon="13.066938853084556"><ele>202.0</ele><time>2026-04-26T08:02:36Z</time></trkpt><trkpt lat="46.32906456358061" lon="13.066815833947745"><ele>208.5</ele><time>2026-04-26T08:02:37Z</time></trkpt><trkpt lat="46.328983999537044" lon="13.06668485059014"><ele>215.0</ele><time>2026-04-26T08:02:38Z</time></trkpt><trkpt lat="46.32888480595429" lon="13.066575560370856"><ele>215.0</ele><time>2026-04-26T08:02:39Z</time></trkpt><trkpt lat="46.32876447024799" lon="13.066503465548685"><ele>215.0</ele><time>2026-04-26T08:02:40Z</time></trkpt><trkpt lat="46.328658843585224" lon="13.066437782787373"><ele>215.0</ele><time>2026-04-26T08:02:41Z</time></trkpt><trkpt lat="46.32855494100691" lon="13.066306346374388"><ele>215.0</ele><time>2026-04-26T08:02:42Z</time></trkpt><trkpt lat="46.32843971127133" lon="13.066178171515645"><ele>215.0</ele><time>2026-04-26T08:02:43Z</time></trkpt><trkpt lat="46.32834717155152" lon="13.066040657362821"><ele>215.0</ele><time>2026-04-26T08:02:44Z</time></trkpt><trkpt lat="46.32824181980098" lon="13.065923958467673"><ele>215.0</ele><time>2026-04-26T08:02:45Z</time></trkpt><trkpt lat="46.328106763353304" lon="13.06580622260032"><ele>215.0</ele><time>2026-04-26T08:02:46Z</time></trkpt><trkpt lat="46.327963394002296" lon="13.065692229433575"><ele>216.8</ele><time>2026-04-26T08:02:47Z</time></trkpt><trkpt lat="46.32784277207712" lon="13.065605365365228"><ele>218.6</ele><time>2026-04-26T08:02:48Z</time></trkpt><trkpt lat="46.32773714314928" lon="13.065522720182646"><ele>220.39999999999998</ele><time>2026-04-26T08:02:49Z</time></trkpt><trkpt lat="46.32764879159086" lon="13.065455243332924"><ele>222.2</ele><time>2026-04-26T08:02:50Z</time></trkpt><trkpt lat="46.327569142398225" lon="13.06539325891436"><ele>224.0</ele><time>2026-04-26T08:02:51Z</time></trkpt><trkpt lat="46.327481917828834" lon="13.065326786484539"><ele>224.0</ele><time>2026-04-26T08:02:52Z</time></trkpt><trkpt lat="46.32740173099949" lon="13.065264820760454"><ele>223.99999999999997</ele><time>2026-04-26T08:02:53Z</time></trkpt><trkpt lat="46.32732064266572" lon="13.065199723658015"><ele>223.99999999999997</ele><time>2026-04-26T08:02:54Z</time></trkpt><trkpt lat="46.32724700223846" lon="13.06509905507494"><ele>224.0</ele><time>2026-04-26T08:02:55Z</time></trkpt><trkpt lat="46.327183417137405" lon="13.065006324005488"><ele>224.0</ele><time>2026-04-26T08:02:56Z</time></trkpt><trkpt lat="46.32713319796619" lon="13.064907469146858"><ele>223.25</ele><time>2026-04-26T08:02:57Z</time></trkpt><trkpt lat="46.32710006308018" lon="13.064757856889088"><ele>222.5</ele><time>2026-04-26T08:02:58Z</time></trkpt><trkpt lat="46.327024274469615" lon="13.064597415456676"><ele>221.75</ele><time>2026-04-26T08:02:59Z</time></trkpt><trkpt lat="46.32695515134759" lon="13.064423113966741"><ele>221.0</ele><time>2026-04-26T08:03:00Z</time></trkpt><trkpt lat="46.32686182759888" lon="13.064259254316998"><ele>221.0</ele><time>2026-04-26T08:03:01Z</time></trkpt><trkpt lat="46.326768445827625" lon="13.06413131780627"><ele>221.00000000000003</ele><time>2026-04-26T08:03:02Z</time></trkpt><trkpt lat="46.32668869572348" lon="13.064021548954736"><ele>221.00000000000003</ele><time>2026-04-26T08:03:03Z</time></trkpt><trkpt lat="46.32661401625312" lon="13.063919314492678"><ele>221.0</ele><time>2026-04-26T08:03:04Z</time></trkpt><trkpt lat="46.32655147371234" lon="13.063816263895676"><ele>221.0</ele><time>2026-04-26T08:03:05Z</time></trkpt><trkpt lat="46.32648797991063" lon="13.063724275705813"><ele>218.0</ele><time>2026-04-26T08:03:06Z</time></trkpt><trkpt lat="46.32642733851388" lon="13.063635155268422"><ele>215.00000000000003</ele><time>2026-04-26T08:03:07Z</time></trkpt><trkpt lat="46.326357608587884" lon="13.063533371885496"><ele>212.0</ele><time>2026-04-26T08:03:08Z</time></trkpt><trkpt lat="46.32626319295435" lon="13.063431456002618"><ele>209.0</ele><time>2026-04-26T08:03:09Z</time></trkpt><trkpt lat="46.326139601617214" lon="13.063360322875141"><ele>206.0</ele><time>2026-04-26T08:03:10Z</time></trkpt><trkpt lat="46.32601149428267" lon="13.0633228831218"><ele>206.0</ele><time>2026-04-26T08:03:11Z</time></trkpt><trkpt lat="46.32590011977982" lon="13.063299130699638"><ele>206.0</ele><time>2026-04-26T08:03:12Z</time></trkpt><trkpt lat="46.325792356129234" lon="13.063270699845983"><ele>206.0</ele><time>2026-04-26T08:03:13Z</time></trkpt><trkpt lat="46.32568322560892" lon="13.063234259491802"><ele>206.0</ele><time>2026-04-26T08:03:14Z</time></trkpt><trkpt lat="46.32560174943186" lon="13.06320100064524"><ele>206.0</ele><time>2026-04-26T08:03:15Z</time></trkpt><trkpt lat="46.32553793528107" lon="13.063168842391866"><ele>206.20000000000002</ele><time>2026-04-26T08:03:16Z</time></trkpt><trkpt lat="46.32541884074641" lon="13.063117680671425"><ele>206.4</ele><time>2026-04-26T08:03:18Z</time></trkpt><trkpt lat="46.325341106013234" lon="13.063079972016713"><ele>206.6</ele><time>2026-04-26T08:03:19Z</time></trkpt><trkpt lat="46.325250392229705" lon="13.063030765299523"><ele>206.8</ele><time>2026-04-26T08:03:20Z</time></trkpt><trkpt lat="46.325146103969054" lon="13.062971592775035"><ele>207.0</ele><time>2026-04-26T08:03:21Z</time></trkpt><trkpt lat="46.32502506678135" lon="13.06290732124061"><ele>207.0</ele><time>2026-04-26T08:03:22Z</time></trkpt><trkpt lat="46.32489355962877" lon="13.062800982475672"><ele>207.0</ele><time>2026-04-26T08:03:23Z</time></trkpt><trkpt lat="46.32473148715949" lon="13.062740632158874"><ele>207.0</ele><time>2026-04-26T08:03:24Z</time></trkpt><trkpt lat="46.32457655260911" lon="13.062660132813194"><ele>206.25</ele><time>2026-04-26T08:03:25Z</time></trkpt><trkpt lat="46.32443628474546" lon="13.062598255870585"><ele>205.5</ele><time>2026-04-26T08:03:26Z</time></trkpt><trkpt lat="46.324312827739156" lon="13.062547892478777"><ele>204.75</ele><time>2026-04-26T08:03:27Z</time></trkpt><trkpt lat="46.324199506412235" lon="13.06250400174107"><ele>204.0</ele><time>2026-04-26T08:03:28Z</time></trkpt><trkpt lat="46.32409693092085" lon="13.062462591091583"><ele>204.2</ele><time>2026-04-26T08:03:29Z</time></trkpt><trkpt lat="46.32399951857826" lon="13.06241996196504"><ele>204.39999999999998</ele><time>2026-04-26T08:03:30Z</time></trkpt><trkpt lat="46.3239155730586" lon="13.062362879728184"><ele>204.6</ele><time>2026-04-26T08:03:31Z</time></trkpt><trkpt lat="46.32384346304541" lon="13.062280971656953"><ele>204.8</ele><time>2026-04-26T08:03:32Z</time></trkpt><trkpt lat="46.323792483796" lon="13.062167017548378"><ele>205.0</ele><time>2026-04-26T08:03:33Z</time></trkpt><trkpt lat="46.32376541671854" lon="13.06203461217104"><ele>204.99999999999997</ele><time>2026-04-26T08:03:34Z</time></trkpt><trkpt lat="46.32374471960065" lon="13.061894184450653"><ele>205.0</ele><time>2026-04-26T08:03:35Z</time></trkpt><trkpt lat="46.32372546380332" lon="13.061755049398515"><ele>205.0</ele><time>2026-04-26T08:03:36Z</time></trkpt><trkpt lat="46.32371249290727" lon="13.061642944607243"><ele>205.0</ele><time>2026-04-26T08:03:37Z</time></trkpt><trkpt lat="46.323700979499826" lon="13.061552892517668"><ele>204.99999999999997</ele><time>2026-04-26T08:03:38Z</time></trkpt><trkpt lat="46.323679197419665" lon="13.061396519066774"><ele>205.0</ele><time>2026-04-26T08:03:40Z</time></trkpt><trkpt lat="46.32365863458333" lon="13.06130469123586"><ele>205.0</ele><time>2026-04-26T08:03:41Z</time></trkpt><trkpt lat="46.32362608658839" lon="13.061206180689384"><ele>205.0</ele><time>2026-04-26T08:03:42Z</time></trkpt><trkpt lat="46.3235987617941" lon="13.06110258441336"><ele>205.0</ele><time>2026-04-26T08:03:43Z</time></trkpt><trkpt lat="46.32353933395508" lon="13.06098427862866"><ele>205.0</ele><time>2026-04-26T08:03:44Z</time></trkpt><trkpt lat="46.32348488193252" lon="13.060876524214926"><ele>205.0</ele><time>2026-04-26T08:03:45Z</time></trkpt><trkpt lat="46.32329223742268" lon="13.060606220374556"><ele>204.5</ele><time>2026-04-26T08:03:46Z</time></trkpt><trkpt lat="46.32309100740355" lon="13.060431654733568"><ele>204.0</ele><time>2026-04-26T08:03:47Z</time></trkpt><trkpt lat="46.32288114629441" lon="13.06026732373628"><ele>203.5</ele><time>2026-04-26T08:03:48Z</time></trkpt><trkpt lat="46.32263065615812" lon="13.060088659153907"><ele>203.0</ele><time>2026-04-26T08:03:49Z</time></trkpt><trkpt lat="46.3224277015051" lon="13.059943703106164"><ele>202.66666666666669</ele><time>2026-04-26T08:03:50Z</time></trkpt><trkpt lat="46.32227917976926" lon="13.059810894073232"><ele>202.33333333333331</ele><time>2026-04-26T08:03:51Z</time></trkpt><trkpt lat="46.32212010527377" lon="13.059639904696475"><ele>202.0</ele><time>2026-04-26T08:03:52Z</time></trkpt><trkpt lat="46.32195258601451" lon="13.059474132566491"><ele>202.66666666666666</ele><time>2026-04-26T08:03:53Z</time></trkpt><trkpt lat="46.32179759415605" lon="13.059328460792166"><ele>203.33333333333331</ele><time>2026-04-26T08:03:54Z</time></trkpt><trkpt lat="46.32167200684628" lon="13.059202601837242"><ele>204.0</ele><time>2026-04-26T08:03:55Z</time></trkpt><trkpt lat="46.32157434951822" lon="13.059102751841996"><ele>204.5</ele><time>2026-04-26T08:03:56Z</time></trkpt><trkpt lat="46.32145922457367" lon="13.05897908324788"><ele>205.0</ele><time>2026-04-26T08:03:57Z</time></trkpt><trkpt lat="46.321368049272046" lon="13.058879319365495"><ele>205.5</ele><time>2026-04-26T08:03:58Z</time></trkpt><trkpt lat="46.32126959719368" lon="13.058771691499649"><ele>206.0</ele><time>2026-04-26T08:03:59Z</time></trkpt><trkpt lat="46.3211670145911" lon="13.058631303365578"><ele>205.0</ele><time>2026-04-26T08:04:00Z</time></trkpt><trkpt lat="46.321066013867465" lon="13.058422493150616"><ele>204.0</ele><time>2026-04-26T08:04:01Z</time></trkpt><trkpt lat="46.32097699210447" lon="13.058209859833244"><ele>203.0</ele><time>2026-04-26T08:04:02Z</time></trkpt><trkpt lat="46.32090296874288" lon="13.058018329921058"><ele>203.0</ele><time>2026-04-26T08:04:03Z</time></trkpt><trkpt lat="46.320838833923005" lon="13.057849324970201"><ele>203.0</ele><time>2026-04-26T08:04:04Z</time></trkpt><trkpt lat="46.320794463016504" lon="13.057702669568764"><ele>203.0</ele><time>2026-04-26T08:04:05Z</time></trkpt><trkpt lat="46.320751609301325" lon="13.057576699362517"><ele>203.0</ele><time>2026-04-26T08:04:06Z</time></trkpt><trkpt lat="46.320697247990964" lon="13.057440652628465"><ele>203.0</ele><time>2026-04-26T08:04:07Z</time></trkpt><trkpt lat="46.32064973703716" lon="13.057322989521618"><ele>203.0</ele><time>2026-04-26T08:04:08Z</time></trkpt><trkpt lat="46.320602012280126" lon="13.057193294126737"><ele>203.0</ele><time>2026-04-26T08:04:09Z</time></trkpt><trkpt lat="46.320539608487785" lon="13.05707194655403"><ele>203.0</ele><time>2026-04-26T08:04:10Z</time></trkpt><trkpt lat="46.3204859828525" lon="13.056961481133104"><ele>203.0</ele><time>2026-04-26T08:04:11Z</time></trkpt><trkpt lat="46.32042977557989" lon="13.056844376393752"><ele>203.0</ele><time>2026-04-26T08:04:12Z</time></trkpt><trkpt lat="46.320363910569576" lon="13.05672972823689"><ele>202.75</ele><time>2026-04-26T08:04:13Z</time></trkpt><trkpt lat="46.32028753997495" lon="13.056635064647235"><ele>202.5</ele><time>2026-04-26T08:04:14Z</time></trkpt><trkpt lat="46.3201950542245" lon="13.056554416687725"><ele>202.25</ele><time>2026-04-26T08:04:15Z</time></trkpt><trkpt lat="46.32008174390523" lon="13.056484152545037"><ele>202.0</ele><time>2026-04-26T08:04:16Z</time></trkpt><trkpt lat="46.31996245587932" lon="13.056433048617215"><ele>201.83333333333331</ele><time>2026-04-26T08:04:17Z</time></trkpt><trkpt lat="46.31987319634162" lon="13.05637695209609"><ele>201.66666666666666</ele><time>2026-04-26T08:04:18Z</time></trkpt><trkpt lat="46.31979447046098" lon="13.056330166416162"><ele>201.5</ele><time>2026-04-26T08:04:19Z</time></trkpt><trkpt lat="46.31971437592954" lon="13.056297019749218"><ele>201.33333333333331</ele><time>2026-04-26T08:04:20Z</time></trkpt><trkpt lat="46.31963987239262" lon="13.056230444807742"><ele>201.16666666666666</ele><time>2026-04-26T08:04:21Z</time></trkpt><trkpt lat="46.31956025335022" lon="13.05615224499592"><ele>201.0</ele><time>2026-04-26T08:04:22Z</time></trkpt><trkpt lat="46.31947713935073" lon="13.056042039350723"><ele>200.5</ele><time>2026-04-26T08:04:23Z</time></trkpt><trkpt lat="46.319393296179065" lon="13.055903197448194"><ele>200.0</ele><time>2026-04-26T08:04:24Z</time></trkpt><trkpt lat="46.31930076129054" lon="13.05575260284891"><ele>199.5</ele><time>2026-04-26T08:04:25Z</time></trkpt><trkpt lat="46.319206592593225" lon="13.055601514248663"><ele>199.0</ele><time>2026-04-26T08:04:26Z</time></trkpt><trkpt lat="46.319123296963355" lon="13.05547701211234"><ele>199.2</ele><time>2026-04-26T08:04:27Z</time></trkpt><trkpt lat="46.31904572728413" lon="13.055366117463317"><ele>199.39999999999998</ele><time>2026-04-26T08:04:28Z</time></trkpt><trkpt lat="46.318969542556445" lon="13.055269190580173"><ele>199.6</ele><time>2026-04-26T08:04:29Z</time></trkpt><trkpt lat="46.318880606970204" lon="13.055197140260233"><ele>199.8</ele><time>2026-04-26T08:04:30Z</time></trkpt><trkpt lat="46.318774000847824" lon="13.05514121266606"><ele>200.0</ele><time>2026-04-26T08:04:31Z</time></trkpt><trkpt lat="46.318640528305764" lon="13.055112708616372"><ele>200.0</ele><time>2026-04-26T08:04:32Z</time></trkpt><trkpt lat="46.318500926666204" lon="13.055089889731084"><ele>200.0</ele><time>2026-04-26T08:04:33Z</time></trkpt><trkpt lat="46.31838021453267" lon="13.055077786402517"><ele>200.0</ele><time>2026-04-26T08:04:34Z</time></trkpt><trkpt lat="46.31827452248078" lon="13.055063788004665"><ele>200.0</ele><time>2026-04-26T08:04:35Z</time></trkpt><trkpt lat="46.31817281596072" lon="13.055054245194837"><ele>200.0</ele><time>2026-04-26T08:04:36Z</time></trkpt><trkpt lat="46.318071682376754" lon="13.055040986313138"><ele>200.0</ele><time>2026-04-26T08:04:37Z</time></trkpt><trkpt lat="46.31797180322958" lon="13.055017190464303"><ele>200.0</ele><time>2026-04-26T08:04:38Z</time></trkpt><trkpt lat="46.317880632567196" lon="13.054979399086776"><ele>200.0</ele><time>2026-04-26T08:04:39Z</time></trkpt><trkpt lat="46.317799780318374" lon="13.054904128563328"><ele>200.0</ele><time>2026-04-26T08:04:40Z</time></trkpt><trkpt lat="46.317712221246865" lon="13.054814602336055"><ele>200.66666666666669</ele><time>2026-04-26T08:04:41Z</time></trkpt><trkpt lat="46.31762876684549" lon="13.054729775298231"><ele>201.33333333333334</ele><time>2026-04-26T08:04:42Z</time></trkpt><trkpt lat="46.317556289862566" lon="13.05465074028357"><ele>202.0</ele><time>2026-04-26T08:04:43Z</time></trkpt><trkpt lat="46.31748854667811" lon="13.054574288180724"><ele>202.66666666666669</ele><time>2026-04-26T08:04:44Z</time></trkpt><trkpt lat="46.31742669773777" lon="13.054489020063132"><ele>203.33333333333334</ele><time>2026-04-26T08:04:45Z</time></trkpt><trkpt lat="46.31737636816912" lon="13.0543914915932"><ele>204.0</ele><time>2026-04-26T08:04:46Z</time></trkpt><trkpt lat="46.31733391400543" lon="13.054301818555269"><ele>204.0</ele><time>2026-04-26T08:04:47Z</time></trkpt><trkpt lat="46.31727699253837" lon="13.054169182959646"><ele>204.0</ele><time>2026-04-26T08:04:49Z</time></trkpt><trkpt lat="46.317228618242396" lon="13.05398525345562"><ele>204.0</ele><time>2026-04-26T08:04:51Z</time></trkpt><trkpt lat="46.317197257526736" lon="13.053854810474864"><ele>204.0</ele><time>2026-04-26T08:04:52Z</time></trkpt><trkpt lat="46.317175481043805" lon="13.053717537118061"><ele>204.0</ele><time>2026-04-26T08:04:53Z</time></trkpt><trkpt lat="46.31715721522909" lon="13.05360299393765"><ele>204.39999999999998</ele><time>2026-04-26T08:04:54Z</time></trkpt><trkpt lat="46.31712050483171" lon="13.05351663261998"><ele>204.8</ele><time>2026-04-26T08:04:55Z</time></trkpt><trkpt lat="46.31706990746431" lon="13.0534451849378"><ele>205.2</ele><time>2026-04-26T08:04:56Z</time></trkpt><trkpt lat="46.31699315071216" lon="13.053396869881624"><ele>205.60000000000002</ele><time>2026-04-26T08:04:57Z</time></trkpt><trkpt lat="46.3168737264381" lon="13.053379173289585"><ele>206.0</ele><time>2026-04-26T08:04:58Z</time></trkpt><trkpt lat="46.31673113854313" lon="13.053363739972138"><ele>206.0</ele><time>2026-04-26T08:04:59Z</time></trkpt><trkpt lat="46.316595712985965" lon="13.053312335822982"><ele>206.0</ele><time>2026-04-26T08:05:00Z</time></trkpt><trkpt lat="46.31648888594906" lon="13.05326200485665"><ele>206.0</ele><time>2026-04-26T08:05:01Z</time></trkpt><trkpt lat="46.31639126659374" lon="13.053215699453736"><ele>206.0</ele><time>2026-04-26T08:05:02Z</time></trkpt><trkpt lat="46.31629407755218" lon="13.053169944955556"><ele>205.8</ele><time>2026-04-26T08:05:03Z</time></trkpt><trkpt lat="46.31619556662099" lon="13.053145725114135"><ele>205.60000000000002</ele><time>2026-04-26T08:05:04Z</time></trkpt><trkpt lat="46.316094153494646" lon="13.053092886945082"><ele>205.4</ele><time>2026-04-26T08:05:05Z</time></trkpt><trkpt lat="46.31598271318255" lon="13.05303208450356"><ele>205.2</ele><time>2026-04-26T08:05:06Z</time></trkpt><trkpt lat="46.31588052855814" lon="13.052974038906358"><ele>205.0</ele><time>2026-04-26T08:05:07Z</time></trkpt><trkpt lat="46.31579141006011" lon="13.052915692149526"><ele>205.0</ele><time>2026-04-26T08:05:08Z</time></trkpt><trkpt lat="46.31570593683366" lon="13.052851743359131"><ele>205.0</ele><time>2026-04-26T08:05:09Z</time></trkpt><trkpt lat="46.31559892246922" lon="13.052781007504699"><ele>205.0</ele><time>2026-04-26T08:05:10Z</time></trkpt><trkpt lat="46.315482881923415" lon="13.05271123085656"><ele>205.0</ele><time>2026-04-26T08:05:11Z</time></trkpt><trkpt lat="46.31536744497727" lon="13.052670202017527"><ele>204.75</ele><time>2026-04-26T08:05:12Z</time></trkpt><trkpt lat="46.315249455663405" lon="13.05266209144365"><ele>204.5</ele><time>2026-04-26T08:05:13Z</time></trkpt><trkpt lat="46.31513496474725" lon="13.052670601301736"><ele>204.25</ele><time>2026-04-26T08:05:14Z</time></trkpt><trkpt lat="46.3150152438914" lon="13.05268237378169"><ele>204.0</ele><time>2026-04-26T08:05:15Z</time></trkpt><trkpt lat="46.31488952218105" lon="13.052692832980716"><ele>204.0</ele><time>2026-04-26T08:05:16Z</time></trkpt><trkpt lat="46.314775065222086" lon="13.05269364165681"><ele>204.0</ele><time>2026-04-26T08:05:17Z</time></trkpt><trkpt lat="46.314663795166595" lon="13.05268301362965"><ele>204.0</ele><time>2026-04-26T08:05:18Z</time></trkpt><trkpt lat="46.31454664358837" lon="13.052692186136555"><ele>204.0</ele><time>2026-04-26T08:05:19Z</time></trkpt><trkpt lat="46.31442847646756" lon="13.052739145561782"><ele>203.75</ele><time>2026-04-26T08:05:20Z</time></trkpt><trkpt lat="46.31430865166441" lon="13.052804703118532"><ele>203.5</ele><time>2026-04-26T08:05:21Z</time></trkpt><trkpt lat="46.314178665957336" lon="13.052879406991806"><ele>203.25</ele><time>2026-04-26T08:05:22Z</time></trkpt><trkpt lat="46.31403138838259" lon="13.052960329004286"><ele>203.0</ele><time>2026-04-26T08:05:23Z</time></trkpt><trkpt lat="46.31387920848728" lon="13.053037795078263"><ele>203.25</ele><time>2026-04-26T08:05:24Z</time></trkpt><trkpt lat="46.31374984734755" lon="13.05311186394634"><ele>203.5</ele><time>2026-04-26T08:05:25Z</time></trkpt><trkpt lat="46.31363465744463" lon="13.053181521277045"><ele>203.75</ele><time>2026-04-26T08:05:26Z</time></trkpt><trkpt lat="46.31352312689877" lon="13.0532397197391"><ele>204.0</ele><time>2026-04-26T08:05:27Z</time></trkpt><trkpt lat="46.313418709182635" lon="13.053295417658779"><ele>204.0</ele><time>2026-04-26T08:05:28Z</time></trkpt><trkpt lat="46.31330691454504" lon="13.053355697852984"><ele>204.0</ele><time>2026-04-26T08:05:29Z</time></trkpt><trkpt lat="46.313195127986106" lon="13.05341870481713"><ele>204.0</ele><time>2026-04-26T08:05:30Z</time></trkpt><trkpt lat="46.31307923410962" lon="13.053488522254625"><ele>204.0</ele><time>2026-04-26T08:05:31Z</time></trkpt><trkpt lat="46.31295302455929" lon="13.053591712941772"><ele>203.75</ele><time>2026-04-26T08:05:32Z</time></trkpt><trkpt lat="46.31283401459155" lon="13.053704682348561"><ele>203.5</ele><time>2026-04-26T08:05:33Z</time></trkpt><trkpt lat="46.312725667329985" lon="13.053794519367719"><ele>203.25</ele><time>2026-04-26T08:05:34Z</time></trkpt><trkpt lat="46.31263582887252" lon="13.053895457798708"><ele>203.0</ele><time>2026-04-26T08:05:35Z</time></trkpt><trkpt lat="46.31254386869551" lon="13.053980588994039"><ele>203.0</ele><time>2026-04-26T08:05:36Z</time></trkpt><trkpt lat="46.31244616418714" lon="13.054067795325466"><ele>203.0</ele><time>2026-04-26T08:05:37Z</time></trkpt><trkpt lat="46.31233495351552" lon="13.054166382571433"><ele>203.0</ele><time>2026-04-26T08:05:38Z</time></trkpt><trkpt lat="46.31222089067125" lon="13.054270984571803"><ele>203.0</ele><time>2026-04-26T08:05:39Z</time></trkpt><trkpt lat="46.3121095357257" lon="13.05436941243409"><ele>202.25</ele><time>2026-04-26T08:05:40Z</time></trkpt><trkpt lat="46.31200624050535" lon="13.054459477460057"><ele>201.5</ele><time>2026-04-26T08:05:41Z</time></trkpt><trkpt lat="46.311915247804194" lon="13.054547422550966"><ele>200.75</ele><time>2026-04-26T08:05:42Z</time></trkpt><trkpt lat="46.31182356154738" lon="13.054637472652322"><ele>200.0</ele><time>2026-04-26T08:05:43Z</time></trkpt><trkpt lat="46.311729808839" lon="13.054726729674117"><ele>200.0</ele><time>2026-04-26T08:05:44Z</time></trkpt><trkpt lat="46.31162827334463" lon="13.054822249946286"><ele>200.0</ele><time>2026-04-26T08:05:45Z</time></trkpt><trkpt lat="46.31152122326976" lon="13.054921282048253"><ele>200.0</ele><time>2026-04-26T08:05:46Z</time></trkpt><trkpt lat="46.3114124387809" lon="13.055021972102944"><ele>200.0</ele><time>2026-04-26T08:05:47Z</time></trkpt><trkpt lat="46.31130124215672" lon="13.055128333931323"><ele>200.0</ele><time>2026-04-26T08:05:48Z</time></trkpt><trkpt lat="46.31119240384572" lon="13.055228915036816"><ele>200.0</ele><time>2026-04-26T08:05:49Z</time></trkpt><trkpt lat="46.31108673765857" lon="13.05532529357493"><ele>200.0</ele><time>2026-04-26T08:05:50Z</time></trkpt><trkpt lat="46.31098720039565" lon="13.055417391903898"><ele>200.0</ele><time>2026-04-26T08:05:51Z</time></trkpt><trkpt lat="46.31089322877649" lon="13.055504382852634"><ele>200.0</ele><time>2026-04-26T08:05:52Z</time></trkpt><trkpt lat="46.310791813633465" lon="13.055596922643202"><ele>200.0</ele><time>2026-04-26T08:05:53Z</time></trkpt><trkpt lat="46.31068536471522" lon="13.055691855697177"><ele>200.0</ele><time>2026-04-26T08:05:54Z</time></trkpt><trkpt lat="46.310586835976316" lon="13.05578289721636"><ele>200.0</ele><time>2026-04-26T08:05:55Z</time></trkpt><trkpt lat="46.310497309262416" lon="13.055863691596006"><ele>199.83333333333334</ele><time>2026-04-26T08:05:56Z</time></trkpt><trkpt lat="46.31041758103425" lon="13.055934722880199"><ele>199.66666666666669</ele><time>2026-04-26T08:05:57Z</time></trkpt><trkpt lat="46.310345478000265" lon="13.056005625787813"><ele>199.5</ele><time>2026-04-26T08:05:58Z</time></trkpt><trkpt lat="46.310274801556844" lon="13.056072602852826"><ele>199.33333333333331</ele><time>2026-04-26T08:05:59Z</time></trkpt><trkpt lat="46.31020290720147" lon="13.056141246327858"><ele>199.16666666666666</ele><time>2026-04-26T08:06:00Z</time></trkpt><trkpt lat="46.31013234779916" lon="13.056204371160664"><ele>199.0</ele><time>2026-04-26T08:06:01Z</time></trkpt><trkpt lat="46.31006981277711" lon="13.056259820383936"><ele>199.0</ele><time>2026-04-26T08:06:02Z</time></trkpt><trkpt lat="46.30999054487535" lon="13.05641419379433"><ele>199.0</ele><time>2026-04-26T08:06:04Z</time></trkpt><trkpt lat="46.309919816573874" lon="13.05655391591256"><ele>199.0</ele><time>2026-04-26T08:06:05Z</time></trkpt><trkpt lat="46.309685766828196" lon="13.05659875903644"><ele>198.0</ele><time>2026-04-26T08:06:06Z</time></trkpt><trkpt lat="46.30950352052642" lon="13.056766089184551"><ele>197.0</ele><time>2026-04-26T08:06:07Z</time></trkpt><trkpt lat="46.309303629157476" lon="13.056950617844983"><ele>197.0</ele><time>2026-04-26T08:06:08Z</time></trkpt><trkpt lat="46.30892875939007" lon="13.057295236310027"><ele>197.0</ele><time>2026-04-26T08:06:10Z</time></trkpt><trkpt lat="46.308752553847036" lon="13.057455204777526"><ele>198.0</ele><time>2026-04-26T08:06:11Z</time></trkpt><trkpt lat="46.3085549087953" lon="13.0576319482971"><ele>199.0</ele><time>2026-04-26T08:06:12Z</time></trkpt><trkpt lat="46.308348267631736" lon="13.057825398129491"><ele>199.0</ele><time>2026-04-26T08:06:13Z</time></trkpt><trkpt lat="46.30814086998847" lon="13.058022086373589"><ele>199.0</ele><time>2026-04-26T08:06:14Z</time></trkpt><trkpt lat="46.30796142721758" lon="13.05818600169093"><ele>198.66666666666666</ele><time>2026-04-26T08:06:15Z</time></trkpt><trkpt lat="46.30779557400857" lon="13.058340034520812"><ele>198.33333333333331</ele><time>2026-04-26T08:06:16Z</time></trkpt><trkpt lat="46.307619341542704" lon="13.058505997529151"><ele>198.0</ele><time>2026-04-26T08:06:17Z</time></trkpt><trkpt lat="46.3074453235526" lon="13.05866560871533"><ele>198.0</ele><time>2026-04-26T08:06:18Z</time></trkpt><trkpt lat="46.30727849179869" lon="13.058808952584732"><ele>198.0</ele><time>2026-04-26T08:06:19Z</time></trkpt><trkpt lat="46.307095911030395" lon="13.058974367961389"><ele>198.0</ele><time>2026-04-26T08:06:20Z</time></trkpt><trkpt lat="46.30691507861068" lon="13.05914452029917"><ele>198.0</ele><time>2026-04-26T08:06:21Z</time></trkpt><trkpt lat="46.30675716286585" lon="13.059296718214615"><ele>198.0</ele><time>2026-04-26T08:06:22Z</time></trkpt><trkpt lat="46.30661551526365" lon="13.059429521776082"><ele>198.0</ele><time>2026-04-26T08:06:23Z</time></trkpt><trkpt lat="46.30647379065174" lon="13.05955046761989"><ele>197.0</ele><time>2026-04-26T08:06:24Z</time></trkpt><trkpt lat="46.306312802858045" lon="13.05967094283029"><ele>196.0</ele><time>2026-04-26T08:06:25Z</time></trkpt><trkpt lat="46.30614356356599" lon="13.059799953421846"><ele>195.0</ele><time>2026-04-26T08:06:26Z</time></trkpt><trkpt lat="46.30596377587483" lon="13.059903685176453"><ele>196.0</ele><time>2026-04-26T08:06:27Z</time></trkpt><trkpt lat="46.305726032833284" lon="13.059988941751767"><ele>197.0</ele><time>2026-04-26T08:06:28Z</time></trkpt><trkpt lat="46.305516073817465" lon="13.060068598679393"><ele>197.0</ele><time>2026-04-26T08:06:29Z</time></trkpt><trkpt lat="46.3053259228269" lon="13.060134656406465"><ele>197.0</ele><time>2026-04-26T08:06:30Z</time></trkpt><trkpt lat="46.30514379851436" lon="13.060195346338135"><ele>197.0</ele><time>2026-04-26T08:06:31Z</time></trkpt><trkpt lat="46.30497228724362" lon="13.060248496821632"><ele>197.0</ele><time>2026-04-26T08:06:32Z</time></trkpt><trkpt lat="46.30478584053829" lon="13.06030806585973"><ele>197.0</ele><time>2026-04-26T08:06:33Z</time></trkpt><trkpt lat="46.30459770410027" lon="13.060369084167709"><ele>197.0</ele><time>2026-04-26T08:06:34Z</time></trkpt><trkpt lat="46.304401254192655" lon="13.060430666449783"><ele>196.5</ele><time>2026-04-26T08:06:35Z</time></trkpt><trkpt lat="46.304183477860285" lon="13.06050000306168"><ele>196.0</ele><time>2026-04-26T08:06:36Z</time></trkpt><trkpt lat="46.303962053698676" lon="13.060579649865959"><ele>196.0</ele><time>2026-04-26T08:06:37Z</time></trkpt><trkpt lat="46.3037438028636" lon="13.06065791404306"><ele>196.0</ele><time>2026-04-26T08:06:38Z</time></trkpt><trkpt lat="46.30351427901003" lon="13.06072561881584"><ele>196.5</ele><time>2026-04-26T08:06:39Z</time></trkpt><trkpt lat="46.30327588591833" lon="13.060807954463245"><ele>197.0</ele><time>2026-04-26T08:06:40Z</time></trkpt><trkpt lat="46.30303563376189" lon="13.06089154057999"><ele>194.5</ele><time>2026-04-26T08:06:41Z</time></trkpt><trkpt lat="46.30279602333664" lon="13.060969734052202"><ele>192.0</ele><time>2026-04-26T08:06:42Z</time></trkpt><trkpt lat="46.30254851055962" lon="13.061057939006798"><ele>192.0</ele><time>2026-04-26T08:06:43Z</time></trkpt><trkpt lat="46.3022661027295" lon="13.06116095777324"><ele>192.0</ele><time>2026-04-26T08:06:44Z</time></trkpt><trkpt lat="46.30196159420652" lon="13.061256235900153"><ele>193.0</ele><time>2026-04-26T08:06:45Z</time></trkpt><trkpt lat="46.30168213401479" lon="13.061345214950691"><ele>194.0</ele><time>2026-04-26T08:06:46Z</time></trkpt><trkpt lat="46.30142671225554" lon="13.061430985718603"><ele>195.0</ele><time>2026-04-26T08:06:47Z</time></trkpt><trkpt lat="46.301184667064454" lon="13.061518088661508"><ele>196.0</ele><time>2026-04-26T08:06:48Z</time></trkpt><trkpt lat="46.30091352215175" lon="13.0616060661172"><ele>195.5</ele><time>2026-04-26T08:06:49Z</time></trkpt><trkpt lat="46.3006695324906" lon="13.061684662755477"><ele>195.0</ele><time>2026-04-26T08:06:50Z</time></trkpt><trkpt lat="46.3004457233833" lon="13.06175827651618"><ele>194.66666666666669</ele><time>2026-04-26T08:06:51Z</time></trkpt><trkpt lat="46.30024002846214" lon="13.061830960536444"><ele>194.33333333333334</ele><time>2026-04-26T08:06:52Z</time></trkpt><trkpt lat="46.300030853661" lon="13.061899125437492"><ele>194.0</ele><time>2026-04-26T08:06:53Z</time></trkpt><trkpt lat="46.29979096051008" lon="13.06198203056046"><ele>193.5</ele><time>2026-04-26T08:06:54Z</time></trkpt><trkpt lat="46.29952642281926" lon="13.062075505841271"><ele>193.0</ele><time>2026-04-26T08:06:55Z</time></trkpt><trkpt lat="46.299243754180786" lon="13.062167160504375"><ele>193.0</ele><time>2026-04-26T08:06:56Z</time></trkpt><trkpt lat="46.29895632902596" lon="13.06224679398807"><ele>193.0</ele><time>2026-04-26T08:06:57Z</time></trkpt><trkpt lat="46.29865578935374" lon="13.062326101508997"><ele>192.5</ele><time>2026-04-26T08:06:58Z</time></trkpt><trkpt lat="46.29832404017371" lon="13.062405397073464"><ele>192.0</ele><time>2026-04-26T08:06:59Z</time></trkpt><trkpt lat="46.29797364904257" lon="13.06248546726756"><ele>192.0</ele><time>2026-04-26T08:07:00Z</time></trkpt><trkpt lat="46.297617292244816" lon="13.062564539412628"><ele>192.0</ele><time>2026-04-26T08:07:01Z</time></trkpt><trkpt lat="46.29729895495295" lon="13.062634498476772"><ele>192.5</ele><time>2026-04-26T08:07:02Z</time></trkpt><trkpt lat="46.29700087245978" lon="13.062695833150876"><ele>193.0</ele><time>2026-04-26T08:07:03Z</time></trkpt><trkpt lat="46.29672007155226" lon="13.062755477273537"><ele>193.0</ele><time>2026-04-26T08:07:04Z</time></trkpt><trkpt lat="46.296435292201615" lon="13.062814378769426"><ele>193.0</ele><time>2026-04-26T08:07:05Z</time></trkpt><trkpt lat="46.29615084541486" lon="13.06287014591324"><ele>191.0</ele><time>2026-04-26T08:07:06Z</time></trkpt><trkpt lat="46.29589483820844" lon="13.062920526297953"><ele>189.0</ele><time>2026-04-26T08:07:07Z</time></trkpt><trkpt lat="46.29565703145121" lon="13.062971277552057"><ele>188.0</ele><time>2026-04-26T08:07:08Z</time></trkpt><trkpt lat="46.29543170270058" lon="13.0630157785124"><ele>187.0</ele><time>2026-04-26T08:07:09Z</time></trkpt><trkpt lat="46.2951941846379" lon="13.063062225672422"><ele>187.0</ele><time>2026-04-26T08:07:10Z</time></trkpt><trkpt lat="46.29494431199169" lon="13.063117121490912"><ele>187.0</ele><time>2026-04-26T08:07:11Z</time></trkpt><trkpt lat="46.2947187257583" lon="13.063172107866562"><ele>187.33333333333334</ele><time>2026-04-26T08:07:12Z</time></trkpt><trkpt lat="46.29450931084522" lon="13.063222056448788"><ele>187.66666666666666</ele><time>2026-04-26T08:07:13Z</time></trkpt><trkpt lat="46.29431779297726" lon="13.063266756083612"><ele>188.0</ele><time>2026-04-26T08:07:14Z</time></trkpt><trkpt lat="46.294127473795555" lon="13.06332629390379"><ele>189.5</ele><time>2026-04-26T08:07:15Z</time></trkpt><trkpt lat="46.293921099930806" lon="13.063422363950085"><ele>191.0</ele><time>2026-04-26T08:07:16Z</time></trkpt><trkpt lat="46.29368854158742" lon="13.063559895535194"><ele>191.0</ele><time>2026-04-26T08:07:17Z</time></trkpt><trkpt lat="46.29346233286325" lon="13.063686596970296"><ele>191.0</ele><time>2026-04-26T08:07:18Z</time></trkpt><trkpt lat="46.29325540777751" lon="13.063794447912315"><ele>188.5</ele><time>2026-04-26T08:07:19Z</time></trkpt><trkpt lat="46.293057626963936" lon="13.06389859989931"><ele>186.0</ele><time>2026-04-26T08:07:20Z</time></trkpt><trkpt lat="46.29282133044694" lon="13.064011036296273"><ele>186.0</ele><time>2026-04-26T08:07:21Z</time></trkpt><trkpt lat="46.292564141483155" lon="13.064100723039708"><ele>186.0</ele><time>2026-04-26T08:07:22Z</time></trkpt><trkpt lat="46.29231085493186" lon="13.064174832746257"><ele>187.0</ele><time>2026-04-26T08:07:23Z</time></trkpt><trkpt lat="46.29208206257406" lon="13.064247878760868"><ele>188.0</ele><time>2026-04-26T08:07:24Z</time></trkpt><trkpt lat="46.291868291637854" lon="13.064318042784754"><ele>188.0</ele><time>2026-04-26T08:07:25Z</time></trkpt><trkpt lat="46.29167009192945" lon="13.064382121160081"><ele>188.0</ele><time>2026-04-26T08:07:26Z</time></trkpt><trkpt lat="46.29147477832102" lon="13.064443898462532"><ele>188.0</ele><time>2026-04-26T08:07:27Z</time></trkpt><trkpt lat="46.29127498326415" lon="13.064498069694945"><ele>187.66666666666666</ele><time>2026-04-26T08:07:28Z</time></trkpt><trkpt lat="46.29106841450011" lon="13.064550224180964"><ele>187.33333333333334</ele><time>2026-04-26T08:07:29Z</time></trkpt><trkpt lat="46.29090850754594" lon="13.064518467302216"><ele>187.0</ele><time>2026-04-26T08:07:30Z</time></trkpt><trkpt lat="46.29070111730487" lon="13.064483185685592"><ele>187.5</ele><time>2026-04-26T08:07:31Z</time></trkpt><trkpt lat="46.29046607371493" lon="13.064427932781784"><ele>188.0</ele><time>2026-04-26T08:07:32Z</time></trkpt><trkpt lat="46.29022516329271" lon="13.064384656824945"><ele>188.0</ele><time>2026-04-26T08:07:33Z</time></trkpt><trkpt lat="46.289977536120226" lon="13.064324839559765"><ele>188.0</ele><time>2026-04-26T08:07:34Z</time></trkpt><trkpt lat="46.289753118493934" lon="13.064277688875967"><ele>188.33333333333331</ele><time>2026-04-26T08:07:35Z</time></trkpt><trkpt lat="46.28955552036713" lon="13.064228660751947"><ele>188.66666666666666</ele><time>2026-04-26T08:07:36Z</time></trkpt><trkpt lat="46.28937405854356" lon="13.064176890067044"><ele>189.0</ele><time>2026-04-26T08:07:37Z</time></trkpt><trkpt lat="46.289192611594125" lon="13.064133622089035"><ele>188.66666666666666</ele><time>2026-04-26T08:07:38Z</time></trkpt><trkpt lat="46.288981821397485" lon="13.064096001224588"><ele>188.33333333333331</ele><time>2026-04-26T08:07:39Z</time></trkpt><trkpt lat="46.288758284728466" lon="13.06404679538757"><ele>188.0</ele><time>2026-04-26T08:07:40Z</time></trkpt><trkpt lat="46.288522443317646" lon="13.064010303337962"><ele>188.0</ele><time>2026-04-26T08:07:41Z</time></trkpt><trkpt lat="46.28829086890494" lon="13.064011578223875"><ele>188.0</ele><time>2026-04-26T08:07:42Z</time></trkpt><trkpt lat="46.288086059869975" lon="13.06401702996641"><ele>188.0</ele><time>2026-04-26T08:07:43Z</time></trkpt><trkpt lat="46.28787858093034" lon="13.064038871124366"><ele>187.0</ele><time>2026-04-26T08:07:44Z</time></trkpt><trkpt lat="46.28768833475185" lon="13.064054635322272"><ele>186.0</ele><time>2026-04-26T08:07:45Z</time></trkpt><trkpt lat="46.28751004307001" lon="13.06402574493011"><ele>185.0</ele><time>2026-04-26T08:07:46Z</time></trkpt><trkpt lat="46.287333800501436" lon="13.063974869252277"><ele>185.66666666666666</ele><time>2026-04-26T08:07:47Z</time></trkpt><trkpt lat="46.28715591260506" lon="13.06389147351666"><ele>186.33333333333334</ele><time>2026-04-26T08:07:48Z</time></trkpt><trkpt lat="46.28699331526066" lon="13.063803595115731"><ele>187.0</ele><time>2026-04-26T08:07:49Z</time></trkpt><trkpt lat="46.28684736338015" lon="13.063716299507666"><ele>187.0</ele><time>2026-04-26T08:07:50Z</time></trkpt><trkpt lat="46.28670183386722" lon="13.06363809566884"><ele>187.0</ele><time>2026-04-26T08:07:51Z</time></trkpt><trkpt lat="46.28655869100065" lon="13.063543866180293"><ele>187.0</ele><time>2026-04-26T08:07:52Z</time></trkpt><trkpt lat="46.28640613933984" lon="13.063462531982283"><ele>187.66666666666669</ele><time>2026-04-26T08:07:53Z</time></trkpt><trkpt lat="46.286257020264685" lon="13.063431972691205"><ele>188.33333333333334</ele><time>2026-04-26T08:07:54Z</time></trkpt><trkpt lat="46.28608701964508" lon="13.063439584445392"><ele>189.0</ele><time>2026-04-26T08:07:55Z</time></trkpt><trkpt lat="46.28591134939896" lon="13.063477715607354"><ele>189.0</ele><time>2026-04-26T08:07:56Z</time></trkpt><trkpt lat="46.28574597947524" lon="13.063538775675134"><ele>189.0</ele><time>2026-04-26T08:07:57Z</time></trkpt><trkpt lat="46.2855972175914" lon="13.063637889072258"><ele>189.0</ele><time>2026-04-26T08:07:58Z</time></trkpt><trkpt lat="46.28544092390342" lon="13.063772306990243"><ele>188.66666666666666</ele><time>2026-04-26T08:07:59Z</time></trkpt><trkpt lat="46.285281899800644" lon="13.063941587183338"><ele>188.33333333333331</ele><time>2026-04-26T08:08:00Z</time></trkpt><trkpt lat="46.2851460356093" lon="13.064097199284396"><ele>188.0</ele><time>2026-04-26T08:08:01Z</time></trkpt><trkpt lat="46.285029986186515" lon="13.0642461657308"><ele>187.66666666666666</ele><time>2026-04-26T08:08:02Z</time></trkpt><trkpt lat="46.2848980164974" lon="13.064428061302678"><ele>187.33333333333334</ele><time>2026-04-26T08:08:03Z</time></trkpt><trkpt lat="46.284771089765016" lon="13.064654856547579"><ele>187.0</ele><time>2026-04-26T08:08:04Z</time></trkpt><trkpt lat="46.28465293033825" lon="13.064917321381465"><ele>189.5</ele><time>2026-04-26T08:08:05Z</time></trkpt><trkpt lat="46.28453427660755" lon="13.06522392877234"><ele>192.0</ele><time>2026-04-26T08:08:06Z</time></trkpt><trkpt lat="46.28441372498084" lon="13.065568344134714"><ele>192.0</ele><time>2026-04-26T08:08:07Z</time></trkpt><trkpt lat="46.28429010320468" lon="13.065918374309494"><ele>192.0</ele><time>2026-04-26T08:08:08Z</time></trkpt><trkpt lat="46.28415291508371" lon="13.066267236217115"><ele>192.0</ele><time>2026-04-26T08:08:09Z</time></trkpt><trkpt lat="46.284034436110886" lon="13.066562002495138"><ele>192.0</ele><time>2026-04-26T08:08:10Z</time></trkpt><trkpt lat="46.28391773174428" lon="13.066820246618837"><ele>192.0</ele><time>2026-04-26T08:08:11Z</time></trkpt><trkpt lat="46.28379836804413" lon="13.067073355260728"><ele>192.33333333333331</ele><time>2026-04-26T08:08:12Z</time></trkpt><trkpt lat="46.28368434968958" lon="13.067323569033766"><ele>192.66666666666666</ele><time>2026-04-26T08:08:13Z</time></trkpt><trkpt lat="46.28357973972734" lon="13.067551324814461"><ele>193.0</ele><time>2026-04-26T08:08:14Z</time></trkpt><trkpt lat="46.283487720695256" lon="13.067772165083163"><ele>193.0</ele><time>2026-04-26T08:08:15Z</time></trkpt><trkpt lat="46.28339766435487" lon="13.068018998774782"><ele>193.0</ele><time>2026-04-26T08:08:16Z</time></trkpt><trkpt lat="46.283319886468" lon="13.06828461633178"><ele>193.0</ele><time>2026-04-26T08:08:17Z</time></trkpt><trkpt lat="46.28326656278891" lon="13.068533679553223"><ele>193.5</ele><time>2026-04-26T08:08:18Z</time></trkpt><trkpt lat="46.28322931590369" lon="13.068754610781626"><ele>194.0</ele><time>2026-04-26T08:08:19Z</time></trkpt><trkpt lat="46.2831941686087" lon="13.068928186019992"><ele>194.5</ele><time>2026-04-26T08:08:20Z</time></trkpt><trkpt lat="46.283161937171364" lon="13.069066249306731"><ele>195.0</ele><time>2026-04-26T08:08:21Z</time></trkpt><trkpt lat="46.283134428858936" lon="13.069177520659249"><ele>194.83333333333334</ele><time>2026-04-26T08:08:22Z</time></trkpt><trkpt lat="46.283106124272685" lon="13.069279364305705"><ele>194.66666666666669</ele><time>2026-04-26T08:08:23Z</time></trkpt><trkpt lat="46.28307839708599" lon="13.069374945931532"><ele>194.5</ele><time>2026-04-26T08:08:24Z</time></trkpt><trkpt lat="46.28302478505526" lon="13.069473716283749"><ele>194.33333333333334</ele><time>2026-04-26T08:08:25Z</time></trkpt><trkpt lat="46.28297159170406" lon="13.069582598366983"><ele>194.16666666666669</ele><time>2026-04-26T08:08:26Z</time></trkpt><trkpt lat="46.28297485852782" lon="13.069720733109538"><ele>194.0</ele><time>2026-04-26T08:08:27Z</time></trkpt><trkpt lat="46.28299802830646" lon="13.069902134482517"><ele>193.50000000000003</ele><time>2026-04-26T08:08:28Z</time></trkpt><trkpt lat="46.282999034583234" lon="13.070072598488979"><ele>193.0</ele><time>2026-04-26T08:08:29Z</time></trkpt><trkpt lat="46.28298620577752" lon="13.070187607289087"><ele>192.5</ele><time>2026-04-26T08:08:30Z</time></trkpt><trkpt lat="46.282966352494626" lon="13.070294107356062"><ele>192.0</ele><time>2026-04-26T08:08:31Z</time></trkpt><trkpt lat="46.28294440379485" lon="13.070401203131382"><ele>191.5</ele><time>2026-04-26T08:08:32Z</time></trkpt><trkpt lat="46.28293018870723" lon="13.070529486338314"><ele>191.0</ele><time>2026-04-26T08:08:33Z</time></trkpt><trkpt lat="46.282915316460574" lon="13.070675589233158"><ele>191.60000000000002</ele><time>2026-04-26T08:08:34Z</time></trkpt><trkpt lat="46.2828971876232" lon="13.070809951957937"><ele>192.2</ele><time>2026-04-26T08:08:35Z</time></trkpt><trkpt lat="46.28287996206261" lon="13.0709422276332"><ele>192.8</ele><time>2026-04-26T08:08:36Z</time></trkpt><trkpt lat="46.28286250023185" lon="13.071067088877069"><ele>193.39999999999998</ele><time>2026-04-26T08:08:37Z</time></trkpt><trkpt lat="46.28283965493006" lon="13.071214869830767"><ele>194.0</ele><time>2026-04-26T08:08:38Z</time></trkpt><trkpt lat="46.28281980220713" lon="13.07138200490827"><ele>194.0</ele><time>2026-04-26T08:08:39Z</time></trkpt><trkpt lat="46.282799360074705" lon="13.071546217439044"><ele>194.0</ele><time>2026-04-26T08:08:40Z</time></trkpt><trkpt lat="46.28277589209373" lon="13.07170669674879"><ele>194.0</ele><time>2026-04-26T08:08:41Z</time></trkpt><trkpt lat="46.282758192985035" lon="13.071866611888636"><ele>194.0</ele><time>2026-04-26T08:08:42Z</time></trkpt><trkpt lat="46.28274125398203" lon="13.072022939568674"><ele>194.25</ele><time>2026-04-26T08:08:43Z</time></trkpt><trkpt lat="46.282726472112245" lon="13.072177760954974"><ele>194.5</ele><time>2026-04-26T08:08:44Z</time></trkpt><trkpt lat="46.282715953547495" lon="13.072340311149512"><ele>194.75</ele><time>2026-04-26T08:08:45Z</time></trkpt><trkpt lat="46.28270397542454" lon="13.072509425126288"><ele>195.0</ele><time>2026-04-26T08:08:46Z</time></trkpt><trkpt lat="46.28268990708952" lon="13.072685994053144"><ele>195.0</ele><time>2026-04-26T08:08:47Z</time></trkpt><trkpt lat="46.28267599389733" lon="13.072863599820687"><ele>195.0</ele><time>2026-04-26T08:08:48Z</time></trkpt><trkpt lat="46.28266334364694" lon="13.073024263313183"><ele>195.0</ele><time>2026-04-26T08:08:49Z</time></trkpt><trkpt lat="46.28265011442592" lon="13.073170869327274"><ele>195.0</ele><time>2026-04-26T08:08:50Z</time></trkpt><trkpt lat="46.28264168964814" lon="13.073320371702057"><ele>195.0</ele><time>2026-04-26T08:08:51Z</time></trkpt><trkpt lat="46.28263361381089" lon="13.07347708197248"><ele>195.5</ele><time>2026-04-26T08:08:52Z</time></trkpt><trkpt lat="46.28262241772704" lon="13.073635567931026"><ele>196.0</ele><time>2026-04-26T08:08:53Z</time></trkpt><trkpt lat="46.28261166840687" lon="13.073798366121089"><ele>196.5</ele><time>2026-04-26T08:08:54Z</time></trkpt><trkpt lat="46.28260436147697" lon="13.073966420394994"><ele>197.0</ele><time>2026-04-26T08:08:55Z</time></trkpt><trkpt lat="46.28259934728335" lon="13.074136707697454"><ele>196.0</ele><time>2026-04-26T08:08:56Z</time></trkpt><trkpt lat="46.28259578895085" lon="13.07429153493357"><ele>195.0</ele><time>2026-04-26T08:08:57Z</time></trkpt><trkpt lat="46.28259697472195" lon="13.074439296403344"><ele>194.0</ele><time>2026-04-26T08:08:58Z</time></trkpt><trkpt lat="46.28258771938715" lon="13.074584935371881"><ele>193.0</ele><time>2026-04-26T08:08:59Z</time></trkpt><trkpt lat="46.28256870499684" lon="13.074727319055139"><ele>192.0</ele><time>2026-04-26T08:09:00Z</time></trkpt><trkpt lat="46.28253991654115" lon="13.074875094305009"><ele>192.0</ele><time>2026-04-26T08:09:01Z</time></trkpt><trkpt lat="46.282489224933975" lon="13.075026381684358"><ele>192.0</ele><time>2026-04-26T08:09:02Z</time></trkpt><trkpt lat="46.28242175770337" lon="13.07516780592098"><ele>192.0</ele><time>2026-04-26T08:09:03Z</time></trkpt><trkpt lat="46.28236451576057" lon="13.075287006032516"><ele>192.0</ele><time>2026-04-26T08:09:04Z</time></trkpt><trkpt lat="46.28231131191343" lon="13.07538138388434"><ele>192.0</ele><time>2026-04-26T08:09:05Z</time></trkpt><trkpt lat="46.2822542340918" lon="13.07547931399942"><ele>192.0</ele><time>2026-04-26T08:09:06Z</time></trkpt><trkpt lat="46.28219834755977" lon="13.075580385769047"><ele>192.0</ele><time>2026-04-26T08:09:07Z</time></trkpt><trkpt lat="46.28214678778809" lon="13.075697104063964"><ele>192.0</ele><time>2026-04-26T08:09:08Z</time></trkpt><trkpt lat="46.28210494029925" lon="13.07582201111796"><ele>192.0</ele><time>2026-04-26T08:09:09Z</time></trkpt><trkpt lat="46.28205724849485" lon="13.075969807314724"><ele>192.0</ele><time>2026-04-26T08:09:10Z</time></trkpt><trkpt lat="46.28201689939975" lon="13.076118991274424"><ele>192.0</ele><time>2026-04-26T08:09:11Z</time></trkpt><trkpt lat="46.281978798004985" lon="13.076268997128865"><ele>192.0</ele><time>2026-04-26T08:09:12Z</time></trkpt><trkpt lat="46.2819456702239" lon="13.076411041628191"><ele>192.0</ele><time>2026-04-26T08:09:13Z</time></trkpt><trkpt lat="46.28191877043127" lon="13.076553533936925"><ele>192.0</ele><time>2026-04-26T08:09:14Z</time></trkpt><trkpt lat="46.28189058613541" lon="13.07669853584126"><ele>192.0</ele><time>2026-04-26T08:09:15Z</time></trkpt><trkpt lat="46.28186058866193" lon="13.076840569400913"><ele>192.2</ele><time>2026-04-26T08:09:16Z</time></trkpt><trkpt lat="46.28183310656007" lon="13.076993383028265"><ele>192.39999999999998</ele><time>2026-04-26T08:09:17Z</time></trkpt><trkpt lat="46.28180640913945" lon="13.077148001657129"><ele>192.60000000000002</ele><time>2026-04-26T08:09:18Z</time></trkpt><trkpt lat="46.28177838786599" lon="13.077290432307727"><ele>192.8</ele><time>2026-04-26T08:09:19Z</time></trkpt><trkpt lat="46.28176363179822" lon="13.0773991249301"><ele>193.0</ele><time>2026-04-26T08:09:20Z</time></trkpt><trkpt lat="46.28175289283502" lon="13.077546828816478"><ele>193.33333333333331</ele><time>2026-04-26T08:09:21Z</time></trkpt><trkpt lat="46.28172754117643" lon="13.077747400055346"><ele>193.66666666666669</ele><time>2026-04-26T08:09:22Z</time></trkpt><trkpt lat="46.281671366648496" lon="13.078016367711253"><ele>194.0</ele><time>2026-04-26T08:09:23Z</time></trkpt><trkpt lat="46.28161699852364" lon="13.078302133489668"><ele>194.0</ele><time>2026-04-26T08:09:24Z</time></trkpt><trkpt lat="46.281572315339176" lon="13.078541655517064"><ele>194.0</ele><time>2026-04-26T08:09:25Z</time></trkpt><trkpt lat="46.28153544270009" lon="13.078719879996427"><ele>194.0</ele><time>2026-04-26T08:09:26Z</time></trkpt><trkpt lat="46.28150299582499" lon="13.078873826212726"><ele>194.0</ele><time>2026-04-26T08:09:27Z</time></trkpt><trkpt lat="46.28147177923999" lon="13.07902100336616"><ele>194.0</ele><time>2026-04-26T08:09:28Z</time></trkpt><trkpt lat="46.28144023508656" lon="13.07916768402134"><ele>194.0</ele><time>2026-04-26T08:09:29Z</time></trkpt><trkpt lat="46.28140249847126" lon="13.07931378402456"><ele>194.0</ele><time>2026-04-26T08:09:30Z</time></trkpt><trkpt lat="46.281364395437535" lon="13.079463139393058"><ele>194.0</ele><time>2026-04-26T08:09:31Z</time></trkpt><trkpt lat="46.28132724580235" lon="13.079615111286762"><ele>194.0</ele><time>2026-04-26T08:09:32Z</time></trkpt><trkpt lat="46.28128780446576" lon="13.079764724706921"><ele>193.0</ele><time>2026-04-26T08:09:33Z</time></trkpt><trkpt lat="46.28125191228024" lon="13.079920385129169"><ele>192.0</ele><time>2026-04-26T08:09:34Z</time></trkpt><trkpt lat="46.28121677097562" lon="13.080115751542568"><ele>191.0</ele><time>2026-04-26T08:09:35Z</time></trkpt><trkpt lat="46.28119157437693" lon="13.080378540151397"><ele>190.0</ele><time>2026-04-26T08:09:36Z</time></trkpt><trkpt lat="46.28118292860766" lon="13.080632315735198"><ele>191.25</ele><time>2026-04-26T08:09:37Z</time></trkpt><trkpt lat="46.28117573444315" lon="13.080834077254421"><ele>192.5</ele><time>2026-04-26T08:09:38Z</time></trkpt><trkpt lat="46.281163009566136" lon="13.081014976266193"><ele>193.75</ele><time>2026-04-26T08:09:39Z</time></trkpt><trkpt lat="46.281152312795335" lon="13.081180587165347"><ele>195.0</ele><time>2026-04-26T08:09:40Z</time></trkpt><trkpt lat="46.28114705469064" lon="13.081317924124008"><ele>195.0</ele><time>2026-04-26T08:09:41Z</time></trkpt><trkpt lat="46.28114347032246" lon="13.081427444328478"><ele>195.0</ele><time>2026-04-26T08:09:42Z</time></trkpt><trkpt lat="46.28111214403296" lon="13.081578847514525"><ele>195.0</ele><time>2026-04-26T08:09:44Z</time></trkpt><trkpt lat="46.28107881036733" lon="13.08167990308891"><ele>195.0</ele><time>2026-04-26T08:09:45Z</time></trkpt><trkpt lat="46.281041495680256" lon="13.081790779034076"><ele>195.0</ele><time>2026-04-26T08:09:46Z</time></trkpt><trkpt lat="46.28104823793071" lon="13.081887245042765"><ele>195.0</ele><time>2026-04-26T08:09:47Z</time></trkpt><trkpt lat="46.28109004068911" lon="13.081964687635951"><ele>195.6</ele><time>2026-04-26T08:09:48Z</time></trkpt><trkpt lat="46.281160699510664" lon="13.08204049224028"><ele>196.2</ele><time>2026-04-26T08:09:49Z</time></trkpt><trkpt lat="46.28123411454448" lon="13.082127777278988"><ele>196.8</ele><time>2026-04-26T08:09:50Z</time></trkpt><trkpt lat="46.28128481613627" lon="13.082241658889354"><ele>197.4</ele><time>2026-04-26T08:09:51Z</time></trkpt><trkpt lat="46.28132427474605" lon="13.082387051458275"><ele>198.0</ele><time>2026-04-26T08:09:52Z</time></trkpt><trkpt lat="46.28135172976444" lon="13.08251280717575"><ele>198.0</ele><time>2026-04-26T08:09:53Z</time></trkpt><trkpt lat="46.28137936852104" lon="13.082625575028645"><ele>198.0</ele><time>2026-04-26T08:09:54Z</time></trkpt><trkpt lat="46.28140345301912" lon="13.08274046326903"><ele>198.0</ele><time>2026-04-26T08:09:55Z</time></trkpt><trkpt lat="46.281421833054516" lon="13.082842582403146"><ele>198.0</ele><time>2026-04-26T08:09:56Z</time></trkpt><trkpt lat="46.28144942378262" lon="13.082968070237223"><ele>198.0</ele><time>2026-04-26T08:09:57Z</time></trkpt><trkpt lat="46.28148063589893" lon="13.083112209744073"><ele>198.0</ele><time>2026-04-26T08:09:58Z</time></trkpt><trkpt lat="46.28150818422756" lon="13.083255822642391"><ele>200.83333333333334</ele><time>2026-04-26T08:09:59Z</time></trkpt><trkpt lat="46.281531710975344" lon="13.08338681425647"><ele>203.66666666666669</ele><time>2026-04-26T08:10:00Z</time></trkpt><trkpt lat="46.2815578989213" lon="13.083508156216006"><ele>206.5</ele><time>2026-04-26T08:10:01Z</time></trkpt><trkpt lat="46.28158704225262" lon="13.083628966444385"><ele>209.33333333333334</ele><time>2026-04-26T08:10:02Z</time></trkpt><trkpt lat="46.281613909052325" lon="13.08374781196525"><ele>212.16666666666669</ele><time>2026-04-26T08:10:03Z</time></trkpt><trkpt lat="46.281637821554575" lon="13.083868874434836"><ele>215.0</ele><time>2026-04-26T08:10:04Z</time></trkpt><trkpt lat="46.281655081988575" lon="13.083985480125097"><ele>214.00000000000003</ele><time>2026-04-26T08:10:05Z</time></trkpt><trkpt lat="46.281667071503186" lon="13.084103729354853"><ele>213.0</ele><time>2026-04-26T08:10:06Z</time></trkpt><trkpt lat="46.28168132018418" lon="13.0842250100265"><ele>212.0</ele><time>2026-04-26T08:10:07Z</time></trkpt><trkpt lat="46.28169306279657" lon="13.084353561336778"><ele>211.0</ele><time>2026-04-26T08:10:08Z</time></trkpt><trkpt lat="46.281700636115126" lon="13.084485969234992"><ele>210.00000000000003</ele><time>2026-04-26T08:10:09Z</time></trkpt><trkpt lat="46.28170916986808" lon="13.084617985971043"><ele>209.0</ele><time>2026-04-26T08:10:10Z</time></trkpt><trkpt lat="46.28171687084941" lon="13.084748103866264"><ele>209.00000000000003</ele><time>2026-04-26T08:10:11Z</time></trkpt><trkpt lat="46.2817272910559" lon="13.084872130863554"><ele>209.0</ele><time>2026-04-26T08:10:12Z</time></trkpt><trkpt lat="46.28173823593407" lon="13.08498465380883"><ele>209.0</ele><time>2026-04-26T08:10:13Z</time></trkpt><trkpt lat="46.28174642831251" lon="13.085095759407386"><ele>209.0</ele><time>2026-04-26T08:10:14Z</time></trkpt><trkpt lat="46.281765345783555" lon="13.085211582256738"><ele>209.00000000000003</ele><time>2026-04-26T08:10:15Z</time></trkpt><trkpt lat="46.281781302336974" lon="13.085345630026735"><ele>209.0</ele><time>2026-04-26T08:10:16Z</time></trkpt><trkpt lat="46.28179666279799" lon="13.085488837865197"><ele>208.16666666666669</ele><time>2026-04-26T08:10:17Z</time></trkpt><trkpt lat="46.28180263092977" lon="13.085619096854707"><ele>207.33333333333334</ele><time>2026-04-26T08:10:18Z</time></trkpt><trkpt lat="46.28181033073837" lon="13.085751616998092"><ele>206.5</ele><time>2026-04-26T08:10:19Z</time></trkpt><trkpt lat="46.28182059390518" lon="13.085867283111634"><ele>205.66666666666669</ele><time>2026-04-26T08:10:20Z</time></trkpt><trkpt lat="46.28182882821693" lon="13.08597737686185"><ele>204.83333333333334</ele><time>2026-04-26T08:10:21Z</time></trkpt><trkpt lat="46.281833743033715" lon="13.086084244101777"><ele>204.0</ele><time>2026-04-26T08:10:22Z</time></trkpt><trkpt lat="46.28184412482708" lon="13.086192212979837"><ele>202.83333333333334</ele><time>2026-04-26T08:10:23Z</time></trkpt><trkpt lat="46.281850723991504" lon="13.086292025868492"><ele>201.66666666666669</ele><time>2026-04-26T08:10:24Z</time></trkpt><trkpt lat="46.28185998618291" lon="13.086403982942672"><ele>200.5</ele><time>2026-04-26T08:10:25Z</time></trkpt><trkpt lat="46.28187167502899" lon="13.08651835415415"><ele>199.33333333333334</ele><time>2026-04-26T08:10:26Z</time></trkpt><trkpt lat="46.28188340672095" lon="13.086633010450145"><ele>198.16666666666669</ele><time>2026-04-26T08:10:27Z</time></trkpt><trkpt lat="46.28189770676798" lon="13.086744938827618"><ele>197.0</ele><time>2026-04-26T08:10:28Z</time></trkpt><trkpt lat="46.281905006909476" lon="13.08685446060789"><ele>196.83333333333334</ele><time>2026-04-26T08:10:29Z</time></trkpt><trkpt lat="46.281916120468196" lon="13.08697049803662"><ele>196.66666666666669</ele><time>2026-04-26T08:10:30Z</time></trkpt><trkpt lat="46.28193471475293" lon="13.087090808265383"><ele>196.5</ele><time>2026-04-26T08:10:31Z</time></trkpt><trkpt lat="46.281959534804685" lon="13.087211259253015"><ele>196.33333333333331</ele><time>2026-04-26T08:10:32Z</time></trkpt><trkpt lat="46.28198207358187" lon="13.087326901499155"><ele>196.16666666666666</ele><time>2026-04-26T08:10:33Z</time></trkpt><trkpt lat="46.28200786813602" lon="13.087438728089134"><ele>196.0</ele><time>2026-04-26T08:10:34Z</time></trkpt><trkpt lat="46.28204126138128" lon="13.087543589555226"><ele>195.99999999999997</ele><time>2026-04-26T08:10:35Z</time></trkpt><trkpt lat="46.282069383408505" lon="13.087643144755482"><ele>196.0</ele><time>2026-04-26T08:10:36Z</time></trkpt><trkpt lat="46.28209582723427" lon="13.087750226784728"><ele>196.0</ele><time>2026-04-26T08:10:37Z</time></trkpt><trkpt lat="46.2821269889335" lon="13.087855909184942"><ele>196.0</ele><time>2026-04-26T08:10:38Z</time></trkpt><trkpt lat="46.28215897938778" lon="13.087964335918796"><ele>195.99999999999997</ele><time>2026-04-26T08:10:39Z</time></trkpt><trkpt lat="46.28219404611708" lon="13.088074271377048"><ele>196.0</ele><time>2026-04-26T08:10:40Z</time></trkpt><trkpt lat="46.28222789702073" lon="13.088181694735974"><ele>195.99999999999997</ele><time>2026-04-26T08:10:41Z</time></trkpt><trkpt lat="46.28225465415332" lon="13.08829011444704"><ele>196.0</ele><time>2026-04-26T08:10:42Z</time></trkpt><trkpt lat="46.28228334085118" lon="13.088390992012679"><ele>196.0</ele><time>2026-04-26T08:10:43Z</time></trkpt><trkpt lat="46.282313956781465" lon="13.088496931745008"><ele>196.0</ele><time>2026-04-26T08:10:44Z</time></trkpt><trkpt lat="46.282352302091354" lon="13.088616557384567"><ele>195.99999999999997</ele><time>2026-04-26T08:10:45Z</time></trkpt><trkpt lat="46.282392970679325" lon="13.088737783784525"><ele>196.0</ele><time>2026-04-26T08:10:46Z</time></trkpt><trkpt lat="46.282425235337264" lon="13.088862895078396"><ele>195.99999999999997</ele><time>2026-04-26T08:10:47Z</time></trkpt><trkpt lat="46.282457954494134" lon="13.088984441474334"><ele>196.0</ele><time>2026-04-26T08:10:48Z</time></trkpt><trkpt lat="46.28249032757739" lon="13.089101330562753"><ele>196.0</ele><time>2026-04-26T08:10:49Z</time></trkpt><trkpt lat="46.28252413421303" lon="13.089216243241536"><ele>196.0</ele><time>2026-04-26T08:10:50Z</time></trkpt><trkpt lat="46.282562002048614" lon="13.089327586131843"><ele>195.99999999999997</ele><time>2026-04-26T08:10:51Z</time></trkpt><trkpt lat="46.282600961499654" lon="13.089444681569107"><ele>196.0</ele><time>2026-04-26T08:10:52Z</time></trkpt><trkpt lat="46.28263597006434" lon="13.089564049951623"><ele>196.4</ele><time>2026-04-26T08:10:53Z</time></trkpt><trkpt lat="46.282673509559196" lon="13.089687946452603"><ele>196.8</ele><time>2026-04-26T08:10:54Z</time></trkpt><trkpt lat="46.28271349836837" lon="13.089808185778976"><ele>197.20000000000002</ele><time>2026-04-26T08:10:55Z</time></trkpt><trkpt lat="46.282760771443606" lon="13.089936873521944"><ele>197.60000000000002</ele><time>2026-04-26T08:10:56Z</time></trkpt><trkpt lat="46.282804307358866" lon="13.090052842553192"><ele>198.0</ele><time>2026-04-26T08:10:57Z</time></trkpt><trkpt lat="46.28284509999937" lon="13.090168153242178"><ele>198.0</ele><time>2026-04-26T08:10:58Z</time></trkpt><trkpt lat="46.28288394626928" lon="13.090275522504248"><ele>198.0</ele><time>2026-04-26T08:10:59Z</time></trkpt><trkpt lat="46.282925141035356" lon="13.090378021223458"><ele>198.0</ele><time>2026-04-26T08:11:00Z</time></trkpt><trkpt lat="46.28296610070724" lon="13.090474220868142"><ele>198.0</ele><time>2026-04-26T08:11:01Z</time></trkpt><trkpt lat="46.2830112049814" lon="13.090576163791187"><ele>198.0</ele><time>2026-04-26T08:11:02Z</time></trkpt><trkpt lat="46.28305883076643" lon="13.090673020808566"><ele>198.0</ele><time>2026-04-26T08:11:03Z</time></trkpt><trkpt lat="46.28310092125048" lon="13.090785904371893"><ele>198.16666666666666</ele><time>2026-04-26T08:11:04Z</time></trkpt><trkpt lat="46.283148592333404" lon="13.090889344746808"><ele>198.33333333333331</ele><time>2026-04-26T08:11:05Z</time></trkpt><trkpt lat="46.283204217482094" lon="13.090982246148942"><ele>198.5</ele><time>2026-04-26T08:11:06Z</time></trkpt><trkpt lat="46.28326844719844" lon="13.091070237407473"><ele>198.66666666666666</ele><time>2026-04-26T08:11:07Z</time></trkpt><trkpt lat="46.28332474694522" lon="13.091179405983338"><ele>198.83333333333331</ele><time>2026-04-26T08:11:08Z</time></trkpt><trkpt lat="46.28339336933176" lon="13.091272170732742"><ele>199.0</ele><time>2026-04-26T08:11:09Z</time></trkpt><trkpt lat="46.283468440976264" lon="13.09134149049435"><ele>198.99999999999997</ele><time>2026-04-26T08:11:10Z</time></trkpt><trkpt lat="46.28352518807201" lon="13.091419653777628"><ele>199.0</ele><time>2026-04-26T08:11:11Z</time></trkpt><trkpt lat="46.283579101046655" lon="13.091467064521606"><ele>199.0</ele><time>2026-04-26T08:11:12Z</time></trkpt><trkpt lat="46.283653621784964" lon="13.091594874517076"><ele>199.0</ele><time>2026-04-26T08:11:14Z</time></trkpt><trkpt lat="46.28367036684214" lon="13.091699795642338"><ele>198.99999999999997</ele><time>2026-04-26T08:11:15Z</time></trkpt><trkpt lat="46.28369825335518" lon="13.091784389319777"><ele>199.0</ele><time>2026-04-26T08:11:16Z</time></trkpt><trkpt lat="46.283720560730195" lon="13.091922351912228"><ele>199.16666666666666</ele><time>2026-04-26T08:11:18Z</time></trkpt><trkpt lat="46.28359343847006" lon="13.09200801551254"><ele>199.33333333333331</ele><time>2026-04-26T08:11:19Z</time></trkpt><trkpt lat="46.28354494754337" lon="13.092073378101704"><ele>199.5</ele><time>2026-04-26T08:11:20Z</time></trkpt><trkpt lat="46.2834929207495" lon="13.092148091155854"><ele>199.66666666666669</ele><time>2026-04-26T08:11:21Z</time></trkpt><trkpt lat="46.28343692653027" lon="13.092233857553381"><ele>199.83333333333334</ele><time>2026-04-26T08:11:22Z</time></trkpt><trkpt lat="46.28338626157137" lon="13.092312476599288"><ele>200.0</ele><time>2026-04-26T08:11:23Z</time></trkpt><trkpt lat="46.28329565056531" lon="13.092457129569507"><ele>199.66666666666669</ele><time>2026-04-26T08:11:25Z</time></trkpt><trkpt lat="46.28324314487058" lon="13.09253952051526"><ele>199.33333333333334</ele><time>2026-04-26T08:11:26Z</time></trkpt><trkpt lat="46.28319251987914" lon="13.09261967801402"><ele>199.0</ele><time>2026-04-26T08:11:27Z</time></trkpt><trkpt lat="46.28314764016402" lon="13.092693584055372"><ele>198.66666666666669</ele><time>2026-04-26T08:11:28Z</time></trkpt><trkpt lat="46.28305558847506" lon="13.092833725034794"><ele>198.33333333333334</ele><time>2026-04-26T08:11:30Z</time></trkpt><trkpt lat="46.28300027589119" lon="13.092921558590906"><ele>198.0</ele><time>2026-04-26T08:11:31Z</time></trkpt><trkpt lat="46.28293536077225" lon="13.09302239450866"><ele>197.60000000000002</ele><time>2026-04-26T08:11:32Z</time></trkpt><trkpt lat="46.28286286158063" lon="13.093125964943964"><ele>197.20000000000002</ele><time>2026-04-26T08:11:33Z</time></trkpt><trkpt lat="46.282786030489525" lon="13.093247129929924"><ele>196.8</ele><time>2026-04-26T08:11:34Z</time></trkpt><trkpt lat="46.28274658494499" lon="13.093325509837424"><ele>196.4</ele><time>2026-04-26T08:11:35Z</time></trkpt><trkpt lat="46.28268936924648" lon="13.093417184455896"><ele>196.0</ele><time>2026-04-26T08:11:36Z</time></trkpt><trkpt lat="46.28263264122303" lon="13.093503652027426"><ele>195.99999999999997</ele><time>2026-04-26T08:11:37Z</time></trkpt><trkpt lat="46.282579754159755" lon="13.093586055308505"><ele>196.0</ele><time>2026-04-26T08:11:38Z</time></trkpt><trkpt lat="46.28253271787498" lon="13.093658795009873"><ele>196.0</ele><time>2026-04-26T08:11:39Z</time></trkpt><trkpt lat="46.28247136003801" lon="13.093752026408977"><ele>196.0</ele><time>2026-04-26T08:11:40Z</time></trkpt><trkpt lat="46.28240745044669" lon="13.093851451364555"><ele>195.99999999999997</ele><time>2026-04-26T08:11:41Z</time></trkpt><trkpt lat="46.2823553575339" lon="13.09393291142922"><ele>196.0</ele><time>2026-04-26T08:11:42Z</time></trkpt><trkpt lat="46.2823063746518" lon="13.09400878712386"><ele>196.20000000000002</ele><time>2026-04-26T08:11:43Z</time></trkpt><trkpt lat="46.28225829836133" lon="13.094089340825708"><ele>196.4</ele><time>2026-04-26T08:11:44Z</time></trkpt><trkpt lat="46.282198760211585" lon="13.094182586019139"><ele>196.6</ele><time>2026-04-26T08:11:45Z</time></trkpt><trkpt lat="46.282132842556884" lon="13.09428550350151"><ele>196.8</ele><time>2026-04-26T08:11:46Z</time></trkpt><trkpt lat="46.28206666842038" lon="13.094388465395738"><ele>197.0</ele><time>2026-04-26T08:11:47Z</time></trkpt><trkpt lat="46.281996104267556" lon="13.094492796974535"><ele>197.00000000000003</ele><time>2026-04-26T08:11:48Z</time></trkpt><trkpt lat="46.28193035722882" lon="13.094595022911482"><ele>197.0</ele><time>2026-04-26T08:11:49Z</time></trkpt><trkpt lat="46.281869137571626" lon="13.094690490182705"><ele>197.0</ele><time>2026-04-26T08:11:50Z</time></trkpt><trkpt lat="46.281813687287126" lon="13.094772922439125"><ele>197.0</ele><time>2026-04-26T08:11:51Z</time></trkpt><trkpt lat="46.28176637471337" lon="13.094847811352663"><ele>197.00000000000003</ele><time>2026-04-26T08:11:52Z</time></trkpt><trkpt lat="46.281725569505696" lon="13.094918158317354"><ele>197.0</ele><time>2026-04-26T08:11:53Z</time></trkpt><trkpt lat="46.28163823140313" lon="13.095045702564393"><ele>197.16666666666669</ele><time>2026-04-26T08:11:55Z</time></trkpt><trkpt lat="46.281581793810965" lon="13.095135576722573"><ele>197.33333333333334</ele><time>2026-04-26T08:11:56Z</time></trkpt><trkpt lat="46.28151893105361" lon="13.09523351407721"><ele>197.5</ele><time>2026-04-26T08:11:57Z</time></trkpt><trkpt lat="46.28145888887755" lon="13.095323124298575"><ele>197.66666666666669</ele><time>2026-04-26T08:11:58Z</time></trkpt><trkpt lat="46.28140369679962" lon="13.095406266644492"><ele>197.83333333333334</ele><time>2026-04-26T08:11:59Z</time></trkpt><trkpt lat="46.28134724354852" lon="13.095487222008229"><ele>198.0</ele><time>2026-04-26T08:12:00Z</time></trkpt><trkpt lat="46.28128960289972" lon="13.09557073440584"><ele>198.0</ele><time>2026-04-26T08:12:01Z</time></trkpt><trkpt lat="46.28123794224201" lon="13.095647363566052"><ele>198.0</ele><time>2026-04-26T08:12:02Z</time></trkpt><trkpt lat="46.28118905716353" lon="13.09572078571157"><ele>198.0</ele><time>2026-04-26T08:12:03Z</time></trkpt><trkpt lat="46.2811324607299" lon="13.095805187870376"><ele>198.0</ele><time>2026-04-26T08:12:04Z</time></trkpt><trkpt lat="46.281064498998724" lon="13.095912076127812"><ele>198.0</ele><time>2026-04-26T08:12:05Z</time></trkpt><trkpt lat="46.28097961514118" lon="13.09604998794273"><ele>198.0</ele><time>2026-04-26T08:12:06Z</time></trkpt><trkpt lat="46.28086858292194" lon="13.096224970925451"><ele>198.0</ele><time>2026-04-26T08:12:07Z</time></trkpt><trkpt lat="46.28072235939281" lon="13.096450659021059"><ele>198.0</ele><time>2026-04-26T08:12:08Z</time></trkpt><trkpt lat="46.28054542745675" lon="13.096722103267544"><ele>198.0</ele><time>2026-04-26T08:12:09Z</time></trkpt><trkpt lat="46.280375229104855" lon="13.096985942854213"><ele>198.0</ele><time>2026-04-26T08:12:10Z</time></trkpt><trkpt lat="46.28022986497511" lon="13.097213145383954"><ele>198.33333333333331</ele><time>2026-04-26T08:12:11Z</time></trkpt><trkpt lat="46.280096818758125" lon="13.097421356169907"><ele>198.66666666666666</ele><time>2026-04-26T08:12:12Z</time></trkpt><trkpt lat="46.279970607331656" lon="13.09761612917414"><ele>199.0</ele><time>2026-04-26T08:12:13Z</time></trkpt><trkpt lat="46.279851569010944" lon="13.097797965982059"><ele>198.0</ele><time>2026-04-26T08:12:14Z</time></trkpt><trkpt lat="46.27973241761438" lon="13.097979308655297"><ele>197.0</ele><time>2026-04-26T08:12:15Z</time></trkpt><trkpt lat="46.27959776704203" lon="13.098188773665715"><ele>196.0</ele><time>2026-04-26T08:12:16Z</time></trkpt><trkpt lat="46.27946967053522" lon="13.098382679965862"><ele>196.0</ele><time>2026-04-26T08:12:17Z</time></trkpt><trkpt lat="46.27935868415483" lon="13.098554458560944"><ele>196.0</ele><time>2026-04-26T08:12:18Z</time></trkpt><trkpt lat="46.279254517528244" lon="13.098714254162868"><ele>196.0</ele><time>2026-04-26T08:12:19Z</time></trkpt><trkpt lat="46.279153994536806" lon="13.098870586921324"><ele>196.0</ele><time>2026-04-26T08:12:20Z</time></trkpt><trkpt lat="46.27905101870266" lon="13.099028341933519"><ele>196.0</ele><time>2026-04-26T08:12:21Z</time></trkpt><trkpt lat="46.27895832279418" lon="13.099175536692103"><ele>196.0</ele><time>2026-04-26T08:12:22Z</time></trkpt><trkpt lat="46.278907236482304" lon="13.099266528585057"><ele>196.0</ele><time>2026-04-26T08:12:23Z</time></trkpt><trkpt lat="46.27882362283512" lon="13.099379967455686"><ele>195.75</ele><time>2026-04-26T08:12:25Z</time></trkpt><trkpt lat="46.27870683320751" lon="13.099513093273298"><ele>195.5</ele><time>2026-04-26T08:12:27Z</time></trkpt><trkpt lat="46.278612396884476" lon="13.099632453536868"><ele>195.25</ele><time>2026-04-26T08:12:28Z</time></trkpt><trkpt lat="46.278489186950786" lon="13.099773676011974"><ele>195.0</ele><time>2026-04-26T08:12:29Z</time></trkpt><trkpt lat="46.27833934611527" lon="13.099913046354862"><ele>195.33333333333331</ele><time>2026-04-26T08:12:30Z</time></trkpt><trkpt lat="46.27817397612565" lon="13.100042476985875"><ele>195.66666666666666</ele><time>2026-04-26T08:12:31Z</time></trkpt><trkpt lat="46.278028246737435" lon="13.100144468889981"><ele>196.0</ele><time>2026-04-26T08:12:32Z</time></trkpt><trkpt lat="46.27789638189022" lon="13.100229120336454"><ele>196.0</ele><time>2026-04-26T08:12:33Z</time></trkpt><trkpt lat="46.277767510422635" lon="13.100296008559777"><ele>196.0</ele><time>2026-04-26T08:12:34Z</time></trkpt><trkpt lat="46.277612488912446" lon="13.100369264701637"><ele>196.0</ele><time>2026-04-26T08:12:35Z</time></trkpt><trkpt lat="46.277423882714295" lon="13.100426955072418"><ele>196.33333333333331</ele><time>2026-04-26T08:12:36Z</time></trkpt><trkpt lat="46.277216708684556" lon="13.100460874422394"><ele>196.66666666666669</ele><time>2026-04-26T08:12:37Z</time></trkpt><trkpt lat="46.277014842452566" lon="13.100478513914998"><ele>197.0</ele><time>2026-04-26T08:12:38Z</time></trkpt><trkpt lat="46.27685118490161" lon="13.100483410353288"><ele>197.0</ele><time>2026-04-26T08:12:39Z</time></trkpt><trkpt lat="46.27672181611285" lon="13.100474676947735"><ele>197.0</ele><time>2026-04-26T08:12:40Z</time></trkpt><trkpt lat="46.27660400358723" lon="13.100457960676758"><ele>197.0</ele><time>2026-04-26T08:12:41Z</time></trkpt><trkpt lat="46.27647929447254" lon="13.100431171986742"><ele>197.0</ele><time>2026-04-26T08:12:42Z</time></trkpt><trkpt lat="46.276334173684305" lon="13.100389504647751"><ele>196.33333333333334</ele><time>2026-04-26T08:12:43Z</time></trkpt><trkpt lat="46.276180519525" lon="13.100332638533814"><ele>195.66666666666669</ele><time>2026-04-26T08:12:44Z</time></trkpt><trkpt lat="46.27601547356473" lon="13.100268410918025"><ele>195.0</ele><time>2026-04-26T08:12:45Z</time></trkpt><trkpt lat="46.27587553991836" lon="13.100203872308285"><ele>195.0</ele><time>2026-04-26T08:12:46Z</time></trkpt><trkpt lat="46.27575295952207" lon="13.100101698809995"><ele>195.0</ele><time>2026-04-26T08:12:47Z</time></trkpt><trkpt lat="46.275595300672016" lon="13.09998920702227"><ele>195.0</ele><time>2026-04-26T08:12:48Z</time></trkpt><trkpt lat="46.275402603679645" lon="13.099806821710745"><ele>194.0</ele><time>2026-04-26T08:12:49Z</time></trkpt><trkpt lat="46.27518607913275" lon="13.099607353559438"><ele>193.0</ele><time>2026-04-26T08:12:49.999Z</time></trkpt><trkpt lat="46.27501162014012" lon="13.099408207013843"><ele>193.0</ele><time>2026-04-26T08:12:50.999Z</time></trkpt><trkpt lat="46.27485118262274" lon="13.099239290659657"><ele>193.0</ele><time>2026-04-26T08:12:51.999Z</time></trkpt><trkpt lat="46.274704325387596" lon="13.099080543215313"><ele>193.0</ele><time>2026-04-26T08:12:52.999Z</time></trkpt><trkpt lat="46.274543306548544" lon="13.098906396621183"><ele>192.5</ele><time>2026-04-26T08:12:53.999Z</time></trkpt><trkpt lat="46.27435139929334" lon="13.09870421248924"><ele>192.0</ele><time>2026-04-26T08:12:55Z</time></trkpt><trkpt lat="46.27413896736424" lon="13.09847548656542"><ele>192.0</ele><time>2026-04-26T08:12:56Z</time></trkpt><trkpt lat="46.27391378244168" lon="13.098231214020748"><ele>192.0</ele><time>2026-04-26T08:12:57Z</time></trkpt><trkpt lat="46.27370680841035" lon="13.098005333349498"><ele>192.0</ele><time>2026-04-26T08:12:58Z</time></trkpt><trkpt lat="46.27352174709438" lon="13.09780832682289"><ele>192.0</ele><time>2026-04-26T08:12:59Z</time></trkpt><trkpt lat="46.273349866194586" lon="13.097627080401471"><ele>192.0</ele><time>2026-04-26T08:13:00Z</time></trkpt><trkpt lat="46.273175024912156" lon="13.097444087496061"><ele>191.5</ele><time>2026-04-26T08:13:01Z</time></trkpt><trkpt lat="46.27297891168243" lon="13.097241588864085"><ele>191.0</ele><time>2026-04-26T08:13:02Z</time></trkpt><trkpt lat="46.272770087659765" lon="13.097018094470906"><ele>191.0</ele><time>2026-04-26T08:13:03Z</time></trkpt><trkpt lat="46.27258615706916" lon="13.096818532024225"><ele>191.0</ele><time>2026-04-26T08:13:04Z</time></trkpt><trkpt lat="46.27241738240367" lon="13.096637010863466"><ele>191.0</ele><time>2026-04-26T08:13:05Z</time></trkpt><trkpt lat="46.27223569598112" lon="13.096440554129726"><ele>191.66666666666666</ele><time>2026-04-26T08:13:06Z</time></trkpt><trkpt lat="46.27204816154496" lon="13.096241890837215"><ele>192.33333333333331</ele><time>2026-04-26T08:13:07Z</time></trkpt><trkpt lat="46.271878685672654" lon="13.096063081694012"><ele>193.0</ele><time>2026-04-26T08:13:08Z</time></trkpt><trkpt lat="46.27171878595267" lon="13.095892700879633"><ele>193.0</ele><time>2026-04-26T08:13:09Z</time></trkpt><trkpt lat="46.27156117953487" lon="13.095722518559983"><ele>193.0</ele><time>2026-04-26T08:13:10Z</time></trkpt><trkpt lat="46.27140211209991" lon="13.095552862262853"><ele>193.0</ele><time>2026-04-26T08:13:11Z</time></trkpt><trkpt lat="46.27124380699987" lon="13.09538400211673"><ele>192.66666666666666</ele><time>2026-04-26T08:13:12Z</time></trkpt><trkpt lat="46.27108028920038" lon="13.095211433746814"><ele>192.33333333333331</ele><time>2026-04-26T08:13:13Z</time></trkpt><trkpt lat="46.27090035587603" lon="13.095022731292374"><ele>192.0</ele><time>2026-04-26T08:13:14Z</time></trkpt><trkpt lat="46.27073308802894" lon="13.094847773717564"><ele>191.33333333333334</ele><time>2026-04-26T08:13:15Z</time></trkpt><trkpt lat="46.27058330605062" lon="13.094692708788253"><ele>190.66666666666669</ele><time>2026-04-26T08:13:16Z</time></trkpt><trkpt lat="46.270441120469826" lon="13.094542264138697"><ele>190.0</ele><time>2026-04-26T08:13:17Z</time></trkpt><trkpt lat="46.27028738225109" lon="13.094370806398242"><ele>190.0</ele><time>2026-04-26T08:13:18Z</time></trkpt><trkpt lat="46.27012170138398" lon="13.094188394678806"><ele>190.0</ele><time>2026-04-26T08:13:19Z</time></trkpt><trkpt lat="46.269940884665026" lon="13.093991371429016"><ele>190.0</ele><time>2026-04-26T08:13:20Z</time></trkpt><trkpt lat="46.26974529188437" lon="13.09378088392789"><ele>189.5</ele><time>2026-04-26T08:13:21Z</time></trkpt><trkpt lat="46.26953048410624" lon="13.093547919019121"><ele>189.0</ele><time>2026-04-26T08:13:22Z</time></trkpt><trkpt lat="46.269314970379426" lon="13.093265254565445"><ele>189.0</ele><time>2026-04-26T08:13:23Z</time></trkpt><trkpt lat="46.26908159147369" lon="13.093005791714916"><ele>189.0</ele><time>2026-04-26T08:13:24Z</time></trkpt><trkpt lat="46.26888529118551" lon="13.092765015334601"><ele>189.0</ele><time>2026-04-26T08:13:25Z</time></trkpt><trkpt lat="46.26870373119642" lon="13.092546368377322"><ele>189.0</ele><time>2026-04-26T08:13:26Z</time></trkpt><trkpt lat="46.268533059132935" lon="13.092339239926714"><ele>188.5</ele><time>2026-04-26T08:13:27Z</time></trkpt><trkpt lat="46.26836372919699" lon="13.09213221867814"><ele>188.0</ele><time>2026-04-26T08:13:28Z</time></trkpt><trkpt lat="46.26816717726414" lon="13.091890903135399"><ele>188.0</ele><time>2026-04-26T08:13:29Z</time></trkpt><trkpt lat="46.26795494661182" lon="13.091630907650059"><ele>188.0</ele><time>2026-04-26T08:13:30Z</time></trkpt><trkpt lat="46.267759332201706" lon="13.091395414169503"><ele>188.33333333333331</ele><time>2026-04-26T08:13:31Z</time></trkpt><trkpt lat="46.267586491009276" lon="13.091187036657058"><ele>188.66666666666666</ele><time>2026-04-26T08:13:32Z</time></trkpt><trkpt lat="46.267424944914445" lon="13.090985974683479"><ele>189.0</ele><time>2026-04-26T08:13:33Z</time></trkpt><trkpt lat="46.267264817385616" lon="13.090783765631228"><ele>189.33333333333334</ele><time>2026-04-26T08:13:34Z</time></trkpt><trkpt lat="46.2670910660743" lon="13.09057402573404"><ele>189.66666666666669</ele><time>2026-04-26T08:13:35Z</time></trkpt><trkpt lat="46.26692231463139" lon="13.09038018677945"><ele>190.0</ele><time>2026-04-26T08:13:36Z</time></trkpt><trkpt lat="46.26675795723737" lon="13.090193581698225"><ele>190.0</ele><time>2026-04-26T08:13:37Z</time></trkpt><trkpt lat="46.26659475613825" lon="13.090038265707099"><ele>190.0</ele><time>2026-04-26T08:13:38Z</time></trkpt><trkpt lat="46.26638462011338" lon="13.089871558615487"><ele>190.0</ele><time>2026-04-26T08:13:39Z</time></trkpt><trkpt lat="46.26617854954337" lon="13.08974775628512"><ele>188.66666666666669</ele><time>2026-04-26T08:13:40Z</time></trkpt><trkpt lat="46.26598029244126" lon="13.089653485180127"><ele>187.33333333333334</ele><time>2026-04-26T08:13:41Z</time></trkpt><trkpt lat="46.26575344435767" lon="13.0895785308243"><ele>186.0</ele><time>2026-04-26T08:13:42Z</time></trkpt><trkpt lat="46.26548087205308" lon="13.089504298818435"><ele>186.0</ele><time>2026-04-26T08:13:43Z</time></trkpt><trkpt lat="46.26520094893022" lon="13.089417184053287"><ele>186.0</ele><time>2026-04-26T08:13:44Z</time></trkpt><trkpt lat="46.26491464384863" lon="13.089321518536542"><ele>185.5</ele><time>2026-04-26T08:13:45Z</time></trkpt><trkpt lat="46.26461367134847" lon="13.089230219402614"><ele>185.0</ele><time>2026-04-26T08:13:46Z</time></trkpt><trkpt lat="46.26434418034395" lon="13.08915027081557"><ele>185.5</ele><time>2026-04-26T08:13:47Z</time></trkpt><trkpt lat="46.264098343680544" lon="13.089078638829427"><ele>186.0</ele><time>2026-04-26T08:13:48Z</time></trkpt><trkpt lat="46.263860788894306" lon="13.089008191085858"><ele>186.5</ele><time>2026-04-26T08:13:49Z</time></trkpt><trkpt lat="46.26360645725099" lon="13.08892923244125"><ele>187.0</ele><time>2026-04-26T08:13:50Z</time></trkpt><trkpt lat="46.26334112080551" lon="13.088844814815769"><ele>188.5</ele><time>2026-04-26T08:13:51Z</time></trkpt><trkpt lat="46.263074870756114" lon="13.088759805777144"><ele>190.0</ele><time>2026-04-26T08:13:52Z</time></trkpt><trkpt lat="46.26283391925106" lon="13.088685561715124"><ele>190.0</ele><time>2026-04-26T08:13:53Z</time></trkpt><trkpt lat="46.26261149323208" lon="13.088615214185026"><ele>190.0</ele><time>2026-04-26T08:13:54Z</time></trkpt><trkpt lat="46.26239106328041" lon="13.088547390725822"><ele>189.0</ele><time>2026-04-26T08:13:54.999Z</time></trkpt><trkpt lat="46.26215526215697" lon="13.08847289458212"><ele>188.0</ele><time>2026-04-26T08:13:55.999Z</time></trkpt><trkpt lat="46.261913412889434" lon="13.088399969948105"><ele>188.0</ele><time>2026-04-26T08:13:56.999Z</time></trkpt><trkpt lat="46.261690387062835" lon="13.088328024950334"><ele>188.0</ele><time>2026-04-26T08:13:57.999Z</time></trkpt><trkpt lat="46.26148265143718" lon="13.088263722593842"><ele>188.0</ele><time>2026-04-26T08:13:58.999Z</time></trkpt><trkpt lat="46.261286438003175" lon="13.088204430610872"><ele>188.33333333333331</ele><time>2026-04-26T08:13:59.999Z</time></trkpt><trkpt lat="46.26109631329558" lon="13.088149164215313"><ele>188.66666666666666</ele><time>2026-04-26T08:14:00.999Z</time></trkpt><trkpt lat="46.260913723749226" lon="13.088092719083138"><ele>189.0</ele><time>2026-04-26T08:14:01.999Z</time></trkpt><trkpt lat="46.26073425900704" lon="13.08803350022413"><ele>188.33333333333334</ele><time>2026-04-26T08:14:02.999Z</time></trkpt><trkpt lat="46.260544053168566" lon="13.087971654263214"><ele>187.66666666666669</ele><time>2026-04-26T08:14:03.999Z</time></trkpt><trkpt lat="46.260349160965106" lon="13.087910054134973"><ele>187.0</ele><time>2026-04-26T08:14:04.999Z</time></trkpt><trkpt lat="46.2601709202221" lon="13.08785897056317"><ele>187.0</ele><time>2026-04-26T08:14:05.999Z</time></trkpt><trkpt lat="46.260012305462666" lon="13.087813353245235"><ele>187.0</ele><time>2026-04-26T08:14:06.999Z</time></trkpt><trkpt lat="46.25985180130734" lon="13.087759739710165"><ele>187.0</ele><time>2026-04-26T08:14:07.999Z</time></trkpt><trkpt lat="46.259684719975354" lon="13.087684870622832"><ele>186.75</ele><time>2026-04-26T08:14:08.999Z</time></trkpt><trkpt lat="46.25953871668578" lon="13.087612275181337"><ele>186.5</ele><time>2026-04-26T08:14:09.999Z</time></trkpt><trkpt lat="46.259404886597196" lon="13.087532973356272"><ele>186.25</ele><time>2026-04-26T08:14:10.999Z</time></trkpt><trkpt lat="46.25927934654169" lon="13.087440196763316"><ele>186.0</ele><time>2026-04-26T08:14:11.999Z</time></trkpt><trkpt lat="46.25914658151087" lon="13.08730988791971"><ele>185.66666666666666</ele><time>2026-04-26T08:14:12.999Z</time></trkpt><trkpt lat="46.2590032707876" lon="13.087163709457617"><ele>185.33333333333331</ele><time>2026-04-26T08:14:13.999Z</time></trkpt><trkpt lat="46.25887651722974" lon="13.087027535525127"><ele>185.0</ele><time>2026-04-26T08:14:14.999Z</time></trkpt><trkpt lat="46.258763420183456" lon="13.086892597103036"><ele>185.25</ele><time>2026-04-26T08:14:15.999Z</time></trkpt><trkpt lat="46.25865635808033" lon="13.086767975128824"><ele>185.5</ele><time>2026-04-26T08:14:16.999Z</time></trkpt><trkpt lat="46.25855716996093" lon="13.08664892555871"><ele>185.75</ele><time>2026-04-26T08:14:17.999Z</time></trkpt><trkpt lat="46.25846155068538" lon="13.086538157587606"><ele>186.0</ele><time>2026-04-26T08:14:18.999Z</time></trkpt><trkpt lat="46.25837110611559" lon="13.08643356410884"><ele>186.0</ele><time>2026-04-26T08:14:19.999Z</time></trkpt><trkpt lat="46.258283832942176" lon="13.086324817228615"><ele>186.0</ele><time>2026-04-26T08:14:20.999Z</time></trkpt><trkpt lat="46.258203310456004" lon="13.086227801854891"><ele>186.0</ele><time>2026-04-26T08:14:21.999Z</time></trkpt><trkpt lat="46.25813081442832" lon="13.086145155087324"><ele>186.0</ele><time>2026-04-26T08:14:22.999Z</time></trkpt><trkpt lat="46.258062418136845" lon="13.086074708214293"><ele>186.0</ele><time>2026-04-26T08:14:23.999Z</time></trkpt><trkpt lat="46.25799643803166" lon="13.085996461834254"><ele>186.0</ele><time>2026-04-26T08:14:24.999Z</time></trkpt><trkpt lat="46.2579182023535" lon="13.08590495622181"><ele>186.0</ele><time>2026-04-26T08:14:25.999Z</time></trkpt><trkpt lat="46.257844483951274" lon="13.085826442421654"><ele>186.0</ele><time>2026-04-26T08:14:26.999Z</time></trkpt><trkpt lat="46.257782720860234" lon="13.08575506265116"><ele>186.0</ele><time>2026-04-26T08:14:27.999Z</time></trkpt><trkpt lat="46.257724873643525" lon="13.085696279084512"><ele>186.0</ele><time>2026-04-26T08:14:28.999Z</time></trkpt><trkpt lat="46.25767484696058" lon="13.085637806595965"><ele>186.0</ele><time>2026-04-26T08:14:29.999Z</time></trkpt><trkpt lat="46.2576336286842" lon="13.085470753077393"><ele>185.83333333333334</ele><time>2026-04-26T08:14:31.999Z</time></trkpt><trkpt lat="46.25759741356113" lon="13.085374299221186"><ele>185.66666666666666</ele><time>2026-04-26T08:14:32.999Z</time></trkpt><trkpt lat="46.25755655231798" lon="13.085267359257365"><ele>185.5</ele><time>2026-04-26T08:14:33.999Z</time></trkpt><trkpt lat="46.25748718108429" lon="13.085235337068221"><ele>185.33333333333331</ele><time>2026-04-26T08:14:34.999Z</time></trkpt><trkpt lat="46.257407746198886" lon="13.085228518962406"><ele>185.16666666666666</ele><time>2026-04-26T08:14:35.999Z</time></trkpt><trkpt lat="46.25731378835384" lon="13.085267911413512"><ele>185.0</ele><time>2026-04-26T08:14:36.999Z</time></trkpt><trkpt lat="46.25723498409559" lon="13.085293714507213"><ele>185.0</ele><time>2026-04-26T08:14:37.999Z</time></trkpt><trkpt lat="46.25719587315675" lon="13.085204872891243"><ele>185.0</ele><time>2026-04-26T08:14:38.999Z</time></trkpt><trkpt lat="46.25712537035819" lon="13.085108007372348"><ele>185.0</ele><time>2026-04-26T08:14:39.999Z</time></trkpt><trkpt lat="46.2570519294925" lon="13.084980585746862"><ele>185.0</ele><time>2026-04-26T08:14:40.999Z</time></trkpt><trkpt lat="46.25698244934957" lon="13.08483376127672"><ele>185.0</ele><time>2026-04-26T08:14:41.999Z</time></trkpt><trkpt lat="46.256917022338264" lon="13.084709568022852"><ele>185.2</ele><time>2026-04-26T08:14:42.999Z</time></trkpt><trkpt lat="46.25685968529375" lon="13.084599045685577"><ele>185.4</ele><time>2026-04-26T08:14:43.999Z</time></trkpt><trkpt lat="46.25681220470365" lon="13.084490514558377"><ele>185.60000000000002</ele><time>2026-04-26T08:14:44.999Z</time></trkpt><trkpt lat="46.256759343635395" lon="13.084374156461518"><ele>185.8</ele><time>2026-04-26T08:14:45.999Z</time></trkpt><trkpt lat="46.25668644799022" lon="13.08425708615006"><ele>186.0</ele><time>2026-04-26T08:14:46.999Z</time></trkpt><trkpt lat="46.25661457207194" lon="13.084125942636618"><ele>186.0</ele><time>2026-04-26T08:14:47.999Z</time></trkpt><trkpt lat="46.256547009965715" lon="13.083993374315734"><ele>186.0</ele><time>2026-04-26T08:14:48.999Z</time></trkpt><trkpt lat="46.25647263852755" lon="13.083855256169494"><ele>186.0</ele><time>2026-04-26T08:14:49.999Z</time></trkpt><trkpt lat="46.25638699691692" lon="13.083705672922308"><ele>186.0</ele><time>2026-04-26T08:14:50.999Z</time></trkpt><trkpt lat="46.256317458523675" lon="13.08356262590407"><ele>186.0</ele><time>2026-04-26T08:14:51.999Z</time></trkpt><trkpt lat="46.25625854427376" lon="13.083439579110324"><ele>186.0</ele><time>2026-04-26T08:14:52.999Z</time></trkpt><trkpt lat="46.25620104712739" lon="13.083315300774418"><ele>186.0</ele><time>2026-04-26T08:14:53.999Z</time></trkpt><trkpt lat="46.25612458719431" lon="13.083182633565848"><ele>186.0</ele><time>2026-04-26T08:14:54.999Z</time></trkpt><trkpt lat="46.256046118047955" lon="13.083048209973901"><ele>186.0</ele><time>2026-04-26T08:14:55.999Z</time></trkpt><trkpt lat="46.25597343313582" lon="13.082929246427437"><ele>185.5</ele><time>2026-04-26T08:14:56.999Z</time></trkpt><trkpt lat="46.255901566587504" lon="13.082826584044453"><ele>185.0</ele><time>2026-04-26T08:14:57.999Z</time></trkpt><trkpt lat="46.255796693850264" lon="13.082736108218192"><ele>184.5</ele><time>2026-04-26T08:14:58.999Z</time></trkpt><trkpt lat="46.25566864408881" lon="13.082647411309008"><ele>184.0</ele><time>2026-04-26T08:14:59.999Z</time></trkpt><trkpt lat="46.25554489092152" lon="13.08255860198042"><ele>184.0</ele><time>2026-04-26T08:15:01Z</time></trkpt><trkpt lat="46.25543838590003" lon="13.082473417354047"><ele>184.0</ele><time>2026-04-26T08:15:02Z</time></trkpt><trkpt lat="46.25533844352028" lon="13.082401375615524"><ele>184.0</ele><time>2026-04-26T08:15:03Z</time></trkpt><trkpt lat="46.2552358820676" lon="13.08232326580972"><ele>184.0</ele><time>2026-04-26T08:15:04Z</time></trkpt><trkpt lat="46.255122128282515" lon="13.082233346372089"><ele>183.75</ele><time>2026-04-26T08:15:05Z</time></trkpt><trkpt lat="46.254997490491455" lon="13.082141374122463"><ele>183.5</ele><time>2026-04-26T08:15:06Z</time></trkpt><trkpt lat="46.25487423511826" lon="13.082048369519855"><ele>183.25</ele><time>2026-04-26T08:15:07Z</time></trkpt><trkpt lat="46.25474234008078" lon="13.081953811876007"><ele>183.0</ele><time>2026-04-26T08:15:08Z</time></trkpt><trkpt lat="46.254630251678144" lon="13.081867211617618"><ele>183.0</ele><time>2026-04-26T08:15:09Z</time></trkpt><trkpt lat="46.25452690892043" lon="13.081785154571786"><ele>183.0</ele><time>2026-04-26T08:15:10Z</time></trkpt><trkpt lat="46.25441998044281" lon="13.0817076948687"><ele>183.0</ele><time>2026-04-26T08:15:11Z</time></trkpt><trkpt lat="46.25430391922206" lon="13.081622011905084"><ele>183.0</ele><time>2026-04-26T08:15:12Z</time></trkpt><trkpt lat="46.25418311068862" lon="13.081528193318237"><ele>183.0</ele><time>2026-04-26T08:15:13Z</time></trkpt><trkpt lat="46.254068774584475" lon="13.081439139997933"><ele>183.0</ele><time>2026-04-26T08:15:14Z</time></trkpt><trkpt lat="46.2539643664395" lon="13.081363474582663"><ele>183.0</ele><time>2026-04-26T08:15:15Z</time></trkpt><trkpt lat="46.25385845935705" lon="13.081285978522038"><ele>183.0</ele><time>2026-04-26T08:15:16Z</time></trkpt><trkpt lat="46.253740709862974" lon="13.081199066305123"><ele>183.25</ele><time>2026-04-26T08:15:17Z</time></trkpt><trkpt lat="46.25361455323852" lon="13.081108900429637"><ele>183.5</ele><time>2026-04-26T08:15:18Z</time></trkpt><trkpt lat="46.25348204125767" lon="13.081011710360801"><ele>183.75</ele><time>2026-04-26T08:15:19.001Z</time></trkpt><trkpt lat="46.253341969377864" lon="13.0809067310965"><ele>184.0</ele><time>2026-04-26T08:15:20.001Z</time></trkpt><trkpt lat="46.25319146630364" lon="13.080787403771524"><ele>183.33333333333334</ele><time>2026-04-26T08:15:21.001Z</time></trkpt><trkpt lat="46.253023656501185" lon="13.08066501683203"><ele>182.66666666666666</ele><time>2026-04-26T08:15:22.001Z</time></trkpt><trkpt lat="46.25287122487965" lon="13.08055356806314"><ele>182.0</ele><time>2026-04-26T08:15:23.001Z</time></trkpt><trkpt lat="46.2527394518511" lon="13.080453620337336"><ele>182.0</ele><time>2026-04-26T08:15:24.001Z</time></trkpt><trkpt lat="46.252623185112704" lon="13.080361084848056"><ele>182.0</ele><time>2026-04-26T08:15:25Z</time></trkpt><trkpt lat="46.25250977766134" lon="13.080273873773425"><ele>182.0</ele><time>2026-04-26T08:15:26Z</time></trkpt><trkpt lat="46.25240319690214" lon="13.080189031722213"><ele>182.0</ele><time>2026-04-26T08:15:27Z</time></trkpt><trkpt lat="46.252291141572435" lon="13.080104357380844"><ele>181.75</ele><time>2026-04-26T08:15:28Z</time></trkpt><trkpt lat="46.25217112069122" lon="13.080017148241378"><ele>181.5</ele><time>2026-04-26T08:15:29Z</time></trkpt><trkpt lat="46.252026107814615" lon="13.079929504011771"><ele>181.25</ele><time>2026-04-26T08:15:30Z</time></trkpt><trkpt lat="46.25187564378817" lon="13.079866545702084"><ele>181.0</ele><time>2026-04-26T08:15:31Z</time></trkpt><trkpt lat="46.251741174938246" lon="13.07983666985659"><ele>181.0</ele><time>2026-04-26T08:15:32Z</time></trkpt><trkpt lat="46.25162082757792" lon="13.079814035694287"><ele>181.0</ele><time>2026-04-26T08:15:33Z</time></trkpt><trkpt lat="46.25149343975672" lon="13.079761116064802"><ele>181.0</ele><time>2026-04-26T08:15:34Z</time></trkpt><trkpt lat="46.251318905603206" lon="13.07971738441643"><ele>181.0</ele><time>2026-04-26T08:15:35Z</time></trkpt><trkpt lat="46.25109904663861" lon="13.079682924050235"><ele>181.0</ele><time>2026-04-26T08:15:36Z</time></trkpt><trkpt lat="46.25090009280628" lon="13.079625018687377"><ele>181.0</ele><time>2026-04-26T08:15:37Z</time></trkpt><trkpt lat="46.25070604551383" lon="13.079576592328117"><ele>181.0</ele><time>2026-04-26T08:15:38Z</time></trkpt><trkpt lat="46.25049354150444" lon="13.07952367084991"><ele>180.33333333333334</ele><time>2026-04-26T08:15:39Z</time></trkpt><trkpt lat="46.25030334849986" lon="13.079481822673594"><ele>179.66666666666666</ele><time>2026-04-26T08:15:40Z</time></trkpt><trkpt lat="46.2501264750752" lon="13.079443065710933"><ele>179.0</ele><time>2026-04-26T08:15:41Z</time></trkpt><trkpt lat="46.249961845402474" lon="13.079382546113493"><ele>178.0</ele><time>2026-04-26T08:15:42Z</time></trkpt><trkpt lat="46.249768390386166" lon="13.079335510282833"><ele>177.0</ele><time>2026-04-26T08:15:43Z</time></trkpt><trkpt lat="46.24952133740777" lon="13.079298939660921"><ele>176.0</ele><time>2026-04-26T08:15:44Z</time></trkpt><trkpt lat="46.2492628559897" lon="13.079226716339402"><ele>176.0</ele><time>2026-04-26T08:15:45Z</time></trkpt><trkpt lat="46.2490369628027" lon="13.0791696807316"><ele>176.0</ele><time>2026-04-26T08:15:46Z</time></trkpt><trkpt lat="46.24883410007104" lon="13.07911794961961"><ele>176.0</ele><time>2026-04-26T08:15:47Z</time></trkpt><trkpt lat="46.248645021847736" lon="13.079064987373227"><ele>176.0</ele><time>2026-04-26T08:15:48Z</time></trkpt><trkpt lat="46.248464511831415" lon="13.079024363130827"><ele>176.0</ele><time>2026-04-26T08:15:49Z</time></trkpt><trkpt lat="46.248295097189065" lon="13.07898382956344"><ele>176.0</ele><time>2026-04-26T08:15:50Z</time></trkpt><trkpt lat="46.248109381692046" lon="13.078936964405173"><ele>175.66666666666666</ele><time>2026-04-26T08:15:51Z</time></trkpt><trkpt lat="46.24790229190012" lon="13.078885737965606"><ele>175.33333333333334</ele><time>2026-04-26T08:15:52Z</time></trkpt><trkpt lat="46.247684253863476" lon="13.078827837508998"><ele>175.0</ele><time>2026-04-26T08:15:53Z</time></trkpt><trkpt lat="46.24747640266379" lon="13.078774609355781"><ele>175.66666666666669</ele><time>2026-04-26T08:15:54Z</time></trkpt><trkpt lat="46.24729263355311" lon="13.078732243220252"><ele>176.33333333333334</ele><time>2026-04-26T08:15:55Z</time></trkpt><trkpt lat="46.247122336364356" lon="13.078688416161947"><ele>177.0</ele><time>2026-04-26T08:15:56Z</time></trkpt><trkpt lat="46.246960925433925" lon="13.07864424801895"><ele>177.0</ele><time>2026-04-26T08:15:57Z</time></trkpt><trkpt lat="46.246806678499674" lon="13.078605185520194"><ele>177.0</ele><time>2026-04-26T08:15:58Z</time></trkpt><trkpt lat="46.2466518535507" lon="13.078569022813133"><ele>177.0</ele><time>2026-04-26T08:15:59Z</time></trkpt><trkpt lat="46.24649608525008" lon="13.07853537387002"><ele>178.0</ele><time>2026-04-26T08:16:00Z</time></trkpt><trkpt lat="46.246343494629116" lon="13.078522811761452"><ele>179.0</ele><time>2026-04-26T08:16:01Z</time></trkpt><trkpt lat="46.24618951754173" lon="13.078545555578858"><ele>180.0</ele><time>2026-04-26T08:16:02Z</time></trkpt><trkpt lat="46.246033792107205" lon="13.078594676790573"><ele>180.0</ele><time>2026-04-26T08:16:03Z</time></trkpt><trkpt lat="46.2458882224204" lon="13.078662034290264"><ele>180.0</ele><time>2026-04-26T08:16:04Z</time></trkpt><trkpt lat="46.24576173854399" lon="13.078747726139603"><ele>180.0</ele><time>2026-04-26T08:16:05Z</time></trkpt><trkpt lat="46.245651119004584" lon="13.078844171491026"><ele>180.0</ele><time>2026-04-26T08:16:06Z</time></trkpt><trkpt lat="46.245553183491" lon="13.078945617878789"><ele>180.0</ele><time>2026-04-26T08:16:07Z</time></trkpt><trkpt lat="46.24546463146871" lon="13.07904755639405"><ele>180.0</ele><time>2026-04-26T08:16:08Z</time></trkpt><trkpt lat="46.2453765657505" lon="13.079157192694296"><ele>180.0</ele><time>2026-04-26T08:16:09Z</time></trkpt><trkpt lat="46.24527301998083" lon="13.079269753286058"><ele>180.0</ele><time>2026-04-26T08:16:10Z</time></trkpt><trkpt lat="46.24516301362696" lon="13.079388559045071"><ele>179.25</ele><time>2026-04-26T08:16:11Z</time></trkpt><trkpt lat="46.245064581187755" lon="13.079500870749772"><ele>178.5</ele><time>2026-04-26T08:16:12Z</time></trkpt><trkpt lat="46.24495511058774" lon="13.079593750049307"><ele>177.75</ele><time>2026-04-26T08:16:13Z</time></trkpt><trkpt lat="46.2448183386205" lon="13.079618474076668"><ele>177.0</ele><time>2026-04-26T08:16:14Z</time></trkpt><trkpt lat="46.24467088437271" lon="13.079638224802464"><ele>177.0</ele><time>2026-04-26T08:16:15Z</time></trkpt><trkpt lat="46.24451784157798" lon="13.07956751949081"><ele>177.0</ele><time>2026-04-26T08:16:16Z</time></trkpt><trkpt lat="46.24437956571047" lon="13.079522583365264"><ele>177.0</ele><time>2026-04-26T08:16:17Z</time></trkpt><trkpt lat="46.24425329329758" lon="13.079484281720218"><ele>177.0</ele><time>2026-04-26T08:16:18Z</time></trkpt><trkpt lat="46.24413259965209" lon="13.079446211921628"><ele>177.0</ele><time>2026-04-26T08:16:19Z</time></trkpt><trkpt lat="46.24399277996672" lon="13.07941715022289"><ele>177.0</ele><time>2026-04-26T08:16:20Z</time></trkpt><trkpt lat="46.24384134733486" lon="13.079353277932091"><ele>177.0</ele><time>2026-04-26T08:16:21Z</time></trkpt><trkpt lat="46.24367333196915" lon="13.079279335847461"><ele>176.33333333333334</ele><time>2026-04-26T08:16:22Z</time></trkpt><trkpt lat="46.243499424140346" lon="13.07919664078715"><ele>175.66666666666669</ele><time>2026-04-26T08:16:23Z</time></trkpt><trkpt lat="46.24331921763253" lon="13.079104657457961"><ele>175.0</ele><time>2026-04-26T08:16:24Z</time></trkpt><trkpt lat="46.2431405342977" lon="13.07901451422601"><ele>175.0</ele><time>2026-04-26T08:16:25Z</time></trkpt><trkpt lat="46.24297780219928" lon="13.078934038718451"><ele>175.0</ele><time>2026-04-26T08:16:26Z</time></trkpt><trkpt lat="46.24281555027007" lon="13.078854659122674"><ele>175.0</ele><time>2026-04-26T08:16:27Z</time></trkpt><trkpt lat="46.24264067139198" lon="13.078766597148663"><ele>175.0</ele><time>2026-04-26T08:16:28Z</time></trkpt><trkpt lat="46.24246572904699" lon="13.078678343680405"><ele>175.0</ele><time>2026-04-26T08:16:29Z</time></trkpt><trkpt lat="46.24229951658196" lon="13.078597831105194"><ele>175.0</ele><time>2026-04-26T08:16:30Z</time></trkpt><trkpt lat="46.24213305575352" lon="13.078515718813192"><ele>175.0</ele><time>2026-04-26T08:16:31Z</time></trkpt><trkpt lat="46.24195762418179" lon="13.07842522431907"><ele>175.0</ele><time>2026-04-26T08:16:32Z</time></trkpt><trkpt lat="46.24176892426829" lon="13.078334431231587"><ele>175.0</ele><time>2026-04-26T08:16:33Z</time></trkpt><trkpt lat="46.24157911329127" lon="13.07821896672145"><ele>174.33333333333334</ele><time>2026-04-26T08:16:34Z</time></trkpt><trkpt lat="46.24138660299456" lon="13.078123099231744"><ele>173.66666666666666</ele><time>2026-04-26T08:16:35Z</time></trkpt><trkpt lat="46.241183255383966" lon="13.078021654254062"><ele>173.0</ele><time>2026-04-26T08:16:36Z</time></trkpt><trkpt lat="46.24097764991625" lon="13.077917672041957"><ele>173.0</ele><time>2026-04-26T08:16:37Z</time></trkpt><trkpt lat="46.24076352772688" lon="13.07780938257702"><ele>173.0</ele><time>2026-04-26T08:16:38Z</time></trkpt><trkpt lat="46.24051055313538" lon="13.077680980441507"><ele>173.0</ele><time>2026-04-26T08:16:39Z</time></trkpt><trkpt lat="46.2402176138346" lon="13.077532906146178"><ele>173.0</ele><time>2026-04-26T08:16:40Z</time></trkpt><trkpt lat="46.23989124368377" lon="13.077371432536783"><ele>174.0</ele><time>2026-04-26T08:16:41Z</time></trkpt><trkpt lat="46.23953703284674" lon="13.077196694987249"><ele>175.0</ele><time>2026-04-26T08:16:42Z</time></trkpt><trkpt lat="46.23918339690617" lon="13.077021632744291"><ele>174.5</ele><time>2026-04-26T08:16:43Z</time></trkpt><trkpt lat="46.23886983927658" lon="13.076877408107372"><ele>174.0</ele><time>2026-04-26T08:16:44Z</time></trkpt><trkpt lat="46.23858775420302" lon="13.076733449847652"><ele>174.0</ele><time>2026-04-26T08:16:45Z</time></trkpt><trkpt lat="46.238322365500046" lon="13.076605321091625"><ele>174.0</ele><time>2026-04-26T08:16:46Z</time></trkpt><trkpt lat="46.23807196940348" lon="13.076484289026753"><ele>172.5</ele><time>2026-04-26T08:16:47Z</time></trkpt><trkpt lat="46.237835757261074" lon="13.076366098470139"><ele>171.0</ele><time>2026-04-26T08:16:48Z</time></trkpt><trkpt lat="46.23760152232241" lon="13.076249000156167"><ele>171.0</ele><time>2026-04-26T08:16:49Z</time></trkpt><trkpt lat="46.23736159918336" lon="13.076125259185051"><ele>171.0</ele><time>2026-04-26T08:16:50Z</time></trkpt><trkpt lat="46.23711731630002" lon="13.075998491569013"><ele>170.5</ele><time>2026-04-26T08:16:51Z</time></trkpt><trkpt lat="46.23686917504735" lon="13.075872660165162"><ele>170.0</ele><time>2026-04-26T08:16:52Z</time></trkpt><trkpt lat="46.23664167713508" lon="13.07576275091241"><ele>170.0</ele><time>2026-04-26T08:16:53Z</time></trkpt><trkpt lat="46.23643707259551" lon="13.075661112087614"><ele>170.0</ele><time>2026-04-26T08:16:54Z</time></trkpt><trkpt lat="46.236244463019986" lon="13.075562524171497"><ele>170.0</ele><time>2026-04-26T08:16:55Z</time></trkpt><trkpt lat="46.23604345360463" lon="13.075462646716861"><ele>170.0</ele><time>2026-04-26T08:16:56Z</time></trkpt><trkpt lat="46.2358110571242" lon="13.075341845480883"><ele>170.0</ele><time>2026-04-26T08:16:57Z</time></trkpt><trkpt lat="46.23555791826868" lon="13.075218660271094"><ele>169.5</ele><time>2026-04-26T08:16:58Z</time></trkpt><trkpt lat="46.23526595014183" lon="13.075078975991065"><ele>169.0</ele><time>2026-04-26T08:16:59Z</time></trkpt><trkpt lat="46.23497237617535" lon="13.07493068244769"><ele>167.0</ele><time>2026-04-26T08:17:00Z</time></trkpt><trkpt lat="46.23471391949443" lon="13.074795874440229"><ele>165.0</ele><time>2026-04-26T08:17:01Z</time></trkpt><trkpt lat="46.23448130632111" lon="13.074682119159323"><ele>165.0</ele><time>2026-04-26T08:17:02Z</time></trkpt><trkpt lat="46.23425991151532" lon="13.07457322097583"><ele>165.0</ele><time>2026-04-26T08:17:03Z</time></trkpt><trkpt lat="46.23405375364595" lon="13.074468946204515"><ele>164.33333333333334</ele><time>2026-04-26T08:17:04Z</time></trkpt><trkpt lat="46.233857492406614" lon="13.074368207728956"><ele>163.66666666666669</ele><time>2026-04-26T08:17:05Z</time></trkpt><trkpt lat="46.23364846986523" lon="13.074262049721412"><ele>163.0</ele><time>2026-04-26T08:17:06Z</time></trkpt><trkpt lat="46.23341345936789" lon="13.074144519780408"><ele>163.5</ele><time>2026-04-26T08:17:07Z</time></trkpt><trkpt lat="46.23316261840947" lon="13.074016610269059"><ele>164.0</ele><time>2026-04-26T08:17:08Z</time></trkpt><trkpt lat="46.232909116467425" lon="13.073883212807734"><ele>164.5</ele><time>2026-04-26T08:17:09Z</time></trkpt><trkpt lat="46.23265557833818" lon="13.073752727738816"><ele>165.0</ele><time>2026-04-26T08:17:10Z</time></trkpt><trkpt lat="46.23242429285998" lon="13.073637805461633"><ele>165.33333333333334</ele><time>2026-04-26T08:17:11Z</time></trkpt><trkpt lat="46.23221571631208" lon="13.073533392087253"><ele>165.66666666666669</ele><time>2026-04-26T08:17:12Z</time></trkpt><trkpt lat="46.23200748557937" lon="13.07342690706437"><ele>166.0</ele><time>2026-04-26T08:17:13Z</time></trkpt><trkpt lat="46.23177870395584" lon="13.073312137925237"><ele>166.5</ele><time>2026-04-26T08:17:14Z</time></trkpt><trkpt lat="46.231533542113574" lon="13.073187797264502"><ele>167.0</ele><time>2026-04-26T08:17:15Z</time></trkpt><trkpt lat="46.23128186052775" lon="13.073061846595976"><ele>165.5</ele><time>2026-04-26T08:17:16Z</time></trkpt><trkpt lat="46.23104672277083" lon="13.072946575377065"><ele>164.0</ele><time>2026-04-26T08:17:17Z</time></trkpt><trkpt lat="46.23081655259296" lon="13.07283470827352"><ele>164.5</ele><time>2026-04-26T08:17:18Z</time></trkpt><trkpt lat="46.23058159243239" lon="13.072718941106004"><ele>165.0</ele><time>2026-04-26T08:17:19Z</time></trkpt><trkpt lat="46.23033684498695" lon="13.072596271026566"><ele>165.0</ele><time>2026-04-26T08:17:20Z</time></trkpt><trkpt lat="46.23008429340429" lon="13.072471356860063"><ele>165.0</ele><time>2026-04-26T08:17:21Z</time></trkpt><trkpt lat="46.2298284599142" lon="13.072346452863922"><ele>165.0</ele><time>2026-04-26T08:17:22Z</time></trkpt><trkpt lat="46.229589344202026" lon="13.072228812523463"><ele>165.0</ele><time>2026-04-26T08:17:23Z</time></trkpt><trkpt lat="46.22937132394169" lon="13.072125102583852"><ele>165.0</ele><time>2026-04-26T08:17:24Z</time></trkpt><trkpt lat="46.22916628346282" lon="13.072025650724356"><ele>165.0</ele><time>2026-04-26T08:17:25Z</time></trkpt><trkpt lat="46.22897845677623" lon="13.071933849489916"><ele>165.0</ele><time>2026-04-26T08:17:26Z</time></trkpt><trkpt lat="46.22880381836733" lon="13.071842629259978"><ele>165.0</ele><time>2026-04-26T08:17:27Z</time></trkpt><trkpt lat="46.22864201244286" lon="13.071759752094259"><ele>165.0</ele><time>2026-04-26T08:17:28Z</time></trkpt><trkpt lat="46.22848413699225" lon="13.071682985058546"><ele>165.0</ele><time>2026-04-26T08:17:29Z</time></trkpt><trkpt lat="46.22830910772931" lon="13.071595118401545"><ele>165.33333333333334</ele><time>2026-04-26T08:17:30Z</time></trkpt><trkpt lat="46.228117749144815" lon="13.071500764750587"><ele>165.66666666666669</ele><time>2026-04-26T08:17:31Z</time></trkpt><trkpt lat="46.227937714321044" lon="13.071409990994841"><ele>166.0</ele><time>2026-04-26T08:17:32Z</time></trkpt><trkpt lat="46.22777338234177" lon="13.071328801613607"><ele>166.0</ele><time>2026-04-26T08:17:33Z</time></trkpt><trkpt lat="46.22761970265672" lon="13.071255309732186"><ele>166.0</ele><time>2026-04-26T08:17:34Z</time></trkpt><trkpt lat="46.22746345199754" lon="13.071178934111016"><ele>166.0</ele><time>2026-04-26T08:17:35Z</time></trkpt><trkpt lat="46.22728471775223" lon="13.071087665009147"><ele>165.33333333333334</ele><time>2026-04-26T08:17:36Z</time></trkpt><trkpt lat="46.22709728894258" lon="13.070993205501733"><ele>164.66666666666666</ele><time>2026-04-26T08:17:37Z</time></trkpt><trkpt lat="46.22690454229054" lon="13.070901416545622"><ele>164.0</ele><time>2026-04-26T08:17:38Z</time></trkpt><trkpt lat="46.22672973324962" lon="13.070819602115847"><ele>164.0</ele><time>2026-04-26T08:17:39Z</time></trkpt><trkpt lat="46.22657036315903" lon="13.070741354083435"><ele>164.0</ele><time>2026-04-26T08:17:40Z</time></trkpt><trkpt lat="46.22642175207857" lon="13.070669307386215"><ele>164.0</ele><time>2026-04-26T08:17:41Z</time></trkpt><trkpt lat="46.22628011238829" lon="13.07059734257223"><ele>163.66666666666666</ele><time>2026-04-26T08:17:42Z</time></trkpt><trkpt lat="46.22612932098078" lon="13.070515256465704"><ele>163.33333333333334</ele><time>2026-04-26T08:17:43Z</time></trkpt><trkpt lat="46.22595781075356" lon="13.070430474120128"><ele>163.0</ele><time>2026-04-26T08:17:44Z</time></trkpt><trkpt lat="46.225775049599804" lon="13.070341194430307"><ele>163.66666666666669</ele><time>2026-04-26T08:17:45Z</time></trkpt><trkpt lat="46.22559546564818" lon="13.070253030271108"><ele>164.33333333333334</ele><time>2026-04-26T08:17:46Z</time></trkpt><trkpt lat="46.22542819096753" lon="13.07017091348108"><ele>165.0</ele><time>2026-04-26T08:17:47Z</time></trkpt><trkpt lat="46.225269785857385" lon="13.070092470088202"><ele>165.0</ele><time>2026-04-26T08:17:48Z</time></trkpt><trkpt lat="46.22510521646964" lon="13.070012018716072"><ele>165.0</ele><time>2026-04-26T08:17:49Z</time></trkpt><trkpt lat="46.224940152140654" lon="13.069930214977521"><ele>165.0</ele><time>2026-04-26T08:17:50Z</time></trkpt><trkpt lat="46.22478491121525" lon="13.069853337228066"><ele>165.0</ele><time>2026-04-26T08:17:51Z</time></trkpt><trkpt lat="46.22464037835266" lon="13.069785773765512"><ele>165.0</ele><time>2026-04-26T08:17:52Z</time></trkpt><trkpt lat="46.224506782569904" lon="13.069721044579447"><ele>165.0</ele><time>2026-04-26T08:17:53Z</time></trkpt><trkpt lat="46.22438639054068" lon="13.069663877246487"><ele>165.0</ele><time>2026-04-26T08:17:54Z</time></trkpt><trkpt lat="46.22427897536391" lon="13.069608780389588"><ele>165.0</ele><time>2026-04-26T08:17:55Z</time></trkpt><trkpt lat="46.22418030130875" lon="13.069554454390524"><ele>165.0</ele><time>2026-04-26T08:17:56Z</time></trkpt><trkpt lat="46.22409196401133" lon="13.0695066675446"><ele>165.0</ele><time>2026-04-26T08:17:57Z</time></trkpt><trkpt lat="46.224011398425354" lon="13.06947705645078"><ele>165.0</ele><time>2026-04-26T08:17:58Z</time></trkpt><trkpt lat="46.223939141116006" lon="13.069452020282446"><ele>165.0</ele><time>2026-04-26T08:17:59Z</time></trkpt><trkpt lat="46.22384177141743" lon="13.069481634331824"><ele>164.8</ele><time>2026-04-26T08:18:01Z</time></trkpt><trkpt lat="46.22371691496205" lon="13.069471122252514"><ele>164.6</ele><time>2026-04-26T08:18:03Z</time></trkpt><trkpt lat="46.223624808011806" lon="13.06945257529562"><ele>164.39999999999998</ele><time>2026-04-26T08:18:04Z</time></trkpt><trkpt lat="46.22351104234287" lon="13.0694870528401"><ele>164.2</ele><time>2026-04-26T08:18:06Z</time></trkpt><trkpt lat="46.22346264611636" lon="13.069576794537195"><ele>164.0</ele><time>2026-04-26T08:18:07Z</time></trkpt><trkpt lat="46.223449104955854" lon="13.069688968915248"><ele>164.0</ele><time>2026-04-26T08:18:08Z</time></trkpt><trkpt lat="46.22348325943938" lon="13.069793807798984"><ele>164.0</ele><time>2026-04-26T08:18:09Z</time></trkpt><trkpt lat="46.22354727519579" lon="13.069925622294669"><ele>164.0</ele><time>2026-04-26T08:18:10Z</time></trkpt><trkpt lat="46.223608494021946" lon="13.070085063221446"><ele>164.0</ele><time>2026-04-26T08:18:11Z</time></trkpt><trkpt lat="46.223624038833805" lon="13.070265364883792"><ele>164.0</ele><time>2026-04-26T08:18:12Z</time></trkpt><trkpt lat="46.2236118060979" lon="13.070492034845861"><ele>164.0</ele><time>2026-04-26T08:18:13Z</time></trkpt><trkpt lat="46.22358573762532" lon="13.070760649376627"><ele>164.0</ele><time>2026-04-26T08:18:14Z</time></trkpt><trkpt lat="46.22355385539957" lon="13.07102327318447"><ele>164.0</ele><time>2026-04-26T08:18:15Z</time></trkpt><trkpt lat="46.2235185883898" lon="13.071225623852728"><ele>164.0</ele><time>2026-04-26T08:18:16Z</time></trkpt><trkpt lat="46.22348311875051" lon="13.071398683649495"><ele>164.0</ele><time>2026-04-26T08:18:17Z</time></trkpt><trkpt lat="46.22343477818888" lon="13.07160760010184"><ele>164.0</ele><time>2026-04-26T08:18:18Z</time></trkpt><trkpt lat="46.22338943803132" lon="13.071853913223219"><ele>164.0</ele><time>2026-04-26T08:18:19Z</time></trkpt><trkpt lat="46.223344610807096" lon="13.072099749367194"><ele>164.0</ele><time>2026-04-26T08:18:20Z</time></trkpt><trkpt lat="46.22330165323786" lon="13.072303597210103"><ele>164.0</ele><time>2026-04-26T08:18:21Z</time></trkpt><trkpt lat="46.22324826142636" lon="13.072541476150043"><ele>164.33333333333331</ele><time>2026-04-26T08:18:22Z</time></trkpt><trkpt lat="46.22316624701015" lon="13.072796789311296"><ele>164.66666666666666</ele><time>2026-04-26T08:18:23Z</time></trkpt><trkpt lat="46.22304830788231" lon="13.07309441319606"><ele>165.0</ele><time>2026-04-26T08:18:24Z</time></trkpt><trkpt lat="46.22289611880643" lon="13.07343991667846"><ele>165.0</ele><time>2026-04-26T08:18:25Z</time></trkpt><trkpt lat="46.2226947833839" lon="13.073854843883208"><ele>165.0</ele><time>2026-04-26T08:18:26Z</time></trkpt><trkpt lat="46.22251557190205" lon="13.074250823368548"><ele>165.5</ele><time>2026-04-26T08:18:27Z</time></trkpt><trkpt lat="46.222348907098045" lon="13.074628913696078"><ele>166.0</ele><time>2026-04-26T08:18:28Z</time></trkpt><trkpt lat="46.222210128505914" lon="13.074945104775905"><ele>165.0</ele><time>2026-04-26T08:18:29Z</time></trkpt><trkpt lat="46.222085529284016" lon="13.075218863672216"><ele>164.0</ele><time>2026-04-26T08:18:30Z</time></trkpt><trkpt lat="46.22196096644549" lon="13.075488621422167"><ele>164.0</ele><time>2026-04-26T08:18:31Z</time></trkpt><trkpt lat="46.22181576127671" lon="13.075807925878362"><ele>164.0</ele><time>2026-04-26T08:18:32Z</time></trkpt><trkpt lat="46.22165910242467" lon="13.076160960886053"><ele>164.0</ele><time>2026-04-26T08:18:33Z</time></trkpt><trkpt lat="46.221486834751985" lon="13.076549640902275"><ele>164.0</ele><time>2026-04-26T08:18:34Z</time></trkpt><trkpt lat="46.22130358187373" lon="13.076963748334826"><ele>164.0</ele><time>2026-04-26T08:18:35Z</time></trkpt><trkpt lat="46.221137078869965" lon="13.077336806420211"><ele>164.0</ele><time>2026-04-26T08:18:36Z</time></trkpt><trkpt lat="46.22099626693344" lon="13.077656052366567"><ele>163.0</ele><time>2026-04-26T08:18:37Z</time></trkpt><trkpt lat="46.22086624439524" lon="13.077952870121818"><ele>162.0</ele><time>2026-04-26T08:18:38Z</time></trkpt><trkpt lat="46.22073962740248" lon="13.078238137279937"><ele>162.5</ele><time>2026-04-26T08:18:39Z</time></trkpt><trkpt lat="46.22060597553092" lon="13.078541076169"><ele>163.0</ele><time>2026-04-26T08:18:40Z</time></trkpt><trkpt lat="46.220459925391964" lon="13.078862723508713"><ele>164.0</ele><time>2026-04-26T08:18:41Z</time></trkpt><trkpt lat="46.22031087452428" lon="13.079189750656257"><ele>165.0</ele><time>2026-04-26T08:18:42Z</time></trkpt><trkpt lat="46.220164850910784" lon="13.079516845273435"><ele>165.0</ele><time>2026-04-26T08:18:43Z</time></trkpt><trkpt lat="46.2200352681848" lon="13.079812248336609"><ele>165.0</ele><time>2026-04-26T08:18:44Z</time></trkpt><trkpt lat="46.21991921201098" lon="13.080074755766677"><ele>165.0</ele><time>2026-04-26T08:18:45Z</time></trkpt><trkpt lat="46.21981051311436" lon="13.080317615265903"><ele>165.0</ele><time>2026-04-26T08:18:46Z</time></trkpt><trkpt lat="46.219705101852384" lon="13.080547633620146"><ele>165.0</ele><time>2026-04-26T08:18:47Z</time></trkpt><trkpt lat="46.21959204143658" lon="13.080801169600731"><ele>165.0</ele><time>2026-04-26T08:18:48Z</time></trkpt><trkpt lat="46.21947376071417" lon="13.081068032994692"><ele>165.0</ele><time>2026-04-26T08:18:49Z</time></trkpt><trkpt lat="46.21936871541582" lon="13.08130459737222"><ele>165.0</ele><time>2026-04-26T08:18:50Z</time></trkpt><trkpt lat="46.21927562568254" lon="13.08151405135551"><ele>164.75</ele><time>2026-04-26T08:18:51Z</time></trkpt><trkpt lat="46.21918948997307" lon="13.081706565176757"><ele>164.5</ele><time>2026-04-26T08:18:52Z</time></trkpt><trkpt lat="46.21911137111567" lon="13.081880980428814"><ele>164.25</ele><time>2026-04-26T08:18:53Z</time></trkpt><trkpt lat="46.21903825464686" lon="13.082040122162015"><ele>164.0</ele><time>2026-04-26T08:18:54Z</time></trkpt><trkpt lat="46.218972918878976" lon="13.082194155550173"><ele>164.0</ele><time>2026-04-26T08:18:55Z</time></trkpt><trkpt lat="46.218910724070035" lon="13.082341668127828"><ele>164.0</ele><time>2026-04-26T08:18:56Z</time></trkpt><trkpt lat="46.21885065923244" lon="13.082484006132471"><ele>164.0</ele><time>2026-04-26T08:18:57Z</time></trkpt><trkpt lat="46.21879229463976" lon="13.082614923404611"><ele>164.0</ele><time>2026-04-26T08:18:58Z</time></trkpt><trkpt lat="46.21873949599808" lon="13.082721681255743"><ele>164.0</ele><time>2026-04-26T08:18:59Z</time></trkpt><trkpt lat="46.21868278195972" lon="13.082810987033868"><ele>164.2</ele><time>2026-04-26T08:19:00Z</time></trkpt><trkpt lat="46.21861020537563" lon="13.082870149006602"><ele>164.39999999999998</ele><time>2026-04-26T08:19:01Z</time></trkpt><trkpt lat="46.21853289355032" lon="13.082877075991492"><ele>164.6</ele><time>2026-04-26T08:19:02Z</time></trkpt><trkpt lat="46.2184322497888" lon="13.082853595233885"><ele>164.8</ele><time>2026-04-26T08:19:03Z</time></trkpt><trkpt lat="46.21832313143205" lon="13.082786558594416"><ele>165.0</ele><time>2026-04-26T08:19:04Z</time></trkpt><trkpt lat="46.21820647344959" lon="13.082696468436929"><ele>164.8</ele><time>2026-04-26T08:19:05Z</time></trkpt><trkpt lat="46.21809043938265" lon="13.082621345164847"><ele>164.6</ele><time>2026-04-26T08:19:06Z</time></trkpt><trkpt lat="46.21799277099647" lon="13.08256190834835"><ele>164.39999999999998</ele><time>2026-04-26T08:19:07Z</time></trkpt><trkpt lat="46.217899670828324" lon="13.082502771573232"><ele>164.2</ele><time>2026-04-26T08:19:08Z</time></trkpt><trkpt lat="46.217813952993424" lon="13.08245171703162"><ele>164.0</ele><time>2026-04-26T08:19:09Z</time></trkpt><trkpt lat="46.21773064083626" lon="13.082404135913807"><ele>164.0</ele><time>2026-04-26T08:19:10Z</time></trkpt><trkpt lat="46.2176411342894" lon="13.082347533439235"><ele>164.0</ele><time>2026-04-26T08:19:11Z</time></trkpt><trkpt lat="46.21755137831836" lon="13.08228745648909"><ele>164.0</ele><time>2026-04-26T08:19:12Z</time></trkpt><trkpt lat="46.217452993963015" lon="13.082225537771357"><ele>164.0</ele><time>2026-04-26T08:19:13Z</time></trkpt><trkpt lat="46.217355725645966" lon="13.082163653606207"><ele>164.0</ele><time>2026-04-26T08:19:14Z</time></trkpt><trkpt lat="46.21725336690025" lon="13.082103235099371"><ele>164.0</ele><time>2026-04-26T08:19:15Z</time></trkpt><trkpt lat="46.21715081189035" lon="13.082045557438923"><ele>164.0</ele><time>2026-04-26T08:19:16Z</time></trkpt><trkpt lat="46.21705411079026" lon="13.081985120867529"><ele>164.0</ele><time>2026-04-26T08:19:17Z</time></trkpt><trkpt lat="46.21696249721216" lon="13.081925042934559"><ele>164.0</ele><time>2026-04-26T08:19:18Z</time></trkpt><trkpt lat="46.21687096287183" lon="13.081873034580424"><ele>164.0</ele><time>2026-04-26T08:19:19Z</time></trkpt><trkpt lat="46.216785902943165" lon="13.081826598589446"><ele>163.99999999999997</ele><time>2026-04-26T08:19:20Z</time></trkpt><trkpt lat="46.216712276911615" lon="13.081781240089002"><ele>164.0</ele><time>2026-04-26T08:19:21Z</time></trkpt><trkpt lat="46.21664063758245" lon="13.081738201532085"><ele>164.0</ele><time>2026-04-26T08:19:22Z</time></trkpt><trkpt lat="46.21657438691906" lon="13.081689234148465"><ele>164.0</ele><time>2026-04-26T08:19:23Z</time></trkpt><trkpt lat="46.21652052770057" lon="13.081615677006662"><ele>164.0</ele><time>2026-04-26T08:19:24Z</time></trkpt><trkpt lat="46.21649360887182" lon="13.081515919088323"><ele>163.99999999999997</ele><time>2026-04-26T08:19:25Z</time></trkpt><trkpt lat="46.21643951041736" lon="13.081460500269523"><ele>164.0</ele><time>2026-04-26T08:19:26Z</time></trkpt><trkpt lat="46.21647209324143" lon="13.081279560013662"><ele>164.0</ele><time>2026-04-26T08:19:27Z</time></trkpt><trkpt lat="46.216463497277886" lon="13.081157947528842"><ele>164.0</ele><time>2026-04-26T08:19:28Z</time></trkpt><trkpt lat="46.21645623124892" lon="13.081043418961256"><ele>164.0</ele><time>2026-04-26T08:19:29Z</time></trkpt><trkpt lat="46.216452439350306" lon="13.08093907867731"><ele>164.0</ele><time>2026-04-26T08:19:30Z</time></trkpt><trkpt lat="46.2164481554434" lon="13.08083334466549"><ele>164.0</ele><time>2026-04-26T08:19:31Z</time></trkpt><trkpt lat="46.216424844207296" lon="13.080731452368111"><ele>164.0</ele><time>2026-04-26T08:19:32Z</time></trkpt><trkpt lat="46.21637968147704" lon="13.080655586456025"><ele>163.83333333333331</ele><time>2026-04-26T08:19:33Z</time></trkpt><trkpt lat="46.21631723577624" lon="13.08061213352652"><ele>163.66666666666666</ele><time>2026-04-26T08:19:34Z</time></trkpt><trkpt lat="46.21625001503992" lon="13.080573273991277"><ele>163.5</ele><time>2026-04-26T08:19:35Z</time></trkpt><trkpt lat="46.21618053199498" lon="13.080507717511319"><ele>163.33333333333334</ele><time>2026-04-26T08:19:36Z</time></trkpt><trkpt lat="46.216105372864696" lon="13.080455951756834"><ele>163.16666666666669</ele><time>2026-04-26T08:19:37Z</time></trkpt><trkpt lat="46.21602170849094" lon="13.08042788615906"><ele>163.0</ele><time>2026-04-26T08:19:38Z</time></trkpt><trkpt lat="46.21594008530745" lon="13.080387787209952"><ele>163.0</ele><time>2026-04-26T08:19:39Z</time></trkpt><trkpt lat="46.2158575173684" lon="13.080365082225082"><ele>163.0</ele><time>2026-04-26T08:19:40Z</time></trkpt><trkpt lat="46.21576841908349" lon="13.080337978058369"><ele>163.0</ele><time>2026-04-26T08:19:41Z</time></trkpt><trkpt lat="46.21568499276814" lon="13.080324970968647"><ele>163.0</ele><time>2026-04-26T08:19:42Z</time></trkpt><trkpt lat="46.21560833146203" lon="13.080307086214988"><ele>163.0</ele><time>2026-04-26T08:19:43Z</time></trkpt><trkpt lat="46.21552398675794" lon="13.080308859920574"><ele>163.0</ele><time>2026-04-26T08:19:44Z</time></trkpt><trkpt lat="46.215443490823766" lon="13.080283772272379"><ele>163.0</ele><time>2026-04-26T08:19:45Z</time></trkpt><trkpt lat="46.21536211911566" lon="13.080256771335387"><ele>163.0</ele><time>2026-04-26T08:19:46Z</time></trkpt><trkpt lat="46.21528842990598" lon="13.080206346100287"><ele>163.0</ele><time>2026-04-26T08:19:47Z</time></trkpt><trkpt lat="46.21520903286545" lon="13.080194763438262"><ele>163.0</ele><time>2026-04-26T08:19:48Z</time></trkpt><trkpt lat="46.21513547130379" lon="13.080158632968807"><ele>163.0</ele><time>2026-04-26T08:19:49Z</time></trkpt><trkpt lat="46.21506735223338" lon="13.080097412872151"><ele>163.0</ele><time>2026-04-26T08:19:50Z</time></trkpt><trkpt lat="46.21500134436875" lon="13.080048506824298"><ele>163.0</ele><time>2026-04-26T08:19:51Z</time></trkpt><trkpt lat="46.2149312534676" lon="13.079981884043999"><ele>163.0</ele><time>2026-04-26T08:19:52Z</time></trkpt><trkpt lat="46.21486400985393" lon="13.079906196368011"><ele>163.0</ele><time>2026-04-26T08:19:53Z</time></trkpt><trkpt lat="46.21478478633921" lon="13.079822220549756"><ele>163.0</ele><time>2026-04-26T08:19:54Z</time></trkpt><trkpt lat="46.214702994278" lon="13.079740782946192"><ele>163.0</ele><time>2026-04-26T08:19:55Z</time></trkpt><trkpt lat="46.21460703659363" lon="13.079678818480515"><ele>162.8</ele><time>2026-04-26T08:19:56Z</time></trkpt><trkpt lat="46.21452537837071" lon="13.079593541305943"><ele>162.60000000000002</ele><time>2026-04-26T08:19:57Z</time></trkpt><trkpt lat="46.2144473061184" lon="13.079512023321728"><ele>162.39999999999998</ele><time>2026-04-26T08:19:58Z</time></trkpt><trkpt lat="46.21437378174817" lon="13.079441632096852"><ele>162.2</ele><time>2026-04-26T08:19:59Z</time></trkpt><trkpt lat="46.214287191725944" lon="13.079358751438722"><ele>162.0</ele><time>2026-04-26T08:20:00Z</time></trkpt><trkpt lat="46.214214186673004" lon="13.079255709816078"><ele>162.0</ele><time>2026-04-26T08:20:01Z</time></trkpt><trkpt lat="46.21413549619791" lon="13.079179959712292"><ele>162.0</ele><time>2026-04-26T08:20:02Z</time></trkpt><trkpt lat="46.21405875991612" lon="13.079106393981299"><ele>162.0</ele><time>2026-04-26T08:20:03Z</time></trkpt><trkpt lat="46.213985267005185" lon="13.079035936981196"><ele>162.0</ele><time>2026-04-26T08:20:04Z</time></trkpt><trkpt lat="46.21390590089615" lon="13.078962802276699"><ele>162.0</ele><time>2026-04-26T08:20:05Z</time></trkpt><trkpt lat="46.21382757372194" lon="13.078887614638047"><ele>161.8</ele><time>2026-04-26T08:20:06Z</time></trkpt><trkpt lat="46.21375520135596" lon="13.078815065020322"><ele>161.6</ele><time>2026-04-26T08:20:07Z</time></trkpt><trkpt lat="46.21368253226486" lon="13.07874280041891"><ele>161.4</ele><time>2026-04-26T08:20:08Z</time></trkpt><trkpt lat="46.21359945376381" lon="13.078691856522605"><ele>161.20000000000002</ele><time>2026-04-26T08:20:09Z</time></trkpt><trkpt lat="46.21353168086995" lon="13.078601055853998"><ele>161.0</ele><time>2026-04-26T08:20:10Z</time></trkpt><trkpt lat="46.213450338031066" lon="13.078532019938535"><ele>161.0</ele><time>2026-04-26T08:20:11Z</time></trkpt><trkpt lat="46.21336856033833" lon="13.078472180805278"><ele>161.0</ele><time>2026-04-26T08:20:12Z</time></trkpt><trkpt lat="46.21328473609893" lon="13.078425080428566"><ele>161.0</ele><time>2026-04-26T08:20:13Z</time></trkpt><trkpt lat="46.21320575051872" lon="13.078389011577087"><ele>161.0</ele><time>2026-04-26T08:20:14Z</time></trkpt><trkpt lat="46.213125267668644" lon="13.078389128007352"><ele>161.0</ele><time>2026-04-26T08:20:15Z</time></trkpt><trkpt lat="46.21303930841132" lon="13.078379255054358"><ele>161.0</ele><time>2026-04-26T08:20:16Z</time></trkpt><trkpt lat="46.21295806941153" lon="13.07838506994418"><ele>164.0</ele><time>2026-04-26T08:20:17Z</time></trkpt><trkpt lat="46.2128909729013" lon="13.078364806322938"><ele>164.0</ele><time>2026-04-26T08:20:18Z</time></trkpt><trkpt lat="46.21277596162266" lon="13.078364287987275"><ele>164.0</ele><time>2026-04-26T08:20:20Z</time></trkpt><trkpt lat="46.212686776260426" lon="13.07834674944675"><ele>164.0</ele><time>2026-04-26T08:20:22Z</time></trkpt><trkpt lat="46.212606567291" lon="13.07830877979556"><ele>164.0</ele><time>2026-04-26T08:20:25Z</time></trkpt></trkseg></trk></gpx>